<?xml version="1.0" encoding="UTF-8" standalone="no" ?>
<gpx xmlns="http://www.topografix.com/GPX/1/1" xmlns:xsi="http://www.w3.org/2001/XMLSchema-instance" xsi:schemaLocation="http://www.topografix.com/GPX/1/1 http://www.topografix.com/GPX/1/1/gpx.xsd" version="1.1" creator="VisuGPX - https://www.visugpx.com">
  <metadata>
    <name>Les trails du coulmy </name>
    <desc><![CDATA[Le parcours des 30 kilometres et 900 m de dénivelé. A parcourir sans modération!]]></desc>
  </metadata>
  <trk>
    <name><![CDATA[OR-7472924--Cosnes-et-Romain:La Coulmy Sport+]]></name>
    <trkseg>
      <trkpt lat="49.51985" lon="5.7199">
        <ele>375</ele>
        <time>2017-05-28T22:52:33Z</time>
      </trkpt>
      <trkpt lat="49.51984" lon="5.7199">
        <ele>375</ele>
        <time>2017-05-28T22:54:33Z</time>
      </trkpt>
      <trkpt lat="49.52" lon="5.71976">
        <ele>375</ele>
        <time>2017-05-28T22:56:33Z</time>
      </trkpt>
      <trkpt lat="49.52007" lon="5.71982">
        <ele>375</ele>
        <time>2017-05-28T22:58:33Z</time>
      </trkpt>
      <trkpt lat="49.52015" lon="5.72009">
        <ele>375</ele>
        <time>2017-05-28T23:00:33Z</time>
      </trkpt>
      <trkpt lat="49.52018" lon="5.7202">
        <ele>375</ele>
        <time>2017-05-28T23:02:33Z</time>
      </trkpt>
      <trkpt lat="49.5202" lon="5.72042">
        <ele>375</ele>
        <time>2017-05-28T23:04:33Z</time>
      </trkpt>
      <trkpt lat="49.52019" lon="5.72072">
        <ele>375</ele>
        <time>2017-05-28T23:06:33Z</time>
      </trkpt>
      <trkpt lat="49.52018" lon="5.72096">
        <ele>376</ele>
        <time>2017-05-28T23:08:33Z</time>
      </trkpt>
      <trkpt lat="49.52014" lon="5.72105">
        <ele>376</ele>
        <time>2017-05-28T23:10:33Z</time>
      </trkpt>
      <trkpt lat="49.52004" lon="5.72113">
        <ele>376</ele>
        <time>2017-05-28T23:12:33Z</time>
      </trkpt>
      <trkpt lat="49.52002" lon="5.72126">
        <ele>376</ele>
        <time>2017-05-28T23:14:33Z</time>
      </trkpt>
      <trkpt lat="49.52011" lon="5.72153">
        <ele>377</ele>
        <time>2017-05-28T23:16:33Z</time>
      </trkpt>
      <trkpt lat="49.52019" lon="5.72179">
        <ele>377</ele>
        <time>2017-05-28T23:18:33Z</time>
      </trkpt>
      <trkpt lat="49.52029" lon="5.72206">
        <ele>376</ele>
        <time>2017-05-28T23:20:33Z</time>
      </trkpt>
      <trkpt lat="49.52039" lon="5.72234">
        <ele>376</ele>
        <time>2017-05-28T23:22:33Z</time>
      </trkpt>
      <trkpt lat="49.5206" lon="5.72287">
        <ele>376</ele>
        <time>2017-05-28T23:24:33Z</time>
      </trkpt>
      <trkpt lat="49.52082" lon="5.72342">
        <ele>377</ele>
        <time>2017-05-28T23:26:33Z</time>
      </trkpt>
      <trkpt lat="49.5212" lon="5.72431">
        <ele>377</ele>
        <time>2017-05-28T23:28:33Z</time>
      </trkpt>
      <trkpt lat="49.52137" lon="5.72471">
        <ele>378</ele>
        <time>2017-05-28T23:30:33Z</time>
      </trkpt>
      <trkpt lat="49.52141" lon="5.7247">
        <ele>378</ele>
        <time>2017-05-28T23:32:33Z</time>
      </trkpt>
      <trkpt lat="49.52175" lon="5.72417">
        <ele>376</ele>
        <time>2017-05-28T23:34:33Z</time>
      </trkpt>
      <trkpt lat="49.5219" lon="5.72397">
        <ele>376</ele>
        <time>2017-05-28T23:36:33Z</time>
      </trkpt>
      <trkpt lat="49.52198" lon="5.72387">
        <ele>375</ele>
        <time>2017-05-28T23:38:33Z</time>
      </trkpt>
      <trkpt lat="49.52214" lon="5.7237">
        <ele>375</ele>
        <time>2017-05-28T23:40:33Z</time>
      </trkpt>
      <trkpt lat="49.52234" lon="5.72346">
        <ele>374</ele>
        <time>2017-05-28T23:42:33Z</time>
      </trkpt>
      <trkpt lat="49.52254" lon="5.72326">
        <ele>373</ele>
        <time>2017-05-28T23:44:33Z</time>
      </trkpt>
      <trkpt lat="49.52267" lon="5.72314">
        <ele>372</ele>
        <time>2017-05-28T23:46:33Z</time>
      </trkpt>
      <trkpt lat="49.52275" lon="5.72309">
        <ele>371</ele>
        <time>2017-05-28T23:48:33Z</time>
      </trkpt>
      <trkpt lat="49.52283" lon="5.72305">
        <ele>370</ele>
        <time>2017-05-28T23:50:33Z</time>
      </trkpt>
      <trkpt lat="49.52299" lon="5.72299">
        <ele>369</ele>
        <time>2017-05-28T23:52:33Z</time>
      </trkpt>
      <trkpt lat="49.52307" lon="5.72298">
        <ele>369</ele>
        <time>2017-05-28T23:54:33Z</time>
      </trkpt>
      <trkpt lat="49.52323" lon="5.72298">
        <ele>368</ele>
        <time>2017-05-28T23:56:33Z</time>
      </trkpt>
      <trkpt lat="49.52338" lon="5.72299">
        <ele>368</ele>
        <time>2017-05-28T23:58:33Z</time>
      </trkpt>
      <trkpt lat="49.5235" lon="5.72301">
        <ele>368</ele>
        <time>2017-05-29T00:00:33Z</time>
      </trkpt>
      <trkpt lat="49.5236" lon="5.72303">
        <ele>368</ele>
        <time>2017-05-29T00:02:33Z</time>
      </trkpt>
      <trkpt lat="49.52373" lon="5.72307">
        <ele>368</ele>
        <time>2017-05-29T00:04:33Z</time>
      </trkpt>
      <trkpt lat="49.52379" lon="5.72311">
        <ele>368</ele>
        <time>2017-05-29T00:06:33Z</time>
      </trkpt>
      <trkpt lat="49.52385" lon="5.72309">
        <ele>368</ele>
        <time>2017-05-29T00:08:33Z</time>
      </trkpt>
      <trkpt lat="49.52387" lon="5.72307">
        <ele>368</ele>
        <time>2017-05-29T00:10:33Z</time>
      </trkpt>
      <trkpt lat="49.52388" lon="5.72304">
        <ele>368</ele>
        <time>2017-05-29T00:12:33Z</time>
      </trkpt>
      <trkpt lat="49.52386" lon="5.72297">
        <ele>368</ele>
        <time>2017-05-29T00:14:33Z</time>
      </trkpt>
      <trkpt lat="49.52382" lon="5.72286">
        <ele>367</ele>
        <time>2017-05-29T00:16:33Z</time>
      </trkpt>
      <trkpt lat="49.52376" lon="5.72256">
        <ele>367</ele>
        <time>2017-05-29T00:18:33Z</time>
      </trkpt>
      <trkpt lat="49.52377" lon="5.72243">
        <ele>367</ele>
        <time>2017-05-29T00:20:33Z</time>
      </trkpt>
      <trkpt lat="49.52381" lon="5.72232">
        <ele>367</ele>
        <time>2017-05-29T00:22:33Z</time>
      </trkpt>
      <trkpt lat="49.5239" lon="5.72217">
        <ele>367</ele>
        <time>2017-05-29T00:24:33Z</time>
      </trkpt>
      <trkpt lat="49.52401" lon="5.72203">
        <ele>367</ele>
        <time>2017-05-29T00:26:33Z</time>
      </trkpt>
      <trkpt lat="49.52404" lon="5.72202">
        <ele>367</ele>
        <time>2017-05-29T00:28:33Z</time>
      </trkpt>
      <trkpt lat="49.5241" lon="5.72205">
        <ele>367</ele>
        <time>2017-05-29T00:30:33Z</time>
      </trkpt>
      <trkpt lat="49.52416" lon="5.72214">
        <ele>367</ele>
        <time>2017-05-29T00:32:33Z</time>
      </trkpt>
      <trkpt lat="49.52418" lon="5.72215">
        <ele>367</ele>
        <time>2017-05-29T00:34:33Z</time>
      </trkpt>
      <trkpt lat="49.52433" lon="5.72205">
        <ele>368</ele>
        <time>2017-05-29T00:36:33Z</time>
      </trkpt>
      <trkpt lat="49.5245" lon="5.72191">
        <ele>369</ele>
        <time>2017-05-29T00:38:33Z</time>
      </trkpt>
      <trkpt lat="49.52456" lon="5.72188">
        <ele>369</ele>
        <time>2017-05-29T00:40:33Z</time>
      </trkpt>
      <trkpt lat="49.52471" lon="5.72182">
        <ele>370</ele>
        <time>2017-05-29T00:42:33Z</time>
      </trkpt>
      <trkpt lat="49.52481" lon="5.72184">
        <ele>371</ele>
        <time>2017-05-29T00:44:33Z</time>
      </trkpt>
      <trkpt lat="49.52501" lon="5.72193">
        <ele>372</ele>
        <time>2017-05-29T00:46:33Z</time>
      </trkpt>
      <trkpt lat="49.52516" lon="5.722">
        <ele>372</ele>
        <time>2017-05-29T00:48:33Z</time>
      </trkpt>
      <trkpt lat="49.52535" lon="5.72207">
        <ele>371</ele>
        <time>2017-05-29T00:50:33Z</time>
      </trkpt>
      <trkpt lat="49.52547" lon="5.72214">
        <ele>371</ele>
        <time>2017-05-29T00:52:33Z</time>
      </trkpt>
      <trkpt lat="49.52557" lon="5.72221">
        <ele>372</ele>
        <time>2017-05-29T00:54:33Z</time>
      </trkpt>
      <trkpt lat="49.5256" lon="5.72224">
        <ele>372</ele>
        <time>2017-05-29T00:56:33Z</time>
      </trkpt>
      <trkpt lat="49.52567" lon="5.7223">
        <ele>372</ele>
        <time>2017-05-29T00:58:33Z</time>
      </trkpt>
      <trkpt lat="49.52586" lon="5.7223">
        <ele>372</ele>
        <time>2017-05-29T01:00:33Z</time>
      </trkpt>
      <trkpt lat="49.52605" lon="5.7223">
        <ele>372</ele>
        <time>2017-05-29T01:02:33Z</time>
      </trkpt>
      <trkpt lat="49.52606" lon="5.7223">
        <ele>372</ele>
        <time>2017-05-29T01:04:33Z</time>
      </trkpt>
      <trkpt lat="49.52626" lon="5.72227">
        <ele>371</ele>
        <time>2017-05-29T01:06:33Z</time>
      </trkpt>
      <trkpt lat="49.52648" lon="5.72225">
        <ele>370</ele>
        <time>2017-05-29T01:08:33Z</time>
      </trkpt>
      <trkpt lat="49.52665" lon="5.72223">
        <ele>370</ele>
        <time>2017-05-29T01:10:33Z</time>
      </trkpt>
      <trkpt lat="49.52686" lon="5.72222">
        <ele>369</ele>
        <time>2017-05-29T01:12:33Z</time>
      </trkpt>
      <trkpt lat="49.5271" lon="5.72224">
        <ele>369</ele>
        <time>2017-05-29T01:14:33Z</time>
      </trkpt>
      <trkpt lat="49.52733" lon="5.72216">
        <ele>369</ele>
        <time>2017-05-29T01:16:33Z</time>
      </trkpt>
      <trkpt lat="49.52753" lon="5.72194">
        <ele>367</ele>
        <time>2017-05-29T01:18:33Z</time>
      </trkpt>
      <trkpt lat="49.52762" lon="5.72185">
        <ele>368</ele>
        <time>2017-05-29T01:20:33Z</time>
      </trkpt>
      <trkpt lat="49.52779" lon="5.72174">
        <ele>370</ele>
        <time>2017-05-29T01:22:33Z</time>
      </trkpt>
      <trkpt lat="49.52799" lon="5.72163">
        <ele>373</ele>
        <time>2017-05-29T01:24:33Z</time>
      </trkpt>
      <trkpt lat="49.52816" lon="5.72149">
        <ele>373</ele>
        <time>2017-05-29T01:26:33Z</time>
      </trkpt>
      <trkpt lat="49.52835" lon="5.72128">
        <ele>374</ele>
        <time>2017-05-29T01:28:33Z</time>
      </trkpt>
      <trkpt lat="49.52851" lon="5.72106">
        <ele>372</ele>
        <time>2017-05-29T01:30:33Z</time>
      </trkpt>
      <trkpt lat="49.52855" lon="5.72099">
        <ele>372</ele>
        <time>2017-05-29T01:32:33Z</time>
      </trkpt>
      <trkpt lat="49.52862" lon="5.72086">
        <ele>371</ele>
        <time>2017-05-29T01:34:33Z</time>
      </trkpt>
      <trkpt lat="49.52867" lon="5.72079">
        <ele>370</ele>
        <time>2017-05-29T01:36:33Z</time>
      </trkpt>
      <trkpt lat="49.52869" lon="5.72076">
        <ele>369</ele>
        <time>2017-05-29T01:38:33Z</time>
      </trkpt>
      <trkpt lat="49.52869" lon="5.72076">
        <ele>369</ele>
        <time>2017-05-29T01:40:33Z</time>
      </trkpt>
      <trkpt lat="49.52876" lon="5.72071">
        <ele>369</ele>
        <time>2017-05-29T01:42:33Z</time>
      </trkpt>
      <trkpt lat="49.52881" lon="5.72065">
        <ele>368</ele>
        <time>2017-05-29T01:44:33Z</time>
      </trkpt>
      <trkpt lat="49.52885" lon="5.72059">
        <ele>366</ele>
        <time>2017-05-29T01:46:33Z</time>
      </trkpt>
      <trkpt lat="49.52886" lon="5.72057">
        <ele>366</ele>
        <time>2017-05-29T01:48:33Z</time>
      </trkpt>
      <trkpt lat="49.52893" lon="5.72046">
        <ele>363</ele>
        <time>2017-05-29T01:50:33Z</time>
      </trkpt>
      <trkpt lat="49.52899" lon="5.72036">
        <ele>361</ele>
        <time>2017-05-29T01:52:33Z</time>
      </trkpt>
      <trkpt lat="49.52904" lon="5.7203">
        <ele>360</ele>
        <time>2017-05-29T01:54:33Z</time>
      </trkpt>
      <trkpt lat="49.5291" lon="5.72021">
        <ele>358</ele>
        <time>2017-05-29T01:56:33Z</time>
      </trkpt>
      <trkpt lat="49.52917" lon="5.72013">
        <ele>357</ele>
        <time>2017-05-29T01:58:33Z</time>
      </trkpt>
      <trkpt lat="49.52921" lon="5.72005">
        <ele>354</ele>
        <time>2017-05-29T02:00:33Z</time>
      </trkpt>
      <trkpt lat="49.52924" lon="5.71999">
        <ele>352</ele>
        <time>2017-05-29T02:02:33Z</time>
      </trkpt>
      <trkpt lat="49.52933" lon="5.71997">
        <ele>349</ele>
        <time>2017-05-29T02:04:33Z</time>
      </trkpt>
      <trkpt lat="49.5294" lon="5.71995">
        <ele>348</ele>
        <time>2017-05-29T02:06:33Z</time>
      </trkpt>
      <trkpt lat="49.52946" lon="5.71992">
        <ele>346</ele>
        <time>2017-05-29T02:08:33Z</time>
      </trkpt>
      <trkpt lat="49.52966" lon="5.71981">
        <ele>340</ele>
        <time>2017-05-29T02:10:33Z</time>
      </trkpt>
      <trkpt lat="49.52973" lon="5.71978">
        <ele>339</ele>
        <time>2017-05-29T02:12:33Z</time>
      </trkpt>
      <trkpt lat="49.52982" lon="5.71975">
        <ele>337</ele>
        <time>2017-05-29T02:14:33Z</time>
      </trkpt>
      <trkpt lat="49.52989" lon="5.71972">
        <ele>336</ele>
        <time>2017-05-29T02:16:33Z</time>
      </trkpt>
      <trkpt lat="49.52995" lon="5.7197">
        <ele>335</ele>
        <time>2017-05-29T02:18:33Z</time>
      </trkpt>
      <trkpt lat="49.53029" lon="5.71962">
        <ele>329</ele>
        <time>2017-05-29T02:20:33Z</time>
      </trkpt>
      <trkpt lat="49.53046" lon="5.71961">
        <ele>326</ele>
        <time>2017-05-29T02:22:33Z</time>
      </trkpt>
      <trkpt lat="49.53061" lon="5.71958">
        <ele>323</ele>
        <time>2017-05-29T02:24:33Z</time>
      </trkpt>
      <trkpt lat="49.53072" lon="5.71959">
        <ele>322</ele>
        <time>2017-05-29T02:26:33Z</time>
      </trkpt>
      <trkpt lat="49.53092" lon="5.71975">
        <ele>320</ele>
        <time>2017-05-29T02:28:33Z</time>
      </trkpt>
      <trkpt lat="49.53105" lon="5.71997">
        <ele>320</ele>
        <time>2017-05-29T02:30:33Z</time>
      </trkpt>
      <trkpt lat="49.53118" lon="5.72022">
        <ele>320</ele>
        <time>2017-05-29T02:32:33Z</time>
      </trkpt>
      <trkpt lat="49.53124" lon="5.72049">
        <ele>321</ele>
        <time>2017-05-29T02:34:33Z</time>
      </trkpt>
      <trkpt lat="49.53125" lon="5.72058">
        <ele>322</ele>
        <time>2017-05-29T02:36:33Z</time>
      </trkpt>
      <trkpt lat="49.53123" lon="5.72076">
        <ele>323</ele>
        <time>2017-05-29T02:38:33Z</time>
      </trkpt>
      <trkpt lat="49.53123" lon="5.72094">
        <ele>325</ele>
        <time>2017-05-29T02:40:33Z</time>
      </trkpt>
      <trkpt lat="49.53126" lon="5.72119">
        <ele>327</ele>
        <time>2017-05-29T02:42:33Z</time>
      </trkpt>
      <trkpt lat="49.53132" lon="5.72191">
        <ele>334</ele>
        <time>2017-05-29T02:44:33Z</time>
      </trkpt>
      <trkpt lat="49.53133" lon="5.72213">
        <ele>336</ele>
        <time>2017-05-29T02:46:33Z</time>
      </trkpt>
      <trkpt lat="49.53135" lon="5.72233">
        <ele>338</ele>
        <time>2017-05-29T02:48:33Z</time>
      </trkpt>
      <trkpt lat="49.53137" lon="5.72253">
        <ele>340</ele>
        <time>2017-05-29T02:50:33Z</time>
      </trkpt>
      <trkpt lat="49.53139" lon="5.72274">
        <ele>343</ele>
        <time>2017-05-29T02:52:33Z</time>
      </trkpt>
      <trkpt lat="49.5314" lon="5.72287">
        <ele>345</ele>
        <time>2017-05-29T02:54:33Z</time>
      </trkpt>
      <trkpt lat="49.53141" lon="5.72307">
        <ele>348</ele>
        <time>2017-05-29T02:56:33Z</time>
      </trkpt>
      <trkpt lat="49.53142" lon="5.72323">
        <ele>350</ele>
        <time>2017-05-29T02:58:33Z</time>
      </trkpt>
      <trkpt lat="49.53142" lon="5.7233">
        <ele>351</ele>
        <time>2017-05-29T03:00:33Z</time>
      </trkpt>
      <trkpt lat="49.53143" lon="5.72337">
        <ele>352</ele>
        <time>2017-05-29T03:02:33Z</time>
      </trkpt>
      <trkpt lat="49.53146" lon="5.72352">
        <ele>353</ele>
        <time>2017-05-29T03:04:33Z</time>
      </trkpt>
      <trkpt lat="49.53147" lon="5.72361">
        <ele>355</ele>
        <time>2017-05-29T03:06:33Z</time>
      </trkpt>
      <trkpt lat="49.53148" lon="5.72369">
        <ele>356</ele>
        <time>2017-05-29T03:08:33Z</time>
      </trkpt>
      <trkpt lat="49.53151" lon="5.72385">
        <ele>358</ele>
        <time>2017-05-29T03:10:33Z</time>
      </trkpt>
      <trkpt lat="49.53157" lon="5.72403">
        <ele>359</ele>
        <time>2017-05-29T03:12:33Z</time>
      </trkpt>
      <trkpt lat="49.53159" lon="5.72412">
        <ele>360</ele>
        <time>2017-05-29T03:14:33Z</time>
      </trkpt>
      <trkpt lat="49.53166" lon="5.72433">
        <ele>361</ele>
        <time>2017-05-29T03:16:33Z</time>
      </trkpt>
      <trkpt lat="49.5317" lon="5.72456">
        <ele>362</ele>
        <time>2017-05-29T03:18:33Z</time>
      </trkpt>
      <trkpt lat="49.53178" lon="5.72488">
        <ele>362</ele>
        <time>2017-05-29T03:20:33Z</time>
      </trkpt>
      <trkpt lat="49.53184" lon="5.72508">
        <ele>361</ele>
        <time>2017-05-29T03:22:33Z</time>
      </trkpt>
      <trkpt lat="49.53193" lon="5.72536">
        <ele>359</ele>
        <time>2017-05-29T03:24:33Z</time>
      </trkpt>
      <trkpt lat="49.53195" lon="5.72545">
        <ele>359</ele>
        <time>2017-05-29T03:26:33Z</time>
      </trkpt>
      <trkpt lat="49.53196" lon="5.72555">
        <ele>360</ele>
        <time>2017-05-29T03:28:33Z</time>
      </trkpt>
      <trkpt lat="49.53195" lon="5.72567">
        <ele>361</ele>
        <time>2017-05-29T03:30:33Z</time>
      </trkpt>
      <trkpt lat="49.53197" lon="5.72587">
        <ele>362</ele>
        <time>2017-05-29T03:32:33Z</time>
      </trkpt>
      <trkpt lat="49.53199" lon="5.72622">
        <ele>365</ele>
        <time>2017-05-29T03:34:33Z</time>
      </trkpt>
      <trkpt lat="49.532" lon="5.72641">
        <ele>366</ele>
        <time>2017-05-29T03:36:33Z</time>
      </trkpt>
      <trkpt lat="49.532" lon="5.72674">
        <ele>368</ele>
        <time>2017-05-29T03:38:33Z</time>
      </trkpt>
      <trkpt lat="49.53198" lon="5.72704">
        <ele>368</ele>
        <time>2017-05-29T03:40:33Z</time>
      </trkpt>
      <trkpt lat="49.53197" lon="5.72715">
        <ele>369</ele>
        <time>2017-05-29T03:42:33Z</time>
      </trkpt>
      <trkpt lat="49.53197" lon="5.72724">
        <ele>369</ele>
        <time>2017-05-29T03:44:33Z</time>
      </trkpt>
      <trkpt lat="49.53196" lon="5.72731">
        <ele>369</ele>
        <time>2017-05-29T03:46:33Z</time>
      </trkpt>
      <trkpt lat="49.53199" lon="5.72739">
        <ele>368</ele>
        <time>2017-05-29T03:48:33Z</time>
      </trkpt>
      <trkpt lat="49.53201" lon="5.72742">
        <ele>367</ele>
        <time>2017-05-29T03:50:33Z</time>
      </trkpt>
      <trkpt lat="49.53199" lon="5.7275">
        <ele>368</ele>
        <time>2017-05-29T03:52:33Z</time>
      </trkpt>
      <trkpt lat="49.53197" lon="5.72761">
        <ele>368</ele>
        <time>2017-05-29T03:54:33Z</time>
      </trkpt>
      <trkpt lat="49.53196" lon="5.72768">
        <ele>368</ele>
        <time>2017-05-29T03:56:33Z</time>
      </trkpt>
      <trkpt lat="49.53195" lon="5.72775">
        <ele>368</ele>
        <time>2017-05-29T03:58:33Z</time>
      </trkpt>
      <trkpt lat="49.53194" lon="5.72781">
        <ele>369</ele>
        <time>2017-05-29T04:00:33Z</time>
      </trkpt>
      <trkpt lat="49.53195" lon="5.72784">
        <ele>368</ele>
        <time>2017-05-29T04:02:33Z</time>
      </trkpt>
      <trkpt lat="49.53194" lon="5.72789">
        <ele>368</ele>
        <time>2017-05-29T04:04:33Z</time>
      </trkpt>
      <trkpt lat="49.53202" lon="5.72817">
        <ele>366</ele>
        <time>2017-05-29T04:06:33Z</time>
      </trkpt>
      <trkpt lat="49.5321" lon="5.72822">
        <ele>364</ele>
        <time>2017-05-29T04:08:33Z</time>
      </trkpt>
      <trkpt lat="49.53218" lon="5.72832">
        <ele>362</ele>
        <time>2017-05-29T04:10:33Z</time>
      </trkpt>
      <trkpt lat="49.53218" lon="5.72847">
        <ele>362</ele>
        <time>2017-05-29T04:12:33Z</time>
      </trkpt>
      <trkpt lat="49.53221" lon="5.72877">
        <ele>362</ele>
        <time>2017-05-29T04:14:33Z</time>
      </trkpt>
      <trkpt lat="49.53222" lon="5.72883">
        <ele>362</ele>
        <time>2017-05-29T04:16:33Z</time>
      </trkpt>
      <trkpt lat="49.53226" lon="5.729">
        <ele>362</ele>
        <time>2017-05-29T04:18:33Z</time>
      </trkpt>
      <trkpt lat="49.53225" lon="5.72911">
        <ele>362</ele>
        <time>2017-05-29T04:20:33Z</time>
      </trkpt>
      <trkpt lat="49.53224" lon="5.72919">
        <ele>362</ele>
        <time>2017-05-29T04:22:33Z</time>
      </trkpt>
      <trkpt lat="49.53226" lon="5.72948">
        <ele>364</ele>
        <time>2017-05-29T04:24:33Z</time>
      </trkpt>
      <trkpt lat="49.53234" lon="5.72974">
        <ele>364</ele>
        <time>2017-05-29T04:26:33Z</time>
      </trkpt>
      <trkpt lat="49.53238" lon="5.72999">
        <ele>365</ele>
        <time>2017-05-29T04:28:33Z</time>
      </trkpt>
      <trkpt lat="49.53238" lon="5.73028">
        <ele>367</ele>
        <time>2017-05-29T04:30:33Z</time>
      </trkpt>
      <trkpt lat="49.53236" lon="5.73078">
        <ele>372</ele>
        <time>2017-05-29T04:32:33Z</time>
      </trkpt>
      <trkpt lat="49.53238" lon="5.73103">
        <ele>373</ele>
        <time>2017-05-29T04:34:33Z</time>
      </trkpt>
      <trkpt lat="49.53241" lon="5.7312">
        <ele>373</ele>
        <time>2017-05-29T04:36:33Z</time>
      </trkpt>
      <trkpt lat="49.53247" lon="5.73147">
        <ele>374</ele>
        <time>2017-05-29T04:38:33Z</time>
      </trkpt>
      <trkpt lat="49.53252" lon="5.73173">
        <ele>373</ele>
        <time>2017-05-29T04:40:33Z</time>
      </trkpt>
      <trkpt lat="49.53254" lon="5.7319">
        <ele>373</ele>
        <time>2017-05-29T04:42:33Z</time>
      </trkpt>
      <trkpt lat="49.53254" lon="5.73215">
        <ele>374</ele>
        <time>2017-05-29T04:44:33Z</time>
      </trkpt>
      <trkpt lat="49.53252" lon="5.7324">
        <ele>375</ele>
        <time>2017-05-29T04:46:33Z</time>
      </trkpt>
      <trkpt lat="49.53246" lon="5.73277">
        <ele>375</ele>
        <time>2017-05-29T04:48:33Z</time>
      </trkpt>
      <trkpt lat="49.53237" lon="5.73306">
        <ele>373</ele>
        <time>2017-05-29T04:50:33Z</time>
      </trkpt>
      <trkpt lat="49.53233" lon="5.73321">
        <ele>373</ele>
        <time>2017-05-29T04:52:33Z</time>
      </trkpt>
      <trkpt lat="49.53225" lon="5.73342">
        <ele>373</ele>
        <time>2017-05-29T04:54:33Z</time>
      </trkpt>
      <trkpt lat="49.53217" lon="5.73352">
        <ele>373</ele>
        <time>2017-05-29T04:56:33Z</time>
      </trkpt>
      <trkpt lat="49.53201" lon="5.73365">
        <ele>374</ele>
        <time>2017-05-29T04:58:33Z</time>
      </trkpt>
      <trkpt lat="49.53195" lon="5.73374">
        <ele>375</ele>
        <time>2017-05-29T05:00:33Z</time>
      </trkpt>
      <trkpt lat="49.5319" lon="5.73387">
        <ele>375</ele>
        <time>2017-05-29T05:02:33Z</time>
      </trkpt>
      <trkpt lat="49.53182" lon="5.73401">
        <ele>376</ele>
        <time>2017-05-29T05:04:33Z</time>
      </trkpt>
      <trkpt lat="49.53177" lon="5.73411">
        <ele>377</ele>
        <time>2017-05-29T05:06:33Z</time>
      </trkpt>
      <trkpt lat="49.53176" lon="5.73418">
        <ele>377</ele>
        <time>2017-05-29T05:08:33Z</time>
      </trkpt>
      <trkpt lat="49.53171" lon="5.73448">
        <ele>378</ele>
        <time>2017-05-29T05:10:33Z</time>
      </trkpt>
      <trkpt lat="49.53169" lon="5.73459">
        <ele>378</ele>
        <time>2017-05-29T05:12:33Z</time>
      </trkpt>
      <trkpt lat="49.53156" lon="5.73478">
        <ele>379</ele>
        <time>2017-05-29T05:14:33Z</time>
      </trkpt>
      <trkpt lat="49.53148" lon="5.73499">
        <ele>378</ele>
        <time>2017-05-29T05:16:33Z</time>
      </trkpt>
      <trkpt lat="49.53147" lon="5.73503">
        <ele>378</ele>
        <time>2017-05-29T05:18:33Z</time>
      </trkpt>
      <trkpt lat="49.53146" lon="5.73512">
        <ele>378</ele>
        <time>2017-05-29T05:20:33Z</time>
      </trkpt>
      <trkpt lat="49.53151" lon="5.73526">
        <ele>377</ele>
        <time>2017-05-29T05:22:33Z</time>
      </trkpt>
      <trkpt lat="49.53153" lon="5.73531">
        <ele>377</ele>
        <time>2017-05-29T05:24:33Z</time>
      </trkpt>
      <trkpt lat="49.53155" lon="5.73535">
        <ele>376</ele>
        <time>2017-05-29T05:26:33Z</time>
      </trkpt>
      <trkpt lat="49.53159" lon="5.7354">
        <ele>376</ele>
        <time>2017-05-29T05:28:33Z</time>
      </trkpt>
      <trkpt lat="49.53168" lon="5.73549">
        <ele>375</ele>
        <time>2017-05-29T05:30:33Z</time>
      </trkpt>
      <trkpt lat="49.5317" lon="5.73552">
        <ele>374</ele>
        <time>2017-05-29T05:32:33Z</time>
      </trkpt>
      <trkpt lat="49.53171" lon="5.73555">
        <ele>373</ele>
        <time>2017-05-29T05:34:33Z</time>
      </trkpt>
      <trkpt lat="49.53173" lon="5.73566">
        <ele>372</ele>
        <time>2017-05-29T05:36:33Z</time>
      </trkpt>
      <trkpt lat="49.53171" lon="5.73569">
        <ele>372</ele>
        <time>2017-05-29T05:38:33Z</time>
      </trkpt>
      <trkpt lat="49.53182" lon="5.73589">
        <ele>367</ele>
        <time>2017-05-29T05:40:33Z</time>
      </trkpt>
      <trkpt lat="49.53184" lon="5.73594">
        <ele>366</ele>
        <time>2017-05-29T05:42:33Z</time>
      </trkpt>
      <trkpt lat="49.53188" lon="5.73601">
        <ele>364</ele>
        <time>2017-05-29T05:44:33Z</time>
      </trkpt>
      <trkpt lat="49.53194" lon="5.73615">
        <ele>362</ele>
        <time>2017-05-29T05:46:33Z</time>
      </trkpt>
      <trkpt lat="49.53197" lon="5.73624">
        <ele>360</ele>
        <time>2017-05-29T05:48:33Z</time>
      </trkpt>
      <trkpt lat="49.532" lon="5.73636">
        <ele>359</ele>
        <time>2017-05-29T05:50:33Z</time>
      </trkpt>
      <trkpt lat="49.53203" lon="5.73648">
        <ele>358</ele>
        <time>2017-05-29T05:52:33Z</time>
      </trkpt>
      <trkpt lat="49.53211" lon="5.73676">
        <ele>355</ele>
        <time>2017-05-29T05:54:33Z</time>
      </trkpt>
      <trkpt lat="49.53216" lon="5.73706">
        <ele>356</ele>
        <time>2017-05-29T05:56:33Z</time>
      </trkpt>
      <trkpt lat="49.53221" lon="5.73722">
        <ele>356</ele>
        <time>2017-05-29T05:58:33Z</time>
      </trkpt>
      <trkpt lat="49.53225" lon="5.73732">
        <ele>355</ele>
        <time>2017-05-29T06:00:33Z</time>
      </trkpt>
      <trkpt lat="49.53225" lon="5.73733">
        <ele>356</ele>
        <time>2017-05-29T06:02:33Z</time>
      </trkpt>
      <trkpt lat="49.53227" lon="5.73736">
        <ele>355</ele>
        <time>2017-05-29T06:04:33Z</time>
      </trkpt>
      <trkpt lat="49.53227" lon="5.7372">
        <ele>353</ele>
        <time>2017-05-29T06:06:33Z</time>
      </trkpt>
      <trkpt lat="49.53227" lon="5.73718">
        <ele>353</ele>
        <time>2017-05-29T06:08:33Z</time>
      </trkpt>
      <trkpt lat="49.53231" lon="5.73707">
        <ele>350</ele>
        <time>2017-05-29T06:10:33Z</time>
      </trkpt>
      <trkpt lat="49.53233" lon="5.73701">
        <ele>348</ele>
        <time>2017-05-29T06:12:33Z</time>
      </trkpt>
      <trkpt lat="49.53234" lon="5.73696">
        <ele>347</ele>
        <time>2017-05-29T06:14:33Z</time>
      </trkpt>
      <trkpt lat="49.53235" lon="5.73689">
        <ele>346</ele>
        <time>2017-05-29T06:16:33Z</time>
      </trkpt>
      <trkpt lat="49.53234" lon="5.73689">
        <ele>346</ele>
        <time>2017-05-29T06:18:33Z</time>
      </trkpt>
      <trkpt lat="49.53236" lon="5.73681">
        <ele>344</ele>
        <time>2017-05-29T06:20:33Z</time>
      </trkpt>
      <trkpt lat="49.5324" lon="5.73671">
        <ele>341</ele>
        <time>2017-05-29T06:22:33Z</time>
      </trkpt>
      <trkpt lat="49.53242" lon="5.73664">
        <ele>340</ele>
        <time>2017-05-29T06:24:33Z</time>
      </trkpt>
      <trkpt lat="49.53241" lon="5.7366">
        <ele>340</ele>
        <time>2017-05-29T06:26:33Z</time>
      </trkpt>
      <trkpt lat="49.53241" lon="5.73655">
        <ele>340</ele>
        <time>2017-05-29T06:28:33Z</time>
      </trkpt>
      <trkpt lat="49.53242" lon="5.73654">
        <ele>340</ele>
        <time>2017-05-29T06:30:33Z</time>
      </trkpt>
      <trkpt lat="49.5324" lon="5.73655">
        <ele>341</ele>
        <time>2017-05-29T06:32:33Z</time>
      </trkpt>
      <trkpt lat="49.53244" lon="5.73645">
        <ele>339</ele>
        <time>2017-05-29T06:34:33Z</time>
      </trkpt>
      <trkpt lat="49.53247" lon="5.73642">
        <ele>338</ele>
        <time>2017-05-29T06:36:33Z</time>
      </trkpt>
      <trkpt lat="49.53249" lon="5.73641">
        <ele>337</ele>
        <time>2017-05-29T06:38:33Z</time>
      </trkpt>
      <trkpt lat="49.53253" lon="5.7364">
        <ele>336</ele>
        <time>2017-05-29T06:40:33Z</time>
      </trkpt>
      <trkpt lat="49.53257" lon="5.73642">
        <ele>335</ele>
        <time>2017-05-29T06:42:33Z</time>
      </trkpt>
      <trkpt lat="49.5326" lon="5.73645">
        <ele>335</ele>
        <time>2017-05-29T06:44:33Z</time>
      </trkpt>
      <trkpt lat="49.53267" lon="5.73655">
        <ele>333</ele>
        <time>2017-05-29T06:46:33Z</time>
      </trkpt>
      <trkpt lat="49.53273" lon="5.73677">
        <ele>333</ele>
        <time>2017-05-29T06:48:33Z</time>
      </trkpt>
      <trkpt lat="49.53279" lon="5.73706">
        <ele>336</ele>
        <time>2017-05-29T06:50:33Z</time>
      </trkpt>
      <trkpt lat="49.53281" lon="5.73722">
        <ele>337</ele>
        <time>2017-05-29T06:52:33Z</time>
      </trkpt>
      <trkpt lat="49.53282" lon="5.73733">
        <ele>338</ele>
        <time>2017-05-29T06:54:33Z</time>
      </trkpt>
      <trkpt lat="49.53278" lon="5.73737">
        <ele>340</ele>
        <time>2017-05-29T06:56:33Z</time>
      </trkpt>
      <trkpt lat="49.53275" lon="5.73731">
        <ele>340</ele>
        <time>2017-05-29T06:58:33Z</time>
      </trkpt>
      <trkpt lat="49.5327" lon="5.73722">
        <ele>340</ele>
        <time>2017-05-29T07:00:33Z</time>
      </trkpt>
      <trkpt lat="49.53262" lon="5.73703">
        <ele>339</ele>
        <time>2017-05-29T07:02:33Z</time>
      </trkpt>
      <trkpt lat="49.53256" lon="5.73691">
        <ele>339</ele>
        <time>2017-05-29T07:04:33Z</time>
      </trkpt>
      <trkpt lat="49.53254" lon="5.73688">
        <ele>339</ele>
        <time>2017-05-29T07:06:33Z</time>
      </trkpt>
      <trkpt lat="49.53253" lon="5.7369">
        <ele>339</ele>
        <time>2017-05-29T07:08:33Z</time>
      </trkpt>
      <trkpt lat="49.53244" lon="5.73741">
        <ele>350</ele>
        <time>2017-05-29T07:10:33Z</time>
      </trkpt>
      <trkpt lat="49.53242" lon="5.73755">
        <ele>353</ele>
        <time>2017-05-29T07:12:33Z</time>
      </trkpt>
      <trkpt lat="49.53241" lon="5.73768">
        <ele>355</ele>
        <time>2017-05-29T07:14:33Z</time>
      </trkpt>
      <trkpt lat="49.53241" lon="5.73779">
        <ele>357</ele>
        <time>2017-05-29T07:16:33Z</time>
      </trkpt>
      <trkpt lat="49.5324" lon="5.73793">
        <ele>359</ele>
        <time>2017-05-29T07:18:33Z</time>
      </trkpt>
      <trkpt lat="49.53238" lon="5.73804">
        <ele>361</ele>
        <time>2017-05-29T07:20:33Z</time>
      </trkpt>
      <trkpt lat="49.53237" lon="5.73808">
        <ele>362</ele>
        <time>2017-05-29T07:22:33Z</time>
      </trkpt>
      <trkpt lat="49.53236" lon="5.73826">
        <ele>365</ele>
        <time>2017-05-29T07:24:33Z</time>
      </trkpt>
      <trkpt lat="49.53237" lon="5.73825">
        <ele>365</ele>
        <time>2017-05-29T07:26:33Z</time>
      </trkpt>
      <trkpt lat="49.53233" lon="5.73838">
        <ele>367</ele>
        <time>2017-05-29T07:28:33Z</time>
      </trkpt>
      <trkpt lat="49.53227" lon="5.73848">
        <ele>369</ele>
        <time>2017-05-29T07:30:33Z</time>
      </trkpt>
      <trkpt lat="49.53225" lon="5.73853">
        <ele>370</ele>
        <time>2017-05-29T07:32:33Z</time>
      </trkpt>
      <trkpt lat="49.53219" lon="5.73866">
        <ele>372</ele>
        <time>2017-05-29T07:34:33Z</time>
      </trkpt>
      <trkpt lat="49.53218" lon="5.7387">
        <ele>372</ele>
        <time>2017-05-29T07:36:33Z</time>
      </trkpt>
      <trkpt lat="49.53216" lon="5.73874">
        <ele>373</ele>
        <time>2017-05-29T07:38:33Z</time>
      </trkpt>
      <trkpt lat="49.53215" lon="5.73878">
        <ele>373</ele>
        <time>2017-05-29T07:40:33Z</time>
      </trkpt>
      <trkpt lat="49.53211" lon="5.73889">
        <ele>374</ele>
        <time>2017-05-29T07:42:33Z</time>
      </trkpt>
      <trkpt lat="49.5321" lon="5.73895">
        <ele>375</ele>
        <time>2017-05-29T07:44:33Z</time>
      </trkpt>
      <trkpt lat="49.53209" lon="5.739">
        <ele>375</ele>
        <time>2017-05-29T07:46:33Z</time>
      </trkpt>
      <trkpt lat="49.53208" lon="5.73905">
        <ele>376</ele>
        <time>2017-05-29T07:48:33Z</time>
      </trkpt>
      <trkpt lat="49.53209" lon="5.73912">
        <ele>376</ele>
        <time>2017-05-29T07:50:33Z</time>
      </trkpt>
      <trkpt lat="49.53215" lon="5.73932">
        <ele>375</ele>
        <time>2017-05-29T07:52:33Z</time>
      </trkpt>
      <trkpt lat="49.53219" lon="5.73964">
        <ele>375</ele>
        <time>2017-05-29T07:54:33Z</time>
      </trkpt>
      <trkpt lat="49.53218" lon="5.73978">
        <ele>376</ele>
        <time>2017-05-29T07:56:33Z</time>
      </trkpt>
      <trkpt lat="49.53214" lon="5.73988">
        <ele>377</ele>
        <time>2017-05-29T07:58:33Z</time>
      </trkpt>
      <trkpt lat="49.53212" lon="5.73993">
        <ele>377</ele>
        <time>2017-05-29T08:00:33Z</time>
      </trkpt>
      <trkpt lat="49.5321" lon="5.74002">
        <ele>377</ele>
        <time>2017-05-29T08:02:33Z</time>
      </trkpt>
      <trkpt lat="49.53211" lon="5.74019">
        <ele>378</ele>
        <time>2017-05-29T08:04:33Z</time>
      </trkpt>
      <trkpt lat="49.5321" lon="5.74028">
        <ele>379</ele>
        <time>2017-05-29T08:06:33Z</time>
      </trkpt>
      <trkpt lat="49.53209" lon="5.74035">
        <ele>379</ele>
        <time>2017-05-29T08:08:33Z</time>
      </trkpt>
      <trkpt lat="49.53212" lon="5.74047">
        <ele>380</ele>
        <time>2017-05-29T08:10:33Z</time>
      </trkpt>
      <trkpt lat="49.53221" lon="5.74105">
        <ele>383</ele>
        <time>2017-05-29T08:12:33Z</time>
      </trkpt>
      <trkpt lat="49.53228" lon="5.74119">
        <ele>383</ele>
        <time>2017-05-29T08:14:33Z</time>
      </trkpt>
      <trkpt lat="49.53232" lon="5.74127">
        <ele>384</ele>
        <time>2017-05-29T08:16:33Z</time>
      </trkpt>
      <trkpt lat="49.53235" lon="5.74132">
        <ele>384</ele>
        <time>2017-05-29T08:18:33Z</time>
      </trkpt>
      <trkpt lat="49.53236" lon="5.74132">
        <ele>384</ele>
        <time>2017-05-29T08:20:33Z</time>
      </trkpt>
      <trkpt lat="49.53241" lon="5.74162">
        <ele>385</ele>
        <time>2017-05-29T08:22:33Z</time>
      </trkpt>
      <trkpt lat="49.53236" lon="5.74169">
        <ele>385</ele>
        <time>2017-05-29T08:24:33Z</time>
      </trkpt>
      <trkpt lat="49.53224" lon="5.7418">
        <ele>385</ele>
        <time>2017-05-29T08:26:33Z</time>
      </trkpt>
      <trkpt lat="49.53222" lon="5.74195">
        <ele>385</ele>
        <time>2017-05-29T08:28:33Z</time>
      </trkpt>
      <trkpt lat="49.53218" lon="5.74224">
        <ele>384</ele>
        <time>2017-05-29T08:30:33Z</time>
      </trkpt>
      <trkpt lat="49.53217" lon="5.74242">
        <ele>384</ele>
        <time>2017-05-29T08:32:33Z</time>
      </trkpt>
      <trkpt lat="49.53215" lon="5.74262">
        <ele>385</ele>
        <time>2017-05-29T08:34:33Z</time>
      </trkpt>
      <trkpt lat="49.5321" lon="5.7429">
        <ele>385</ele>
        <time>2017-05-29T08:36:33Z</time>
      </trkpt>
      <trkpt lat="49.53212" lon="5.74323">
        <ele>386</ele>
        <time>2017-05-29T08:38:33Z</time>
      </trkpt>
      <trkpt lat="49.53215" lon="5.74347">
        <ele>387</ele>
        <time>2017-05-29T08:40:33Z</time>
      </trkpt>
      <trkpt lat="49.53216" lon="5.74349">
        <ele>387</ele>
        <time>2017-05-29T08:42:33Z</time>
      </trkpt>
      <trkpt lat="49.53226" lon="5.74347">
        <ele>388</ele>
        <time>2017-05-29T08:44:33Z</time>
      </trkpt>
      <trkpt lat="49.53236" lon="5.7434">
        <ele>388</ele>
        <time>2017-05-29T08:46:33Z</time>
      </trkpt>
      <trkpt lat="49.53241" lon="5.74334">
        <ele>388</ele>
        <time>2017-05-29T08:48:33Z</time>
      </trkpt>
      <trkpt lat="49.53248" lon="5.74329">
        <ele>389</ele>
        <time>2017-05-29T08:50:33Z</time>
      </trkpt>
      <trkpt lat="49.53257" lon="5.74327">
        <ele>388</ele>
        <time>2017-05-29T08:52:33Z</time>
      </trkpt>
      <trkpt lat="49.53272" lon="5.74329">
        <ele>386</ele>
        <time>2017-05-29T08:54:33Z</time>
      </trkpt>
      <trkpt lat="49.53292" lon="5.74338">
        <ele>384</ele>
        <time>2017-05-29T08:56:33Z</time>
      </trkpt>
      <trkpt lat="49.53303" lon="5.74337">
        <ele>382</ele>
        <time>2017-05-29T08:58:33Z</time>
      </trkpt>
      <trkpt lat="49.53311" lon="5.74336">
        <ele>381</ele>
        <time>2017-05-29T09:00:33Z</time>
      </trkpt>
      <trkpt lat="49.53314" lon="5.74341">
        <ele>381</ele>
        <time>2017-05-29T09:02:33Z</time>
      </trkpt>
      <trkpt lat="49.5332" lon="5.74347">
        <ele>381</ele>
        <time>2017-05-29T09:04:33Z</time>
      </trkpt>
      <trkpt lat="49.53318" lon="5.74357">
        <ele>382</ele>
        <time>2017-05-29T09:06:33Z</time>
      </trkpt>
      <trkpt lat="49.53318" lon="5.7436">
        <ele>383</ele>
        <time>2017-05-29T09:08:33Z</time>
      </trkpt>
      <trkpt lat="49.53316" lon="5.74369">
        <ele>384</ele>
        <time>2017-05-29T09:10:33Z</time>
      </trkpt>
      <trkpt lat="49.53314" lon="5.7438">
        <ele>385</ele>
        <time>2017-05-29T09:12:33Z</time>
      </trkpt>
      <trkpt lat="49.53312" lon="5.74398">
        <ele>387</ele>
        <time>2017-05-29T09:14:33Z</time>
      </trkpt>
      <trkpt lat="49.53309" lon="5.74406">
        <ele>388</ele>
        <time>2017-05-29T09:16:33Z</time>
      </trkpt>
      <trkpt lat="49.53292" lon="5.74411">
        <ele>390</ele>
        <time>2017-05-29T09:18:33Z</time>
      </trkpt>
      <trkpt lat="49.53288" lon="5.7442">
        <ele>390</ele>
        <time>2017-05-29T09:20:33Z</time>
      </trkpt>
      <trkpt lat="49.53287" lon="5.74438">
        <ele>391</ele>
        <time>2017-05-29T09:22:33Z</time>
      </trkpt>
      <trkpt lat="49.53285" lon="5.74458">
        <ele>392</ele>
        <time>2017-05-29T09:24:33Z</time>
      </trkpt>
      <trkpt lat="49.53284" lon="5.74474">
        <ele>393</ele>
        <time>2017-05-29T09:26:33Z</time>
      </trkpt>
      <trkpt lat="49.53278" lon="5.745">
        <ele>394</ele>
        <time>2017-05-29T09:28:33Z</time>
      </trkpt>
      <trkpt lat="49.53265" lon="5.74519">
        <ele>395</ele>
        <time>2017-05-29T09:30:33Z</time>
      </trkpt>
      <trkpt lat="49.53246" lon="5.74518">
        <ele>395</ele>
        <time>2017-05-29T09:32:33Z</time>
      </trkpt>
      <trkpt lat="49.5324" lon="5.74526">
        <ele>395</ele>
        <time>2017-05-29T09:34:33Z</time>
      </trkpt>
      <trkpt lat="49.5324" lon="5.74535">
        <ele>395</ele>
        <time>2017-05-29T09:36:33Z</time>
      </trkpt>
      <trkpt lat="49.53239" lon="5.74565">
        <ele>395</ele>
        <time>2017-05-29T09:38:33Z</time>
      </trkpt>
      <trkpt lat="49.53242" lon="5.74596">
        <ele>396</ele>
        <time>2017-05-29T09:40:33Z</time>
      </trkpt>
      <trkpt lat="49.5325" lon="5.74609">
        <ele>396</ele>
        <time>2017-05-29T09:42:33Z</time>
      </trkpt>
      <trkpt lat="49.53262" lon="5.74621">
        <ele>396</ele>
        <time>2017-05-29T09:44:33Z</time>
      </trkpt>
      <trkpt lat="49.53276" lon="5.74638">
        <ele>395</ele>
        <time>2017-05-29T09:46:33Z</time>
      </trkpt>
      <trkpt lat="49.5328" lon="5.74644">
        <ele>395</ele>
        <time>2017-05-29T09:48:33Z</time>
      </trkpt>
      <trkpt lat="49.53297" lon="5.74654">
        <ele>395</ele>
        <time>2017-05-29T09:50:33Z</time>
      </trkpt>
      <trkpt lat="49.53301" lon="5.74661">
        <ele>395</ele>
        <time>2017-05-29T09:52:33Z</time>
      </trkpt>
      <trkpt lat="49.5331" lon="5.74685">
        <ele>394</ele>
        <time>2017-05-29T09:54:33Z</time>
      </trkpt>
      <trkpt lat="49.53317" lon="5.74715">
        <ele>392</ele>
        <time>2017-05-29T09:56:33Z</time>
      </trkpt>
      <trkpt lat="49.53314" lon="5.74742">
        <ele>390</ele>
        <time>2017-05-29T09:58:33Z</time>
      </trkpt>
      <trkpt lat="49.53321" lon="5.74745">
        <ele>389</ele>
        <time>2017-05-29T10:00:33Z</time>
      </trkpt>
      <trkpt lat="49.53321" lon="5.74747">
        <ele>389</ele>
        <time>2017-05-29T10:02:33Z</time>
      </trkpt>
      <trkpt lat="49.5332" lon="5.7475">
        <ele>389</ele>
        <time>2017-05-29T10:04:33Z</time>
      </trkpt>
      <trkpt lat="49.53328" lon="5.74749">
        <ele>389</ele>
        <time>2017-05-29T10:06:33Z</time>
      </trkpt>
      <trkpt lat="49.53334" lon="5.74745">
        <ele>389</ele>
        <time>2017-05-29T10:08:33Z</time>
      </trkpt>
      <trkpt lat="49.53338" lon="5.74744">
        <ele>388</ele>
        <time>2017-05-29T10:10:33Z</time>
      </trkpt>
      <trkpt lat="49.53344" lon="5.74741">
        <ele>387</ele>
        <time>2017-05-29T10:12:33Z</time>
      </trkpt>
      <trkpt lat="49.53349" lon="5.74739">
        <ele>386</ele>
        <time>2017-05-29T10:14:33Z</time>
      </trkpt>
      <trkpt lat="49.53352" lon="5.74742">
        <ele>384</ele>
        <time>2017-05-29T10:16:33Z</time>
      </trkpt>
      <trkpt lat="49.53354" lon="5.74747">
        <ele>383</ele>
        <time>2017-05-29T10:18:33Z</time>
      </trkpt>
      <trkpt lat="49.53353" lon="5.7475">
        <ele>383</ele>
        <time>2017-05-29T10:20:33Z</time>
      </trkpt>
      <trkpt lat="49.53353" lon="5.74755">
        <ele>383</ele>
        <time>2017-05-29T10:22:33Z</time>
      </trkpt>
      <trkpt lat="49.53354" lon="5.74757">
        <ele>383</ele>
        <time>2017-05-29T10:24:33Z</time>
      </trkpt>
      <trkpt lat="49.53355" lon="5.74772">
        <ele>381</ele>
        <time>2017-05-29T10:26:33Z</time>
      </trkpt>
      <trkpt lat="49.53357" lon="5.74781">
        <ele>380</ele>
        <time>2017-05-29T10:28:33Z</time>
      </trkpt>
      <trkpt lat="49.53359" lon="5.74781">
        <ele>379</ele>
        <time>2017-05-29T10:30:33Z</time>
      </trkpt>
      <trkpt lat="49.53362" lon="5.74781">
        <ele>378</ele>
        <time>2017-05-29T10:32:33Z</time>
      </trkpt>
      <trkpt lat="49.53368" lon="5.74776">
        <ele>377</ele>
        <time>2017-05-29T10:34:33Z</time>
      </trkpt>
      <trkpt lat="49.53371" lon="5.74773">
        <ele>376</ele>
        <time>2017-05-29T10:36:33Z</time>
      </trkpt>
      <trkpt lat="49.53375" lon="5.7477">
        <ele>375</ele>
        <time>2017-05-29T10:38:33Z</time>
      </trkpt>
      <trkpt lat="49.53379" lon="5.74768">
        <ele>374</ele>
        <time>2017-05-29T10:40:33Z</time>
      </trkpt>
      <trkpt lat="49.53383" lon="5.74771">
        <ele>373</ele>
        <time>2017-05-29T10:42:33Z</time>
      </trkpt>
      <trkpt lat="49.53384" lon="5.74773">
        <ele>373</ele>
        <time>2017-05-29T10:44:33Z</time>
      </trkpt>
      <trkpt lat="49.53385" lon="5.74787">
        <ele>371</ele>
        <time>2017-05-29T10:46:33Z</time>
      </trkpt>
      <trkpt lat="49.53385" lon="5.74793">
        <ele>371</ele>
        <time>2017-05-29T10:48:33Z</time>
      </trkpt>
      <trkpt lat="49.53384" lon="5.74799">
        <ele>371</ele>
        <time>2017-05-29T10:50:33Z</time>
      </trkpt>
      <trkpt lat="49.53385" lon="5.74803">
        <ele>370</ele>
        <time>2017-05-29T10:52:33Z</time>
      </trkpt>
      <trkpt lat="49.53387" lon="5.74809">
        <ele>369</ele>
        <time>2017-05-29T10:54:33Z</time>
      </trkpt>
      <trkpt lat="49.53387" lon="5.7481">
        <ele>369</ele>
        <time>2017-05-29T10:56:33Z</time>
      </trkpt>
      <trkpt lat="49.53389" lon="5.74811">
        <ele>368</ele>
        <time>2017-05-29T10:58:33Z</time>
      </trkpt>
      <trkpt lat="49.5339" lon="5.74811">
        <ele>368</ele>
        <time>2017-05-29T11:00:33Z</time>
      </trkpt>
      <trkpt lat="49.53395" lon="5.74805">
        <ele>367</ele>
        <time>2017-05-29T11:02:33Z</time>
      </trkpt>
      <trkpt lat="49.53397" lon="5.74801">
        <ele>367</ele>
        <time>2017-05-29T11:04:33Z</time>
      </trkpt>
      <trkpt lat="49.53401" lon="5.74796">
        <ele>366</ele>
        <time>2017-05-29T11:06:33Z</time>
      </trkpt>
      <trkpt lat="49.53404" lon="5.74791">
        <ele>365</ele>
        <time>2017-05-29T11:08:33Z</time>
      </trkpt>
      <trkpt lat="49.5341" lon="5.74782">
        <ele>364</ele>
        <time>2017-05-29T11:10:33Z</time>
      </trkpt>
      <trkpt lat="49.53421" lon="5.74757">
        <ele>364</ele>
        <time>2017-05-29T11:12:33Z</time>
      </trkpt>
      <trkpt lat="49.53435" lon="5.74737">
        <ele>363</ele>
        <time>2017-05-29T11:14:33Z</time>
      </trkpt>
      <trkpt lat="49.53457" lon="5.74725">
        <ele>359</ele>
        <time>2017-05-29T11:16:33Z</time>
      </trkpt>
      <trkpt lat="49.53468" lon="5.74717">
        <ele>357</ele>
        <time>2017-05-29T11:18:33Z</time>
      </trkpt>
      <trkpt lat="49.53481" lon="5.74709">
        <ele>354</ele>
        <time>2017-05-29T11:20:33Z</time>
      </trkpt>
      <trkpt lat="49.53488" lon="5.74706">
        <ele>352</ele>
        <time>2017-05-29T11:22:33Z</time>
      </trkpt>
      <trkpt lat="49.53497" lon="5.74699">
        <ele>349</ele>
        <time>2017-05-29T11:24:33Z</time>
      </trkpt>
      <trkpt lat="49.5351" lon="5.74679">
        <ele>348</ele>
        <time>2017-05-29T11:26:33Z</time>
      </trkpt>
      <trkpt lat="49.53519" lon="5.74654">
        <ele>348</ele>
        <time>2017-05-29T11:28:33Z</time>
      </trkpt>
      <trkpt lat="49.53521" lon="5.74642">
        <ele>349</ele>
        <time>2017-05-29T11:30:33Z</time>
      </trkpt>
      <trkpt lat="49.53518" lon="5.74614">
        <ele>351</ele>
        <time>2017-05-29T11:32:33Z</time>
      </trkpt>
      <trkpt lat="49.53516" lon="5.74584">
        <ele>353</ele>
        <time>2017-05-29T11:34:33Z</time>
      </trkpt>
      <trkpt lat="49.53511" lon="5.74554">
        <ele>352</ele>
        <time>2017-05-29T11:36:33Z</time>
      </trkpt>
      <trkpt lat="49.53507" lon="5.74521">
        <ele>351</ele>
        <time>2017-05-29T11:38:33Z</time>
      </trkpt>
      <trkpt lat="49.53499" lon="5.74491">
        <ele>349</ele>
        <time>2017-05-29T11:40:33Z</time>
      </trkpt>
      <trkpt lat="49.53495" lon="5.74473">
        <ele>349</ele>
        <time>2017-05-29T11:42:33Z</time>
      </trkpt>
      <trkpt lat="49.53485" lon="5.74446">
        <ele>349</ele>
        <time>2017-05-29T11:44:33Z</time>
      </trkpt>
      <trkpt lat="49.53475" lon="5.74423">
        <ele>350</ele>
        <time>2017-05-29T11:46:33Z</time>
      </trkpt>
      <trkpt lat="49.53472" lon="5.74412">
        <ele>350</ele>
        <time>2017-05-29T11:48:33Z</time>
      </trkpt>
      <trkpt lat="49.53462" lon="5.74388">
        <ele>350</ele>
        <time>2017-05-29T11:50:33Z</time>
      </trkpt>
      <trkpt lat="49.53453" lon="5.74368">
        <ele>349</ele>
        <time>2017-05-29T11:52:33Z</time>
      </trkpt>
      <trkpt lat="49.53446" lon="5.74352">
        <ele>348</ele>
        <time>2017-05-29T11:54:33Z</time>
      </trkpt>
      <trkpt lat="49.53445" lon="5.74345">
        <ele>347</ele>
        <time>2017-05-29T11:56:33Z</time>
      </trkpt>
      <trkpt lat="49.53434" lon="5.74318">
        <ele>345</ele>
        <time>2017-05-29T11:58:33Z</time>
      </trkpt>
      <trkpt lat="49.53422" lon="5.74293">
        <ele>342</ele>
        <time>2017-05-29T12:00:33Z</time>
      </trkpt>
      <trkpt lat="49.53413" lon="5.74276">
        <ele>340</ele>
        <time>2017-05-29T12:02:33Z</time>
      </trkpt>
      <trkpt lat="49.53412" lon="5.74268">
        <ele>339</ele>
        <time>2017-05-29T12:04:33Z</time>
      </trkpt>
      <trkpt lat="49.53412" lon="5.7426">
        <ele>338</ele>
        <time>2017-05-29T12:06:33Z</time>
      </trkpt>
      <trkpt lat="49.53414" lon="5.74254">
        <ele>336</ele>
        <time>2017-05-29T12:08:33Z</time>
      </trkpt>
      <trkpt lat="49.53419" lon="5.74247">
        <ele>334</ele>
        <time>2017-05-29T12:10:33Z</time>
      </trkpt>
      <trkpt lat="49.53422" lon="5.7424">
        <ele>334</ele>
        <time>2017-05-29T12:12:33Z</time>
      </trkpt>
      <trkpt lat="49.53422" lon="5.74232">
        <ele>334</ele>
        <time>2017-05-29T12:14:33Z</time>
      </trkpt>
      <trkpt lat="49.53421" lon="5.74227">
        <ele>334</ele>
        <time>2017-05-29T12:16:33Z</time>
      </trkpt>
      <trkpt lat="49.53415" lon="5.74196">
        <ele>333</ele>
        <time>2017-05-29T12:18:33Z</time>
      </trkpt>
      <trkpt lat="49.53415" lon="5.7419">
        <ele>332</ele>
        <time>2017-05-29T12:20:33Z</time>
      </trkpt>
      <trkpt lat="49.5342" lon="5.74179">
        <ele>332</ele>
        <time>2017-05-29T12:22:33Z</time>
      </trkpt>
      <trkpt lat="49.53421" lon="5.74178">
        <ele>332</ele>
        <time>2017-05-29T12:24:33Z</time>
      </trkpt>
      <trkpt lat="49.53422" lon="5.74171">
        <ele>332</ele>
        <time>2017-05-29T12:26:33Z</time>
      </trkpt>
      <trkpt lat="49.53424" lon="5.74129">
        <ele>333</ele>
        <time>2017-05-29T12:28:33Z</time>
      </trkpt>
      <trkpt lat="49.53427" lon="5.741">
        <ele>335</ele>
        <time>2017-05-29T12:30:33Z</time>
      </trkpt>
      <trkpt lat="49.53423" lon="5.74072">
        <ele>334</ele>
        <time>2017-05-29T12:32:33Z</time>
      </trkpt>
      <trkpt lat="49.53414" lon="5.74023">
        <ele>333</ele>
        <time>2017-05-29T12:34:33Z</time>
      </trkpt>
      <trkpt lat="49.53405" lon="5.73992">
        <ele>335</ele>
        <time>2017-05-29T12:36:33Z</time>
      </trkpt>
      <trkpt lat="49.53396" lon="5.73968">
        <ele>336</ele>
        <time>2017-05-29T12:38:33Z</time>
      </trkpt>
      <trkpt lat="49.53386" lon="5.73942">
        <ele>337</ele>
        <time>2017-05-29T12:40:33Z</time>
      </trkpt>
      <trkpt lat="49.53376" lon="5.73912">
        <ele>337</ele>
        <time>2017-05-29T12:42:33Z</time>
      </trkpt>
      <trkpt lat="49.53366" lon="5.73881">
        <ele>336</ele>
        <time>2017-05-29T12:44:33Z</time>
      </trkpt>
      <trkpt lat="49.5336" lon="5.73854">
        <ele>336</ele>
        <time>2017-05-29T12:46:33Z</time>
      </trkpt>
      <trkpt lat="49.53356" lon="5.73831">
        <ele>335</ele>
        <time>2017-05-29T12:48:33Z</time>
      </trkpt>
      <trkpt lat="49.53357" lon="5.73821">
        <ele>335</ele>
        <time>2017-05-29T12:50:33Z</time>
      </trkpt>
      <trkpt lat="49.53354" lon="5.73783">
        <ele>333</ele>
        <time>2017-05-29T12:52:33Z</time>
      </trkpt>
      <trkpt lat="49.53353" lon="5.73749">
        <ele>332</ele>
        <time>2017-05-29T12:54:33Z</time>
      </trkpt>
      <trkpt lat="49.53353" lon="5.73742">
        <ele>332</ele>
        <time>2017-05-29T12:56:33Z</time>
      </trkpt>
      <trkpt lat="49.53357" lon="5.73729">
        <ele>332</ele>
        <time>2017-05-29T12:58:33Z</time>
      </trkpt>
      <trkpt lat="49.53362" lon="5.73716">
        <ele>332</ele>
        <time>2017-05-29T13:00:33Z</time>
      </trkpt>
      <trkpt lat="49.53367" lon="5.73699">
        <ele>332</ele>
        <time>2017-05-29T13:02:33Z</time>
      </trkpt>
      <trkpt lat="49.53368" lon="5.73696">
        <ele>333</ele>
        <time>2017-05-29T13:04:33Z</time>
      </trkpt>
      <trkpt lat="49.53372" lon="5.73668">
        <ele>332</ele>
        <time>2017-05-29T13:06:33Z</time>
      </trkpt>
      <trkpt lat="49.5338" lon="5.73643">
        <ele>333</ele>
        <time>2017-05-29T13:08:33Z</time>
      </trkpt>
      <trkpt lat="49.53383" lon="5.73636">
        <ele>333</ele>
        <time>2017-05-29T13:10:33Z</time>
      </trkpt>
      <trkpt lat="49.53389" lon="5.73622">
        <ele>333</ele>
        <time>2017-05-29T13:12:33Z</time>
      </trkpt>
      <trkpt lat="49.53397" lon="5.73588">
        <ele>332</ele>
        <time>2017-05-29T13:14:33Z</time>
      </trkpt>
      <trkpt lat="49.53419" lon="5.7355">
        <ele>330</ele>
        <time>2017-05-29T13:16:33Z</time>
      </trkpt>
      <trkpt lat="49.53429" lon="5.73537">
        <ele>330</ele>
        <time>2017-05-29T13:18:33Z</time>
      </trkpt>
      <trkpt lat="49.53448" lon="5.73519">
        <ele>331</ele>
        <time>2017-05-29T13:20:33Z</time>
      </trkpt>
      <trkpt lat="49.53458" lon="5.73511">
        <ele>331</ele>
        <time>2017-05-29T13:22:33Z</time>
      </trkpt>
      <trkpt lat="49.53466" lon="5.73502">
        <ele>330</ele>
        <time>2017-05-29T13:24:33Z</time>
      </trkpt>
      <trkpt lat="49.53473" lon="5.73498">
        <ele>330</ele>
        <time>2017-05-29T13:26:33Z</time>
      </trkpt>
      <trkpt lat="49.53493" lon="5.73487">
        <ele>331</ele>
        <time>2017-05-29T13:28:33Z</time>
      </trkpt>
      <trkpt lat="49.53515" lon="5.73478">
        <ele>330</ele>
        <time>2017-05-29T13:30:33Z</time>
      </trkpt>
      <trkpt lat="49.53531" lon="5.73474">
        <ele>329</ele>
        <time>2017-05-29T13:32:33Z</time>
      </trkpt>
      <trkpt lat="49.53545" lon="5.73472">
        <ele>328</ele>
        <time>2017-05-29T13:34:33Z</time>
      </trkpt>
      <trkpt lat="49.53561" lon="5.73474">
        <ele>328</ele>
        <time>2017-05-29T13:36:33Z</time>
      </trkpt>
      <trkpt lat="49.53577" lon="5.73477">
        <ele>328</ele>
        <time>2017-05-29T13:38:33Z</time>
      </trkpt>
      <trkpt lat="49.536" lon="5.73482">
        <ele>329</ele>
        <time>2017-05-29T13:40:33Z</time>
      </trkpt>
      <trkpt lat="49.53624" lon="5.73492">
        <ele>329</ele>
        <time>2017-05-29T13:42:33Z</time>
      </trkpt>
      <trkpt lat="49.53639" lon="5.73502">
        <ele>329</ele>
        <time>2017-05-29T13:44:33Z</time>
      </trkpt>
      <trkpt lat="49.53654" lon="5.73514">
        <ele>331</ele>
        <time>2017-05-29T13:46:33Z</time>
      </trkpt>
      <trkpt lat="49.53667" lon="5.73525">
        <ele>332</ele>
        <time>2017-05-29T13:48:33Z</time>
      </trkpt>
      <trkpt lat="49.53682" lon="5.73537">
        <ele>335</ele>
        <time>2017-05-29T13:50:33Z</time>
      </trkpt>
      <trkpt lat="49.537" lon="5.73557">
        <ele>337</ele>
        <time>2017-05-29T13:52:33Z</time>
      </trkpt>
      <trkpt lat="49.53714" lon="5.73575">
        <ele>337</ele>
        <time>2017-05-29T13:54:33Z</time>
      </trkpt>
      <trkpt lat="49.53747" lon="5.73624">
        <ele>339</ele>
        <time>2017-05-29T13:56:33Z</time>
      </trkpt>
      <trkpt lat="49.53772" lon="5.73659">
        <ele>344</ele>
        <time>2017-05-29T13:58:33Z</time>
      </trkpt>
      <trkpt lat="49.53793" lon="5.73688">
        <ele>347</ele>
        <time>2017-05-29T14:00:33Z</time>
      </trkpt>
      <trkpt lat="49.53811" lon="5.73715">
        <ele>348</ele>
        <time>2017-05-29T14:02:33Z</time>
      </trkpt>
      <trkpt lat="49.53817" lon="5.73722">
        <ele>348</ele>
        <time>2017-05-29T14:04:33Z</time>
      </trkpt>
      <trkpt lat="49.5382" lon="5.73729">
        <ele>348</ele>
        <time>2017-05-29T14:06:33Z</time>
      </trkpt>
      <trkpt lat="49.53836" lon="5.73752">
        <ele>347</ele>
        <time>2017-05-29T14:08:33Z</time>
      </trkpt>
      <trkpt lat="49.53838" lon="5.73756">
        <ele>348</ele>
        <time>2017-05-29T14:10:33Z</time>
      </trkpt>
      <trkpt lat="49.53841" lon="5.73761">
        <ele>350</ele>
        <time>2017-05-29T14:12:33Z</time>
      </trkpt>
      <trkpt lat="49.53842" lon="5.73766">
        <ele>350</ele>
        <time>2017-05-29T14:14:33Z</time>
      </trkpt>
      <trkpt lat="49.53843" lon="5.73765">
        <ele>351</ele>
        <time>2017-05-29T14:16:33Z</time>
      </trkpt>
      <trkpt lat="49.53842" lon="5.73762">
        <ele>350</ele>
        <time>2017-05-29T14:18:33Z</time>
      </trkpt>
      <trkpt lat="49.53838" lon="5.73744">
        <ele>347</ele>
        <time>2017-05-29T14:20:33Z</time>
      </trkpt>
      <trkpt lat="49.53837" lon="5.73739">
        <ele>347</ele>
        <time>2017-05-29T14:22:33Z</time>
      </trkpt>
      <trkpt lat="49.53833" lon="5.73728">
        <ele>345</ele>
        <time>2017-05-29T14:24:33Z</time>
      </trkpt>
      <trkpt lat="49.53829" lon="5.73718">
        <ele>346</ele>
        <time>2017-05-29T14:26:33Z</time>
      </trkpt>
      <trkpt lat="49.5382" lon="5.73703">
        <ele>346</ele>
        <time>2017-05-29T14:28:33Z</time>
      </trkpt>
      <trkpt lat="49.53818" lon="5.73701">
        <ele>346</ele>
        <time>2017-05-29T14:30:33Z</time>
      </trkpt>
      <trkpt lat="49.53814" lon="5.7369">
        <ele>346</ele>
        <time>2017-05-29T14:32:33Z</time>
      </trkpt>
      <trkpt lat="49.53803" lon="5.73662">
        <ele>344</ele>
        <time>2017-05-29T14:34:33Z</time>
      </trkpt>
      <trkpt lat="49.53797" lon="5.73642">
        <ele>344</ele>
        <time>2017-05-29T14:36:33Z</time>
      </trkpt>
      <trkpt lat="49.53794" lon="5.73602">
        <ele>343</ele>
        <time>2017-05-29T14:38:33Z</time>
      </trkpt>
      <trkpt lat="49.53788" lon="5.73583">
        <ele>342</ele>
        <time>2017-05-29T14:40:33Z</time>
      </trkpt>
      <trkpt lat="49.5377" lon="5.73554">
        <ele>341</ele>
        <time>2017-05-29T14:42:33Z</time>
      </trkpt>
      <trkpt lat="49.53761" lon="5.73537">
        <ele>340</ele>
        <time>2017-05-29T14:44:33Z</time>
      </trkpt>
      <trkpt lat="49.53745" lon="5.73512">
        <ele>338</ele>
        <time>2017-05-29T14:46:33Z</time>
      </trkpt>
      <trkpt lat="49.53725" lon="5.73485">
        <ele>339</ele>
        <time>2017-05-29T14:48:33Z</time>
      </trkpt>
      <trkpt lat="49.53718" lon="5.73477">
        <ele>339</ele>
        <time>2017-05-29T14:50:33Z</time>
      </trkpt>
      <trkpt lat="49.53698" lon="5.73454">
        <ele>338</ele>
        <time>2017-05-29T14:52:33Z</time>
      </trkpt>
      <trkpt lat="49.53662" lon="5.73416">
        <ele>332</ele>
        <time>2017-05-29T14:54:33Z</time>
      </trkpt>
      <trkpt lat="49.53647" lon="5.73396">
        <ele>335</ele>
        <time>2017-05-29T14:56:33Z</time>
      </trkpt>
      <trkpt lat="49.53646" lon="5.7339">
        <ele>336</ele>
        <time>2017-05-29T14:58:33Z</time>
      </trkpt>
      <trkpt lat="49.53643" lon="5.73376">
        <ele>338</ele>
        <time>2017-05-29T15:00:33Z</time>
      </trkpt>
      <trkpt lat="49.53631" lon="5.73349">
        <ele>341</ele>
        <time>2017-05-29T15:02:33Z</time>
      </trkpt>
      <trkpt lat="49.53628" lon="5.73341">
        <ele>341</ele>
        <time>2017-05-29T15:04:33Z</time>
      </trkpt>
      <trkpt lat="49.53625" lon="5.73333">
        <ele>342</ele>
        <time>2017-05-29T15:06:33Z</time>
      </trkpt>
      <trkpt lat="49.53621" lon="5.73326">
        <ele>342</ele>
        <time>2017-05-29T15:08:33Z</time>
      </trkpt>
      <trkpt lat="49.53605" lon="5.73294">
        <ele>343</ele>
        <time>2017-05-29T15:10:33Z</time>
      </trkpt>
      <trkpt lat="49.53598" lon="5.73273">
        <ele>345</ele>
        <time>2017-05-29T15:12:33Z</time>
      </trkpt>
      <trkpt lat="49.53593" lon="5.73251">
        <ele>347</ele>
        <time>2017-05-29T15:14:33Z</time>
      </trkpt>
      <trkpt lat="49.5359" lon="5.73224">
        <ele>349</ele>
        <time>2017-05-29T15:16:33Z</time>
      </trkpt>
      <trkpt lat="49.53589" lon="5.73214">
        <ele>350</ele>
        <time>2017-05-29T15:18:33Z</time>
      </trkpt>
      <trkpt lat="49.53585" lon="5.73202">
        <ele>350</ele>
        <time>2017-05-29T15:20:33Z</time>
      </trkpt>
      <trkpt lat="49.53582" lon="5.73196">
        <ele>349</ele>
        <time>2017-05-29T15:22:33Z</time>
      </trkpt>
      <trkpt lat="49.53575" lon="5.73183">
        <ele>348</ele>
        <time>2017-05-29T15:24:33Z</time>
      </trkpt>
      <trkpt lat="49.53571" lon="5.73177">
        <ele>347</ele>
        <time>2017-05-29T15:26:33Z</time>
      </trkpt>
      <trkpt lat="49.53566" lon="5.73173">
        <ele>346</ele>
        <time>2017-05-29T15:28:33Z</time>
      </trkpt>
      <trkpt lat="49.53563" lon="5.73168">
        <ele>346</ele>
        <time>2017-05-29T15:30:33Z</time>
      </trkpt>
      <trkpt lat="49.53558" lon="5.73163">
        <ele>344</ele>
        <time>2017-05-29T15:32:33Z</time>
      </trkpt>
      <trkpt lat="49.53554" lon="5.73159">
        <ele>342</ele>
        <time>2017-05-29T15:34:33Z</time>
      </trkpt>
      <trkpt lat="49.53545" lon="5.73149">
        <ele>339</ele>
        <time>2017-05-29T15:36:33Z</time>
      </trkpt>
      <trkpt lat="49.53536" lon="5.7314">
        <ele>336</ele>
        <time>2017-05-29T15:38:33Z</time>
      </trkpt>
      <trkpt lat="49.53532" lon="5.73136">
        <ele>335</ele>
        <time>2017-05-29T15:40:33Z</time>
      </trkpt>
      <trkpt lat="49.53519" lon="5.73124">
        <ele>331</ele>
        <time>2017-05-29T15:42:33Z</time>
      </trkpt>
      <trkpt lat="49.53515" lon="5.73121">
        <ele>329</ele>
        <time>2017-05-29T15:44:33Z</time>
      </trkpt>
      <trkpt lat="49.53511" lon="5.73115">
        <ele>328</ele>
        <time>2017-05-29T15:46:33Z</time>
      </trkpt>
      <trkpt lat="49.5351" lon="5.73112">
        <ele>328</ele>
        <time>2017-05-29T15:48:33Z</time>
      </trkpt>
      <trkpt lat="49.53505" lon="5.73102">
        <ele>326</ele>
        <time>2017-05-29T15:50:33Z</time>
      </trkpt>
      <trkpt lat="49.53501" lon="5.73093">
        <ele>325</ele>
        <time>2017-05-29T15:52:33Z</time>
      </trkpt>
      <trkpt lat="49.535" lon="5.73084">
        <ele>325</ele>
        <time>2017-05-29T15:54:33Z</time>
      </trkpt>
      <trkpt lat="49.53495" lon="5.73068">
        <ele>324</ele>
        <time>2017-05-29T15:56:33Z</time>
      </trkpt>
      <trkpt lat="49.53491" lon="5.73049">
        <ele>323</ele>
        <time>2017-05-29T15:58:33Z</time>
      </trkpt>
      <trkpt lat="49.53487" lon="5.73039">
        <ele>322</ele>
        <time>2017-05-29T16:00:33Z</time>
      </trkpt>
      <trkpt lat="49.53485" lon="5.73036">
        <ele>321</ele>
        <time>2017-05-29T16:02:33Z</time>
      </trkpt>
      <trkpt lat="49.53477" lon="5.73029">
        <ele>319</ele>
        <time>2017-05-29T16:04:33Z</time>
      </trkpt>
      <trkpt lat="49.53474" lon="5.7303">
        <ele>318</ele>
        <time>2017-05-29T16:06:33Z</time>
      </trkpt>
      <trkpt lat="49.53472" lon="5.73039">
        <ele>318</ele>
        <time>2017-05-29T16:08:33Z</time>
      </trkpt>
      <trkpt lat="49.53468" lon="5.73067">
        <ele>318</ele>
        <time>2017-05-29T16:10:33Z</time>
      </trkpt>
      <trkpt lat="49.53464" lon="5.73097">
        <ele>318</ele>
        <time>2017-05-29T16:12:33Z</time>
      </trkpt>
      <trkpt lat="49.53461" lon="5.73114">
        <ele>317</ele>
        <time>2017-05-29T16:14:33Z</time>
      </trkpt>
      <trkpt lat="49.5346" lon="5.73116">
        <ele>317</ele>
        <time>2017-05-29T16:16:33Z</time>
      </trkpt>
      <trkpt lat="49.53458" lon="5.73117">
        <ele>317</ele>
        <time>2017-05-29T16:18:33Z</time>
      </trkpt>
      <trkpt lat="49.53455" lon="5.73114">
        <ele>316</ele>
        <time>2017-05-29T16:20:33Z</time>
      </trkpt>
      <trkpt lat="49.53453" lon="5.73112">
        <ele>316</ele>
        <time>2017-05-29T16:22:33Z</time>
      </trkpt>
      <trkpt lat="49.53446" lon="5.73106">
        <ele>314</ele>
        <time>2017-05-29T16:24:33Z</time>
      </trkpt>
      <trkpt lat="49.53435" lon="5.73094">
        <ele>312</ele>
        <time>2017-05-29T16:26:33Z</time>
      </trkpt>
      <trkpt lat="49.53427" lon="5.73079">
        <ele>310</ele>
        <time>2017-05-29T16:28:33Z</time>
      </trkpt>
      <trkpt lat="49.53415" lon="5.73052">
        <ele>307</ele>
        <time>2017-05-29T16:30:33Z</time>
      </trkpt>
      <trkpt lat="49.53407" lon="5.73027">
        <ele>308</ele>
        <time>2017-05-29T16:32:33Z</time>
      </trkpt>
      <trkpt lat="49.53403" lon="5.72995">
        <ele>308</ele>
        <time>2017-05-29T16:34:33Z</time>
      </trkpt>
      <trkpt lat="49.53403" lon="5.72958">
        <ele>306</ele>
        <time>2017-05-29T16:36:33Z</time>
      </trkpt>
      <trkpt lat="49.53403" lon="5.72922">
        <ele>304</ele>
        <time>2017-05-29T16:38:33Z</time>
      </trkpt>
      <trkpt lat="49.53407" lon="5.72887">
        <ele>303</ele>
        <time>2017-05-29T16:40:33Z</time>
      </trkpt>
      <trkpt lat="49.53408" lon="5.72865">
        <ele>303</ele>
        <time>2017-05-29T16:42:33Z</time>
      </trkpt>
      <trkpt lat="49.53408" lon="5.72864">
        <ele>303</ele>
        <time>2017-05-29T16:44:33Z</time>
      </trkpt>
      <trkpt lat="49.53409" lon="5.72848">
        <ele>302</ele>
        <time>2017-05-29T16:46:33Z</time>
      </trkpt>
      <trkpt lat="49.53409" lon="5.72817">
        <ele>302</ele>
        <time>2017-05-29T16:48:33Z</time>
      </trkpt>
      <trkpt lat="49.5341" lon="5.72768">
        <ele>302</ele>
        <time>2017-05-29T16:50:33Z</time>
      </trkpt>
      <trkpt lat="49.53402" lon="5.72754">
        <ele>303</ele>
        <time>2017-05-29T16:52:33Z</time>
      </trkpt>
      <trkpt lat="49.534" lon="5.72755">
        <ele>303</ele>
        <time>2017-05-29T16:54:33Z</time>
      </trkpt>
      <trkpt lat="49.5339" lon="5.72757">
        <ele>305</ele>
        <time>2017-05-29T16:56:33Z</time>
      </trkpt>
      <trkpt lat="49.53386" lon="5.7276">
        <ele>305</ele>
        <time>2017-05-29T16:58:33Z</time>
      </trkpt>
      <trkpt lat="49.53375" lon="5.72763">
        <ele>307</ele>
        <time>2017-05-29T17:00:33Z</time>
      </trkpt>
      <trkpt lat="49.5337" lon="5.72765">
        <ele>308</ele>
        <time>2017-05-29T17:02:33Z</time>
      </trkpt>
      <trkpt lat="49.53366" lon="5.72766">
        <ele>308</ele>
        <time>2017-05-29T17:04:33Z</time>
      </trkpt>
      <trkpt lat="49.53363" lon="5.72767">
        <ele>309</ele>
        <time>2017-05-29T17:06:33Z</time>
      </trkpt>
      <trkpt lat="49.53359" lon="5.72767">
        <ele>309</ele>
        <time>2017-05-29T17:08:33Z</time>
      </trkpt>
      <trkpt lat="49.53347" lon="5.72765">
        <ele>311</ele>
        <time>2017-05-29T17:10:33Z</time>
      </trkpt>
      <trkpt lat="49.53342" lon="5.72761">
        <ele>312</ele>
        <time>2017-05-29T17:12:33Z</time>
      </trkpt>
      <trkpt lat="49.53333" lon="5.72749">
        <ele>313</ele>
        <time>2017-05-29T17:14:33Z</time>
      </trkpt>
      <trkpt lat="49.5333" lon="5.72743">
        <ele>314</ele>
        <time>2017-05-29T17:16:33Z</time>
      </trkpt>
      <trkpt lat="49.53327" lon="5.72738">
        <ele>316</ele>
        <time>2017-05-29T17:18:33Z</time>
      </trkpt>
      <trkpt lat="49.53322" lon="5.72727">
        <ele>318</ele>
        <time>2017-05-29T17:20:33Z</time>
      </trkpt>
      <trkpt lat="49.53319" lon="5.72718">
        <ele>319</ele>
        <time>2017-05-29T17:22:33Z</time>
      </trkpt>
      <trkpt lat="49.53318" lon="5.72708">
        <ele>319</ele>
        <time>2017-05-29T17:24:33Z</time>
      </trkpt>
      <trkpt lat="49.53314" lon="5.72697">
        <ele>321</ele>
        <time>2017-05-29T17:26:33Z</time>
      </trkpt>
      <trkpt lat="49.5331" lon="5.72687">
        <ele>323</ele>
        <time>2017-05-29T17:28:33Z</time>
      </trkpt>
      <trkpt lat="49.53302" lon="5.72671">
        <ele>327</ele>
        <time>2017-05-29T17:30:33Z</time>
      </trkpt>
      <trkpt lat="49.53291" lon="5.72644">
        <ele>330</ele>
        <time>2017-05-29T17:32:33Z</time>
      </trkpt>
      <trkpt lat="49.53285" lon="5.72632">
        <ele>332</ele>
        <time>2017-05-29T17:34:33Z</time>
      </trkpt>
      <trkpt lat="49.53272" lon="5.72614">
        <ele>337</ele>
        <time>2017-05-29T17:36:33Z</time>
      </trkpt>
      <trkpt lat="49.53268" lon="5.72606">
        <ele>338</ele>
        <time>2017-05-29T17:38:33Z</time>
      </trkpt>
      <trkpt lat="49.5326" lon="5.72599">
        <ele>341</ele>
        <time>2017-05-29T17:40:33Z</time>
      </trkpt>
      <trkpt lat="49.53253" lon="5.72593">
        <ele>344</ele>
        <time>2017-05-29T17:42:33Z</time>
      </trkpt>
      <trkpt lat="49.53245" lon="5.72586">
        <ele>346</ele>
        <time>2017-05-29T17:44:33Z</time>
      </trkpt>
      <trkpt lat="49.53235" lon="5.72569">
        <ele>347</ele>
        <time>2017-05-29T17:46:33Z</time>
      </trkpt>
      <trkpt lat="49.53228" lon="5.72554">
        <ele>348</ele>
        <time>2017-05-29T17:48:33Z</time>
      </trkpt>
      <trkpt lat="49.53224" lon="5.72547">
        <ele>348</ele>
        <time>2017-05-29T17:50:33Z</time>
      </trkpt>
      <trkpt lat="49.53219" lon="5.72545">
        <ele>350</ele>
        <time>2017-05-29T17:52:33Z</time>
      </trkpt>
      <trkpt lat="49.53212" lon="5.72545">
        <ele>353</ele>
        <time>2017-05-29T17:54:33Z</time>
      </trkpt>
      <trkpt lat="49.53206" lon="5.72539">
        <ele>354</ele>
        <time>2017-05-29T17:56:33Z</time>
      </trkpt>
      <trkpt lat="49.53197" lon="5.72513">
        <ele>356</ele>
        <time>2017-05-29T17:58:33Z</time>
      </trkpt>
      <trkpt lat="49.53187" lon="5.72482">
        <ele>357</ele>
        <time>2017-05-29T18:00:33Z</time>
      </trkpt>
      <trkpt lat="49.53186" lon="5.72475">
        <ele>357</ele>
        <time>2017-05-29T18:02:33Z</time>
      </trkpt>
      <trkpt lat="49.53177" lon="5.72443">
        <ele>357</ele>
        <time>2017-05-29T18:04:33Z</time>
      </trkpt>
      <trkpt lat="49.53172" lon="5.72421">
        <ele>357</ele>
        <time>2017-05-29T18:06:33Z</time>
      </trkpt>
      <trkpt lat="49.53159" lon="5.72361">
        <ele>350</ele>
        <time>2017-05-29T18:08:33Z</time>
      </trkpt>
      <trkpt lat="49.53158" lon="5.72346">
        <ele>348</ele>
        <time>2017-05-29T18:10:33Z</time>
      </trkpt>
      <trkpt lat="49.53157" lon="5.72318">
        <ele>343</ele>
        <time>2017-05-29T18:12:33Z</time>
      </trkpt>
      <trkpt lat="49.53158" lon="5.72289">
        <ele>339</ele>
        <time>2017-05-29T18:14:33Z</time>
      </trkpt>
      <trkpt lat="49.53157" lon="5.72271">
        <ele>336</ele>
        <time>2017-05-29T18:16:33Z</time>
      </trkpt>
      <trkpt lat="49.53156" lon="5.72262">
        <ele>335</ele>
        <time>2017-05-29T18:18:33Z</time>
      </trkpt>
      <trkpt lat="49.53154" lon="5.72251">
        <ele>334</ele>
        <time>2017-05-29T18:20:33Z</time>
      </trkpt>
      <trkpt lat="49.5315" lon="5.72222">
        <ele>333</ele>
        <time>2017-05-29T18:22:33Z</time>
      </trkpt>
      <trkpt lat="49.5315" lon="5.72211">
        <ele>332</ele>
        <time>2017-05-29T18:24:33Z</time>
      </trkpt>
      <trkpt lat="49.53149" lon="5.72187">
        <ele>330</ele>
        <time>2017-05-29T18:26:33Z</time>
      </trkpt>
      <trkpt lat="49.53148" lon="5.72167">
        <ele>328</ele>
        <time>2017-05-29T18:28:33Z</time>
      </trkpt>
      <trkpt lat="49.53146" lon="5.72138">
        <ele>326</ele>
        <time>2017-05-29T18:30:33Z</time>
      </trkpt>
      <trkpt lat="49.53146" lon="5.72122">
        <ele>324</ele>
        <time>2017-05-29T18:32:33Z</time>
      </trkpt>
      <trkpt lat="49.53144" lon="5.72091">
        <ele>322</ele>
        <time>2017-05-29T18:34:33Z</time>
      </trkpt>
      <trkpt lat="49.53143" lon="5.72077">
        <ele>321</ele>
        <time>2017-05-29T18:36:33Z</time>
      </trkpt>
      <trkpt lat="49.53144" lon="5.72061">
        <ele>319</ele>
        <time>2017-05-29T18:38:33Z</time>
      </trkpt>
      <trkpt lat="49.53145" lon="5.72054">
        <ele>318</ele>
        <time>2017-05-29T18:40:33Z</time>
      </trkpt>
      <trkpt lat="49.53149" lon="5.7204">
        <ele>317</ele>
        <time>2017-05-29T18:42:33Z</time>
      </trkpt>
      <trkpt lat="49.53153" lon="5.72028">
        <ele>315</ele>
        <time>2017-05-29T18:44:33Z</time>
      </trkpt>
      <trkpt lat="49.53165" lon="5.72009">
        <ele>312</ele>
        <time>2017-05-29T18:46:33Z</time>
      </trkpt>
      <trkpt lat="49.53168" lon="5.71998">
        <ele>310</ele>
        <time>2017-05-29T18:48:33Z</time>
      </trkpt>
      <trkpt lat="49.53171" lon="5.71984">
        <ele>308</ele>
        <time>2017-05-29T18:50:33Z</time>
      </trkpt>
      <trkpt lat="49.53171" lon="5.71966">
        <ele>307</ele>
        <time>2017-05-29T18:52:33Z</time>
      </trkpt>
      <trkpt lat="49.53172" lon="5.71947">
        <ele>305</ele>
        <time>2017-05-29T18:54:33Z</time>
      </trkpt>
      <trkpt lat="49.53174" lon="5.71929">
        <ele>303</ele>
        <time>2017-05-29T18:56:33Z</time>
      </trkpt>
      <trkpt lat="49.53178" lon="5.71912">
        <ele>301</ele>
        <time>2017-05-29T18:58:33Z</time>
      </trkpt>
      <trkpt lat="49.53185" lon="5.71895">
        <ele>297</ele>
        <time>2017-05-29T19:00:33Z</time>
      </trkpt>
      <trkpt lat="49.53187" lon="5.71886">
        <ele>295</ele>
        <time>2017-05-29T19:02:33Z</time>
      </trkpt>
      <trkpt lat="49.53189" lon="5.71871">
        <ele>293</ele>
        <time>2017-05-29T19:04:33Z</time>
      </trkpt>
      <trkpt lat="49.53188" lon="5.71845">
        <ele>289</ele>
        <time>2017-05-29T19:06:33Z</time>
      </trkpt>
      <trkpt lat="49.53185" lon="5.71834">
        <ele>287</ele>
        <time>2017-05-29T19:08:33Z</time>
      </trkpt>
      <trkpt lat="49.53181" lon="5.7182">
        <ele>286</ele>
        <time>2017-05-29T19:10:33Z</time>
      </trkpt>
      <trkpt lat="49.53172" lon="5.71787">
        <ele>285</ele>
        <time>2017-05-29T19:12:33Z</time>
      </trkpt>
      <trkpt lat="49.5317" lon="5.71768">
        <ele>283</ele>
        <time>2017-05-29T19:14:33Z</time>
      </trkpt>
      <trkpt lat="49.53169" lon="5.71769">
        <ele>283</ele>
        <time>2017-05-29T19:16:33Z</time>
      </trkpt>
      <trkpt lat="49.53172" lon="5.71759">
        <ele>283</ele>
        <time>2017-05-29T19:18:33Z</time>
      </trkpt>
      <trkpt lat="49.53172" lon="5.71758">
        <ele>282</ele>
        <time>2017-05-29T19:20:33Z</time>
      </trkpt>
      <trkpt lat="49.53179" lon="5.71727">
        <ele>283</ele>
        <time>2017-05-29T19:22:33Z</time>
      </trkpt>
      <trkpt lat="49.532" lon="5.71728">
        <ele>282</ele>
        <time>2017-05-29T19:24:33Z</time>
      </trkpt>
      <trkpt lat="49.53219" lon="5.71727">
        <ele>282</ele>
        <time>2017-05-29T19:26:33Z</time>
      </trkpt>
      <trkpt lat="49.53236" lon="5.7171">
        <ele>281</ele>
        <time>2017-05-29T19:28:33Z</time>
      </trkpt>
      <trkpt lat="49.53248" lon="5.71687">
        <ele>280</ele>
        <time>2017-05-29T19:30:33Z</time>
      </trkpt>
      <trkpt lat="49.53263" lon="5.71685">
        <ele>282</ele>
        <time>2017-05-29T19:32:33Z</time>
      </trkpt>
      <trkpt lat="49.53284" lon="5.71692">
        <ele>284</ele>
        <time>2017-05-29T19:34:33Z</time>
      </trkpt>
      <trkpt lat="49.53291" lon="5.71695">
        <ele>285</ele>
        <time>2017-05-29T19:36:33Z</time>
      </trkpt>
      <trkpt lat="49.53306" lon="5.71704">
        <ele>288</ele>
        <time>2017-05-29T19:38:33Z</time>
      </trkpt>
      <trkpt lat="49.53313" lon="5.71709">
        <ele>289</ele>
        <time>2017-05-29T19:40:33Z</time>
      </trkpt>
      <trkpt lat="49.53326" lon="5.7172">
        <ele>292</ele>
        <time>2017-05-29T19:42:33Z</time>
      </trkpt>
      <trkpt lat="49.53331" lon="5.71726">
        <ele>294</ele>
        <time>2017-05-29T19:44:33Z</time>
      </trkpt>
      <trkpt lat="49.53334" lon="5.71734">
        <ele>295</ele>
        <time>2017-05-29T19:46:33Z</time>
      </trkpt>
      <trkpt lat="49.53336" lon="5.71743">
        <ele>296</ele>
        <time>2017-05-29T19:48:33Z</time>
      </trkpt>
      <trkpt lat="49.53337" lon="5.71753">
        <ele>297</ele>
        <time>2017-05-29T19:50:33Z</time>
      </trkpt>
      <trkpt lat="49.53338" lon="5.71763">
        <ele>299</ele>
        <time>2017-05-29T19:52:33Z</time>
      </trkpt>
      <trkpt lat="49.53337" lon="5.71773">
        <ele>300</ele>
        <time>2017-05-29T19:54:33Z</time>
      </trkpt>
      <trkpt lat="49.53336" lon="5.71809">
        <ele>304</ele>
        <time>2017-05-29T19:56:33Z</time>
      </trkpt>
      <trkpt lat="49.53336" lon="5.71817">
        <ele>305</ele>
        <time>2017-05-29T19:58:33Z</time>
      </trkpt>
      <trkpt lat="49.53338" lon="5.71849">
        <ele>307</ele>
        <time>2017-05-29T20:00:33Z</time>
      </trkpt>
      <trkpt lat="49.53339" lon="5.71856">
        <ele>307</ele>
        <time>2017-05-29T20:02:33Z</time>
      </trkpt>
      <trkpt lat="49.53346" lon="5.71886">
        <ele>309</ele>
        <time>2017-05-29T20:04:33Z</time>
      </trkpt>
      <trkpt lat="49.53348" lon="5.71904">
        <ele>309</ele>
        <time>2017-05-29T20:06:33Z</time>
      </trkpt>
      <trkpt lat="49.53349" lon="5.71919">
        <ele>310</ele>
        <time>2017-05-29T20:08:33Z</time>
      </trkpt>
      <trkpt lat="49.5335" lon="5.71924">
        <ele>310</ele>
        <time>2017-05-29T20:10:33Z</time>
      </trkpt>
      <trkpt lat="49.53351" lon="5.71927">
        <ele>310</ele>
        <time>2017-05-29T20:12:33Z</time>
      </trkpt>
      <trkpt lat="49.53353" lon="5.7193">
        <ele>311</ele>
        <time>2017-05-29T20:14:33Z</time>
      </trkpt>
      <trkpt lat="49.53353" lon="5.71931">
        <ele>311</ele>
        <time>2017-05-29T20:16:33Z</time>
      </trkpt>
      <trkpt lat="49.53359" lon="5.7192">
        <ele>312</ele>
        <time>2017-05-29T20:18:33Z</time>
      </trkpt>
      <trkpt lat="49.53362" lon="5.71914">
        <ele>313</ele>
        <time>2017-05-29T20:20:33Z</time>
      </trkpt>
      <trkpt lat="49.53364" lon="5.71906">
        <ele>313</ele>
        <time>2017-05-29T20:22:33Z</time>
      </trkpt>
      <trkpt lat="49.53366" lon="5.71899">
        <ele>313</ele>
        <time>2017-05-29T20:24:33Z</time>
      </trkpt>
      <trkpt lat="49.53368" lon="5.71892">
        <ele>313</ele>
        <time>2017-05-29T20:26:33Z</time>
      </trkpt>
      <trkpt lat="49.53372" lon="5.71887">
        <ele>313</ele>
        <time>2017-05-29T20:28:33Z</time>
      </trkpt>
      <trkpt lat="49.53376" lon="5.71884">
        <ele>314</ele>
        <time>2017-05-29T20:30:33Z</time>
      </trkpt>
      <trkpt lat="49.53383" lon="5.71884">
        <ele>315</ele>
        <time>2017-05-29T20:32:33Z</time>
      </trkpt>
      <trkpt lat="49.53389" lon="5.71885">
        <ele>316</ele>
        <time>2017-05-29T20:34:33Z</time>
      </trkpt>
      <trkpt lat="49.53398" lon="5.71897">
        <ele>319</ele>
        <time>2017-05-29T20:36:33Z</time>
      </trkpt>
      <trkpt lat="49.53404" lon="5.71907">
        <ele>322</ele>
        <time>2017-05-29T20:38:33Z</time>
      </trkpt>
      <trkpt lat="49.53416" lon="5.71926">
        <ele>327</ele>
        <time>2017-05-29T20:40:33Z</time>
      </trkpt>
      <trkpt lat="49.53423" lon="5.71935">
        <ele>327</ele>
        <time>2017-05-29T20:42:33Z</time>
      </trkpt>
      <trkpt lat="49.53429" lon="5.71943">
        <ele>328</ele>
        <time>2017-05-29T20:44:33Z</time>
      </trkpt>
      <trkpt lat="49.53434" lon="5.71951">
        <ele>328</ele>
        <time>2017-05-29T20:46:33Z</time>
      </trkpt>
      <trkpt lat="49.53439" lon="5.7196">
        <ele>329</ele>
        <time>2017-05-29T20:48:33Z</time>
      </trkpt>
      <trkpt lat="49.53445" lon="5.71977">
        <ele>331</ele>
        <time>2017-05-29T20:50:33Z</time>
      </trkpt>
      <trkpt lat="49.53448" lon="5.71988">
        <ele>333</ele>
        <time>2017-05-29T20:52:33Z</time>
      </trkpt>
      <trkpt lat="49.53452" lon="5.71997">
        <ele>334</ele>
        <time>2017-05-29T20:54:33Z</time>
      </trkpt>
      <trkpt lat="49.53465" lon="5.72028">
        <ele>338</ele>
        <time>2017-05-29T20:56:33Z</time>
      </trkpt>
      <trkpt lat="49.53474" lon="5.7204">
        <ele>341</ele>
        <time>2017-05-29T20:58:33Z</time>
      </trkpt>
      <trkpt lat="49.53483" lon="5.72046">
        <ele>342</ele>
        <time>2017-05-29T21:00:33Z</time>
      </trkpt>
      <trkpt lat="49.53501" lon="5.72064">
        <ele>348</ele>
        <time>2017-05-29T21:02:33Z</time>
      </trkpt>
      <trkpt lat="49.53511" lon="5.72072">
        <ele>349</ele>
        <time>2017-05-29T21:04:33Z</time>
      </trkpt>
      <trkpt lat="49.5352" lon="5.72078">
        <ele>350</ele>
        <time>2017-05-29T21:06:33Z</time>
      </trkpt>
      <trkpt lat="49.53528" lon="5.72084">
        <ele>351</ele>
        <time>2017-05-29T21:08:33Z</time>
      </trkpt>
      <trkpt lat="49.5354" lon="5.721">
        <ele>353</ele>
        <time>2017-05-29T21:10:33Z</time>
      </trkpt>
      <trkpt lat="49.53552" lon="5.72122">
        <ele>356</ele>
        <time>2017-05-29T21:12:33Z</time>
      </trkpt>
      <trkpt lat="49.53557" lon="5.72129">
        <ele>358</ele>
        <time>2017-05-29T21:14:33Z</time>
      </trkpt>
      <trkpt lat="49.53568" lon="5.72145">
        <ele>362</ele>
        <time>2017-05-29T21:16:33Z</time>
      </trkpt>
      <trkpt lat="49.53575" lon="5.72152">
        <ele>364</ele>
        <time>2017-05-29T21:18:33Z</time>
      </trkpt>
      <trkpt lat="49.53586" lon="5.72162">
        <ele>367</ele>
        <time>2017-05-29T21:20:33Z</time>
      </trkpt>
      <trkpt lat="49.53589" lon="5.72165">
        <ele>367</ele>
        <time>2017-05-29T21:22:33Z</time>
      </trkpt>
      <trkpt lat="49.53592" lon="5.72169">
        <ele>367</ele>
        <time>2017-05-29T21:24:33Z</time>
      </trkpt>
      <trkpt lat="49.53598" lon="5.72179">
        <ele>367</ele>
        <time>2017-05-29T21:26:33Z</time>
      </trkpt>
      <trkpt lat="49.536" lon="5.72186">
        <ele>368</ele>
        <time>2017-05-29T21:28:33Z</time>
      </trkpt>
      <trkpt lat="49.53602" lon="5.72193">
        <ele>368</ele>
        <time>2017-05-29T21:30:33Z</time>
      </trkpt>
      <trkpt lat="49.53604" lon="5.72199">
        <ele>369</ele>
        <time>2017-05-29T21:32:33Z</time>
      </trkpt>
      <trkpt lat="49.53608" lon="5.72211">
        <ele>370</ele>
        <time>2017-05-29T21:34:33Z</time>
      </trkpt>
      <trkpt lat="49.53617" lon="5.72232">
        <ele>372</ele>
        <time>2017-05-29T21:36:33Z</time>
      </trkpt>
      <trkpt lat="49.5362" lon="5.72237">
        <ele>373</ele>
        <time>2017-05-29T21:38:33Z</time>
      </trkpt>
      <trkpt lat="49.53644" lon="5.7226">
        <ele>376</ele>
        <time>2017-05-29T21:40:33Z</time>
      </trkpt>
      <trkpt lat="49.5365" lon="5.72264">
        <ele>377</ele>
        <time>2017-05-29T21:42:33Z</time>
      </trkpt>
      <trkpt lat="49.53666" lon="5.72278">
        <ele>380</ele>
        <time>2017-05-29T21:44:33Z</time>
      </trkpt>
      <trkpt lat="49.53684" lon="5.72295">
        <ele>380</ele>
        <time>2017-05-29T21:46:33Z</time>
      </trkpt>
      <trkpt lat="49.5369" lon="5.72302">
        <ele>380</ele>
        <time>2017-05-29T21:48:33Z</time>
      </trkpt>
      <trkpt lat="49.53719" lon="5.72343">
        <ele>382</ele>
        <time>2017-05-29T21:50:33Z</time>
      </trkpt>
      <trkpt lat="49.53736" lon="5.72368">
        <ele>384</ele>
        <time>2017-05-29T21:52:33Z</time>
      </trkpt>
      <trkpt lat="49.53749" lon="5.7239">
        <ele>386</ele>
        <time>2017-05-29T21:54:33Z</time>
      </trkpt>
      <trkpt lat="49.53752" lon="5.72398">
        <ele>386</ele>
        <time>2017-05-29T21:56:33Z</time>
      </trkpt>
      <trkpt lat="49.53766" lon="5.7243">
        <ele>388</ele>
        <time>2017-05-29T21:58:33Z</time>
      </trkpt>
      <trkpt lat="49.53775" lon="5.72454">
        <ele>389</ele>
        <time>2017-05-29T22:00:33Z</time>
      </trkpt>
      <trkpt lat="49.53782" lon="5.72468">
        <ele>390</ele>
        <time>2017-05-29T22:02:33Z</time>
      </trkpt>
      <trkpt lat="49.53799" lon="5.72491">
        <ele>391</ele>
        <time>2017-05-29T22:04:33Z</time>
      </trkpt>
      <trkpt lat="49.53816" lon="5.72511">
        <ele>390</ele>
        <time>2017-05-29T22:06:33Z</time>
      </trkpt>
      <trkpt lat="49.53831" lon="5.7253">
        <ele>390</ele>
        <time>2017-05-29T22:08:33Z</time>
      </trkpt>
      <trkpt lat="49.53848" lon="5.72551">
        <ele>389</ele>
        <time>2017-05-29T22:10:33Z</time>
      </trkpt>
      <trkpt lat="49.53862" lon="5.72572">
        <ele>388</ele>
        <time>2017-05-29T22:12:33Z</time>
      </trkpt>
      <trkpt lat="49.53869" lon="5.72578">
        <ele>388</ele>
        <time>2017-05-29T22:14:33Z</time>
      </trkpt>
      <trkpt lat="49.53872" lon="5.72581">
        <ele>388</ele>
        <time>2017-05-29T22:16:33Z</time>
      </trkpt>
      <trkpt lat="49.53886" lon="5.7261">
        <ele>387</ele>
        <time>2017-05-29T22:18:33Z</time>
      </trkpt>
      <trkpt lat="49.53899" lon="5.72628">
        <ele>386</ele>
        <time>2017-05-29T22:20:33Z</time>
      </trkpt>
      <trkpt lat="49.53913" lon="5.72644">
        <ele>386</ele>
        <time>2017-05-29T22:22:33Z</time>
      </trkpt>
      <trkpt lat="49.53927" lon="5.72653">
        <ele>385</ele>
        <time>2017-05-29T22:24:33Z</time>
      </trkpt>
      <trkpt lat="49.5393" lon="5.72656">
        <ele>385</ele>
        <time>2017-05-29T22:26:33Z</time>
      </trkpt>
      <trkpt lat="49.53951" lon="5.72668">
        <ele>385</ele>
        <time>2017-05-29T22:28:33Z</time>
      </trkpt>
      <trkpt lat="49.53955" lon="5.72672">
        <ele>385</ele>
        <time>2017-05-29T22:30:33Z</time>
      </trkpt>
      <trkpt lat="49.53962" lon="5.7268">
        <ele>384</ele>
        <time>2017-05-29T22:32:33Z</time>
      </trkpt>
      <trkpt lat="49.53972" lon="5.72697">
        <ele>384</ele>
        <time>2017-05-29T22:34:33Z</time>
      </trkpt>
      <trkpt lat="49.53986" lon="5.72718">
        <ele>383</ele>
        <time>2017-05-29T22:36:33Z</time>
      </trkpt>
      <trkpt lat="49.53991" lon="5.72728">
        <ele>383</ele>
        <time>2017-05-29T22:38:33Z</time>
      </trkpt>
      <trkpt lat="49.53993" lon="5.72731">
        <ele>383</ele>
        <time>2017-05-29T22:40:33Z</time>
      </trkpt>
      <trkpt lat="49.53992" lon="5.7273">
        <ele>383</ele>
        <time>2017-05-29T22:42:33Z</time>
      </trkpt>
      <trkpt lat="49.54" lon="5.72746">
        <ele>383</ele>
        <time>2017-05-29T22:44:33Z</time>
      </trkpt>
      <trkpt lat="49.54016" lon="5.72765">
        <ele>383</ele>
        <time>2017-05-29T22:46:33Z</time>
      </trkpt>
      <trkpt lat="49.54032" lon="5.72783">
        <ele>382</ele>
        <time>2017-05-29T22:48:33Z</time>
      </trkpt>
      <trkpt lat="49.5404" lon="5.72793">
        <ele>382</ele>
        <time>2017-05-29T22:50:33Z</time>
      </trkpt>
      <trkpt lat="49.54048" lon="5.72802">
        <ele>381</ele>
        <time>2017-05-29T22:52:33Z</time>
      </trkpt>
      <trkpt lat="49.54062" lon="5.72826">
        <ele>380</ele>
        <time>2017-05-29T22:54:33Z</time>
      </trkpt>
      <trkpt lat="49.54075" lon="5.72852">
        <ele>381</ele>
        <time>2017-05-29T22:56:33Z</time>
      </trkpt>
      <trkpt lat="49.54087" lon="5.72876">
        <ele>382</ele>
        <time>2017-05-29T22:58:33Z</time>
      </trkpt>
      <trkpt lat="49.54097" lon="5.72889">
        <ele>382</ele>
        <time>2017-05-29T23:00:33Z</time>
      </trkpt>
      <trkpt lat="49.5411" lon="5.72905">
        <ele>383</ele>
        <time>2017-05-29T23:02:33Z</time>
      </trkpt>
      <trkpt lat="49.54127" lon="5.7292">
        <ele>384</ele>
        <time>2017-05-29T23:04:33Z</time>
      </trkpt>
      <trkpt lat="49.54143" lon="5.7294">
        <ele>386</ele>
        <time>2017-05-29T23:06:33Z</time>
      </trkpt>
      <trkpt lat="49.54151" lon="5.72952">
        <ele>387</ele>
        <time>2017-05-29T23:08:33Z</time>
      </trkpt>
      <trkpt lat="49.54155" lon="5.72957">
        <ele>387</ele>
        <time>2017-05-29T23:10:33Z</time>
      </trkpt>
      <trkpt lat="49.54175" lon="5.72977">
        <ele>387</ele>
        <time>2017-05-29T23:12:33Z</time>
      </trkpt>
      <trkpt lat="49.54184" lon="5.72986">
        <ele>387</ele>
        <time>2017-05-29T23:14:33Z</time>
      </trkpt>
      <trkpt lat="49.54194" lon="5.73">
        <ele>387</ele>
        <time>2017-05-29T23:16:33Z</time>
      </trkpt>
      <trkpt lat="49.54208" lon="5.73025">
        <ele>387</ele>
        <time>2017-05-29T23:18:33Z</time>
      </trkpt>
      <trkpt lat="49.54227" lon="5.73051">
        <ele>388</ele>
        <time>2017-05-29T23:20:33Z</time>
      </trkpt>
      <trkpt lat="49.54232" lon="5.7306">
        <ele>388</ele>
        <time>2017-05-29T23:22:33Z</time>
      </trkpt>
      <trkpt lat="49.54246" lon="5.73093">
        <ele>390</ele>
        <time>2017-05-29T23:24:33Z</time>
      </trkpt>
      <trkpt lat="49.54257" lon="5.73116">
        <ele>389</ele>
        <time>2017-05-29T23:26:33Z</time>
      </trkpt>
      <trkpt lat="49.54288" lon="5.73171">
        <ele>387</ele>
        <time>2017-05-29T23:28:33Z</time>
      </trkpt>
      <trkpt lat="49.54292" lon="5.73191">
        <ele>387</ele>
        <time>2017-05-29T23:30:33Z</time>
      </trkpt>
      <trkpt lat="49.54295" lon="5.7322">
        <ele>387</ele>
        <time>2017-05-29T23:32:33Z</time>
      </trkpt>
      <trkpt lat="49.54297" lon="5.7323">
        <ele>388</ele>
        <time>2017-05-29T23:34:33Z</time>
      </trkpt>
      <trkpt lat="49.543" lon="5.73236">
        <ele>387</ele>
        <time>2017-05-29T23:36:33Z</time>
      </trkpt>
      <trkpt lat="49.54301" lon="5.73242">
        <ele>387</ele>
        <time>2017-05-29T23:38:33Z</time>
      </trkpt>
      <trkpt lat="49.543" lon="5.73249">
        <ele>388</ele>
        <time>2017-05-29T23:40:33Z</time>
      </trkpt>
      <trkpt lat="49.54298" lon="5.73257">
        <ele>388</ele>
        <time>2017-05-29T23:42:33Z</time>
      </trkpt>
      <trkpt lat="49.54299" lon="5.73275">
        <ele>388</ele>
        <time>2017-05-29T23:44:33Z</time>
      </trkpt>
      <trkpt lat="49.54301" lon="5.73303">
        <ele>388</ele>
        <time>2017-05-29T23:46:33Z</time>
      </trkpt>
      <trkpt lat="49.543" lon="5.73334">
        <ele>388</ele>
        <time>2017-05-29T23:48:33Z</time>
      </trkpt>
      <trkpt lat="49.54297" lon="5.73366">
        <ele>389</ele>
        <time>2017-05-29T23:50:33Z</time>
      </trkpt>
      <trkpt lat="49.54296" lon="5.73386">
        <ele>390</ele>
        <time>2017-05-29T23:52:33Z</time>
      </trkpt>
      <trkpt lat="49.54293" lon="5.73401">
        <ele>390</ele>
        <time>2017-05-29T23:54:33Z</time>
      </trkpt>
      <trkpt lat="49.54288" lon="5.73423">
        <ele>391</ele>
        <time>2017-05-29T23:56:33Z</time>
      </trkpt>
      <trkpt lat="49.54282" lon="5.73456">
        <ele>392</ele>
        <time>2017-05-29T23:58:33Z</time>
      </trkpt>
      <trkpt lat="49.54269" lon="5.73489">
        <ele>394</ele>
        <time>2017-05-30T00:00:33Z</time>
      </trkpt>
      <trkpt lat="49.54268" lon="5.73508">
        <ele>394</ele>
        <time>2017-05-30T00:02:33Z</time>
      </trkpt>
      <trkpt lat="49.54267" lon="5.73538">
        <ele>396</ele>
        <time>2017-05-30T00:04:33Z</time>
      </trkpt>
      <trkpt lat="49.5426" lon="5.73574">
        <ele>398</ele>
        <time>2017-05-30T00:06:33Z</time>
      </trkpt>
      <trkpt lat="49.54262" lon="5.73595">
        <ele>398</ele>
        <time>2017-05-30T00:08:33Z</time>
      </trkpt>
      <trkpt lat="49.54261" lon="5.73598">
        <ele>398</ele>
        <time>2017-05-30T00:10:33Z</time>
      </trkpt>
      <trkpt lat="49.54261" lon="5.73597">
        <ele>398</ele>
        <time>2017-05-30T00:12:33Z</time>
      </trkpt>
      <trkpt lat="49.5428" lon="5.73576">
        <ele>397</ele>
        <time>2017-05-30T00:14:33Z</time>
      </trkpt>
      <trkpt lat="49.54303" lon="5.73554">
        <ele>395</ele>
        <time>2017-05-30T00:16:33Z</time>
      </trkpt>
      <trkpt lat="49.54317" lon="5.73538">
        <ele>393</ele>
        <time>2017-05-30T00:18:33Z</time>
      </trkpt>
      <trkpt lat="49.54325" lon="5.73526">
        <ele>392</ele>
        <time>2017-05-30T00:20:33Z</time>
      </trkpt>
      <trkpt lat="49.5434" lon="5.73498">
        <ele>390</ele>
        <time>2017-05-30T00:22:33Z</time>
      </trkpt>
      <trkpt lat="49.54343" lon="5.73488">
        <ele>390</ele>
        <time>2017-05-30T00:24:33Z</time>
      </trkpt>
      <trkpt lat="49.54347" lon="5.73479">
        <ele>389</ele>
        <time>2017-05-30T00:26:33Z</time>
      </trkpt>
      <trkpt lat="49.54354" lon="5.73461">
        <ele>388</ele>
        <time>2017-05-30T00:28:33Z</time>
      </trkpt>
      <trkpt lat="49.54356" lon="5.73452">
        <ele>388</ele>
        <time>2017-05-30T00:30:33Z</time>
      </trkpt>
      <trkpt lat="49.54359" lon="5.73443">
        <ele>388</ele>
        <time>2017-05-30T00:32:33Z</time>
      </trkpt>
      <trkpt lat="49.54361" lon="5.73432">
        <ele>387</ele>
        <time>2017-05-30T00:34:33Z</time>
      </trkpt>
      <trkpt lat="49.54366" lon="5.73414">
        <ele>386</ele>
        <time>2017-05-30T00:36:33Z</time>
      </trkpt>
      <trkpt lat="49.54367" lon="5.73404">
        <ele>385</ele>
        <time>2017-05-30T00:38:33Z</time>
      </trkpt>
      <trkpt lat="49.54376" lon="5.73369">
        <ele>383</ele>
        <time>2017-05-30T00:40:33Z</time>
      </trkpt>
      <trkpt lat="49.54376" lon="5.7336">
        <ele>382</ele>
        <time>2017-05-30T00:42:33Z</time>
      </trkpt>
      <trkpt lat="49.54379" lon="5.73346">
        <ele>381</ele>
        <time>2017-05-30T00:44:33Z</time>
      </trkpt>
      <trkpt lat="49.54384" lon="5.73329">
        <ele>379</ele>
        <time>2017-05-30T00:46:33Z</time>
      </trkpt>
      <trkpt lat="49.54386" lon="5.73322">
        <ele>378</ele>
        <time>2017-05-30T00:48:33Z</time>
      </trkpt>
      <trkpt lat="49.54389" lon="5.73312">
        <ele>377</ele>
        <time>2017-05-30T00:50:33Z</time>
      </trkpt>
      <trkpt lat="49.54391" lon="5.73308">
        <ele>376</ele>
        <time>2017-05-30T00:52:33Z</time>
      </trkpt>
      <trkpt lat="49.54394" lon="5.73299">
        <ele>375</ele>
        <time>2017-05-30T00:54:33Z</time>
      </trkpt>
      <trkpt lat="49.54398" lon="5.73277">
        <ele>372</ele>
        <time>2017-05-30T00:56:33Z</time>
      </trkpt>
      <trkpt lat="49.54403" lon="5.73256">
        <ele>369</ele>
        <time>2017-05-30T00:58:33Z</time>
      </trkpt>
      <trkpt lat="49.54412" lon="5.7324">
        <ele>366</ele>
        <time>2017-05-30T01:00:33Z</time>
      </trkpt>
      <trkpt lat="49.54415" lon="5.73236">
        <ele>365</ele>
        <time>2017-05-30T01:02:33Z</time>
      </trkpt>
      <trkpt lat="49.54417" lon="5.73232">
        <ele>364</ele>
        <time>2017-05-30T01:04:33Z</time>
      </trkpt>
      <trkpt lat="49.54419" lon="5.73228">
        <ele>364</ele>
        <time>2017-05-30T01:06:33Z</time>
      </trkpt>
      <trkpt lat="49.54419" lon="5.73223">
        <ele>364</ele>
        <time>2017-05-30T01:08:33Z</time>
      </trkpt>
      <trkpt lat="49.54418" lon="5.73215">
        <ele>363</ele>
        <time>2017-05-30T01:10:33Z</time>
      </trkpt>
      <trkpt lat="49.54415" lon="5.73199">
        <ele>362</ele>
        <time>2017-05-30T01:12:33Z</time>
      </trkpt>
      <trkpt lat="49.54413" lon="5.73173">
        <ele>361</ele>
        <time>2017-05-30T01:14:33Z</time>
      </trkpt>
      <trkpt lat="49.54412" lon="5.73167">
        <ele>361</ele>
        <time>2017-05-30T01:16:33Z</time>
      </trkpt>
      <trkpt lat="49.54408" lon="5.7315">
        <ele>362</ele>
        <time>2017-05-30T01:18:33Z</time>
      </trkpt>
      <trkpt lat="49.54403" lon="5.73129">
        <ele>362</ele>
        <time>2017-05-30T01:20:33Z</time>
      </trkpt>
      <trkpt lat="49.54394" lon="5.73099">
        <ele>362</ele>
        <time>2017-05-30T01:22:33Z</time>
      </trkpt>
      <trkpt lat="49.54381" lon="5.73057">
        <ele>362</ele>
        <time>2017-05-30T01:24:33Z</time>
      </trkpt>
      <trkpt lat="49.54378" lon="5.73045">
        <ele>361</ele>
        <time>2017-05-30T01:26:33Z</time>
      </trkpt>
      <trkpt lat="49.54363" lon="5.73008">
        <ele>358</ele>
        <time>2017-05-30T01:28:33Z</time>
      </trkpt>
      <trkpt lat="49.54361" lon="5.73001">
        <ele>357</ele>
        <time>2017-05-30T01:30:33Z</time>
      </trkpt>
      <trkpt lat="49.54345" lon="5.72962">
        <ele>352</ele>
        <time>2017-05-30T01:32:33Z</time>
      </trkpt>
      <trkpt lat="49.54341" lon="5.72953">
        <ele>351</ele>
        <time>2017-05-30T01:34:33Z</time>
      </trkpt>
      <trkpt lat="49.54329" lon="5.7293">
        <ele>347</ele>
        <time>2017-05-30T01:36:33Z</time>
      </trkpt>
      <trkpt lat="49.54326" lon="5.7292">
        <ele>346</ele>
        <time>2017-05-30T01:38:33Z</time>
      </trkpt>
      <trkpt lat="49.54314" lon="5.72892">
        <ele>348</ele>
        <time>2017-05-30T01:40:33Z</time>
      </trkpt>
      <trkpt lat="49.54303" lon="5.72865">
        <ele>348</ele>
        <time>2017-05-30T01:42:33Z</time>
      </trkpt>
      <trkpt lat="49.54291" lon="5.72834">
        <ele>346</ele>
        <time>2017-05-30T01:44:33Z</time>
      </trkpt>
      <trkpt lat="49.54288" lon="5.72829">
        <ele>346</ele>
        <time>2017-05-30T01:46:33Z</time>
      </trkpt>
      <trkpt lat="49.54274" lon="5.72794">
        <ele>344</ele>
        <time>2017-05-30T01:48:33Z</time>
      </trkpt>
      <trkpt lat="49.54266" lon="5.72776">
        <ele>342</ele>
        <time>2017-05-30T01:50:33Z</time>
      </trkpt>
      <trkpt lat="49.54264" lon="5.72769">
        <ele>342</ele>
        <time>2017-05-30T01:52:33Z</time>
      </trkpt>
      <trkpt lat="49.54264" lon="5.72768">
        <ele>341</ele>
        <time>2017-05-30T01:54:33Z</time>
      </trkpt>
      <trkpt lat="49.54277" lon="5.72686">
        <ele>341</ele>
        <time>2017-05-30T01:56:33Z</time>
      </trkpt>
      <trkpt lat="49.54276" lon="5.72661">
        <ele>340</ele>
        <time>2017-05-30T01:58:33Z</time>
      </trkpt>
      <trkpt lat="49.54276" lon="5.72657">
        <ele>340</ele>
        <time>2017-05-30T02:00:33Z</time>
      </trkpt>
      <trkpt lat="49.54275" lon="5.7265">
        <ele>339</ele>
        <time>2017-05-30T02:02:33Z</time>
      </trkpt>
      <trkpt lat="49.54275" lon="5.72647">
        <ele>339</ele>
        <time>2017-05-30T02:04:33Z</time>
      </trkpt>
      <trkpt lat="49.54275" lon="5.72642">
        <ele>339</ele>
        <time>2017-05-30T02:06:33Z</time>
      </trkpt>
      <trkpt lat="49.54275" lon="5.72635">
        <ele>338</ele>
        <time>2017-05-30T02:08:33Z</time>
      </trkpt>
      <trkpt lat="49.54274" lon="5.72619">
        <ele>337</ele>
        <time>2017-05-30T02:10:33Z</time>
      </trkpt>
      <trkpt lat="49.54274" lon="5.7262">
        <ele>337</ele>
        <time>2017-05-30T02:12:33Z</time>
      </trkpt>
      <trkpt lat="49.54283" lon="5.72594">
        <ele>338</ele>
        <time>2017-05-30T02:14:33Z</time>
      </trkpt>
      <trkpt lat="49.54284" lon="5.72597">
        <ele>338</ele>
        <time>2017-05-30T02:16:33Z</time>
      </trkpt>
      <trkpt lat="49.54273" lon="5.72566">
        <ele>336</ele>
        <time>2017-05-30T02:18:33Z</time>
      </trkpt>
      <trkpt lat="49.54272" lon="5.7256">
        <ele>336</ele>
        <time>2017-05-30T02:20:33Z</time>
      </trkpt>
      <trkpt lat="49.54272" lon="5.72552">
        <ele>336</ele>
        <time>2017-05-30T02:22:33Z</time>
      </trkpt>
      <trkpt lat="49.54272" lon="5.72551">
        <ele>336</ele>
        <time>2017-05-30T02:24:33Z</time>
      </trkpt>
      <trkpt lat="49.54269" lon="5.72535">
        <ele>336</ele>
        <time>2017-05-30T02:26:33Z</time>
      </trkpt>
      <trkpt lat="49.54258" lon="5.7251">
        <ele>335</ele>
        <time>2017-05-30T02:28:33Z</time>
      </trkpt>
      <trkpt lat="49.54248" lon="5.7251">
        <ele>334</ele>
        <time>2017-05-30T02:30:33Z</time>
      </trkpt>
      <trkpt lat="49.54227" lon="5.72497">
        <ele>335</ele>
        <time>2017-05-30T02:32:33Z</time>
      </trkpt>
      <trkpt lat="49.54213" lon="5.72477">
        <ele>336</ele>
        <time>2017-05-30T02:34:33Z</time>
      </trkpt>
      <trkpt lat="49.54191" lon="5.72432">
        <ele>337</ele>
        <time>2017-05-30T02:36:33Z</time>
      </trkpt>
      <trkpt lat="49.54189" lon="5.72425">
        <ele>337</ele>
        <time>2017-05-30T02:38:33Z</time>
      </trkpt>
      <trkpt lat="49.54187" lon="5.72412">
        <ele>338</ele>
        <time>2017-05-30T02:40:33Z</time>
      </trkpt>
      <trkpt lat="49.54178" lon="5.72383">
        <ele>341</ele>
        <time>2017-05-30T02:42:33Z</time>
      </trkpt>
      <trkpt lat="49.54161" lon="5.72371">
        <ele>340</ele>
        <time>2017-05-30T02:44:33Z</time>
      </trkpt>
      <trkpt lat="49.54151" lon="5.72363">
        <ele>339</ele>
        <time>2017-05-30T02:46:33Z</time>
      </trkpt>
      <trkpt lat="49.54137" lon="5.72347">
        <ele>338</ele>
        <time>2017-05-30T02:48:33Z</time>
      </trkpt>
      <trkpt lat="49.54133" lon="5.72341">
        <ele>338</ele>
        <time>2017-05-30T02:50:33Z</time>
      </trkpt>
      <trkpt lat="49.54118" lon="5.72312">
        <ele>338</ele>
        <time>2017-05-30T02:52:33Z</time>
      </trkpt>
      <trkpt lat="49.54102" lon="5.72291">
        <ele>337</ele>
        <time>2017-05-30T02:54:33Z</time>
      </trkpt>
      <trkpt lat="49.54089" lon="5.72268">
        <ele>337</ele>
        <time>2017-05-30T02:56:33Z</time>
      </trkpt>
      <trkpt lat="49.54077" lon="5.72247">
        <ele>337</ele>
        <time>2017-05-30T02:58:33Z</time>
      </trkpt>
      <trkpt lat="49.54075" lon="5.72239">
        <ele>338</ele>
        <time>2017-05-30T03:00:33Z</time>
      </trkpt>
      <trkpt lat="49.54069" lon="5.72215">
        <ele>339</ele>
        <time>2017-05-30T03:02:33Z</time>
      </trkpt>
      <trkpt lat="49.5406" lon="5.72181">
        <ele>340</ele>
        <time>2017-05-30T03:04:33Z</time>
      </trkpt>
      <trkpt lat="49.54057" lon="5.72164">
        <ele>340</ele>
        <time>2017-05-30T03:06:33Z</time>
      </trkpt>
      <trkpt lat="49.5405" lon="5.72136">
        <ele>341</ele>
        <time>2017-05-30T03:08:33Z</time>
      </trkpt>
      <trkpt lat="49.54048" lon="5.72125">
        <ele>341</ele>
        <time>2017-05-30T03:10:33Z</time>
      </trkpt>
      <trkpt lat="49.54043" lon="5.72104">
        <ele>341</ele>
        <time>2017-05-30T03:12:33Z</time>
      </trkpt>
      <trkpt lat="49.5404" lon="5.72095">
        <ele>341</ele>
        <time>2017-05-30T03:14:33Z</time>
      </trkpt>
      <trkpt lat="49.54033" lon="5.72077">
        <ele>341</ele>
        <time>2017-05-30T03:16:33Z</time>
      </trkpt>
      <trkpt lat="49.5402" lon="5.72051">
        <ele>340</ele>
        <time>2017-05-30T03:18:33Z</time>
      </trkpt>
      <trkpt lat="49.54016" lon="5.72042">
        <ele>340</ele>
        <time>2017-05-30T03:20:33Z</time>
      </trkpt>
      <trkpt lat="49.54013" lon="5.72032">
        <ele>341</ele>
        <time>2017-05-30T03:22:33Z</time>
      </trkpt>
      <trkpt lat="49.54011" lon="5.72021">
        <ele>342</ele>
        <time>2017-05-30T03:24:33Z</time>
      </trkpt>
      <trkpt lat="49.5401" lon="5.72012">
        <ele>342</ele>
        <time>2017-05-30T03:26:33Z</time>
      </trkpt>
      <trkpt lat="49.54009" lon="5.72002">
        <ele>343</ele>
        <time>2017-05-30T03:28:33Z</time>
      </trkpt>
      <trkpt lat="49.54008" lon="5.71992">
        <ele>344</ele>
        <time>2017-05-30T03:30:33Z</time>
      </trkpt>
      <trkpt lat="49.54006" lon="5.71982">
        <ele>345</ele>
        <time>2017-05-30T03:32:33Z</time>
      </trkpt>
      <trkpt lat="49.53997" lon="5.71954">
        <ele>345</ele>
        <time>2017-05-30T03:34:33Z</time>
      </trkpt>
      <trkpt lat="49.53994" lon="5.71936">
        <ele>346</ele>
        <time>2017-05-30T03:36:33Z</time>
      </trkpt>
      <trkpt lat="49.53993" lon="5.7192">
        <ele>348</ele>
        <time>2017-05-30T03:38:33Z</time>
      </trkpt>
      <trkpt lat="49.53992" lon="5.71912">
        <ele>348</ele>
        <time>2017-05-30T03:40:33Z</time>
      </trkpt>
      <trkpt lat="49.53985" lon="5.71892">
        <ele>349</ele>
        <time>2017-05-30T03:42:33Z</time>
      </trkpt>
      <trkpt lat="49.53977" lon="5.7188">
        <ele>349</ele>
        <time>2017-05-30T03:44:33Z</time>
      </trkpt>
      <trkpt lat="49.53969" lon="5.7187">
        <ele>348</ele>
        <time>2017-05-30T03:46:33Z</time>
      </trkpt>
      <trkpt lat="49.53955" lon="5.7185">
        <ele>347</ele>
        <time>2017-05-30T03:48:33Z</time>
      </trkpt>
      <trkpt lat="49.53927" lon="5.71803">
        <ele>346</ele>
        <time>2017-05-30T03:50:33Z</time>
      </trkpt>
      <trkpt lat="49.53911" lon="5.7178">
        <ele>346</ele>
        <time>2017-05-30T03:52:33Z</time>
      </trkpt>
      <trkpt lat="49.53896" lon="5.71756">
        <ele>345</ele>
        <time>2017-05-30T03:54:33Z</time>
      </trkpt>
      <trkpt lat="49.53864" lon="5.71705">
        <ele>344</ele>
        <time>2017-05-30T03:56:33Z</time>
      </trkpt>
      <trkpt lat="49.53848" lon="5.71682">
        <ele>344</ele>
        <time>2017-05-30T03:58:33Z</time>
      </trkpt>
      <trkpt lat="49.53831" lon="5.7166">
        <ele>344</ele>
        <time>2017-05-30T04:00:33Z</time>
      </trkpt>
      <trkpt lat="49.53815" lon="5.71638">
        <ele>345</ele>
        <time>2017-05-30T04:02:33Z</time>
      </trkpt>
      <trkpt lat="49.53806" lon="5.71628">
        <ele>345</ele>
        <time>2017-05-30T04:04:33Z</time>
      </trkpt>
      <trkpt lat="49.5379" lon="5.71611">
        <ele>344</ele>
        <time>2017-05-30T04:06:33Z</time>
      </trkpt>
      <trkpt lat="49.53772" lon="5.71586">
        <ele>343</ele>
        <time>2017-05-30T04:08:33Z</time>
      </trkpt>
      <trkpt lat="49.53757" lon="5.71567">
        <ele>342</ele>
        <time>2017-05-30T04:10:33Z</time>
      </trkpt>
      <trkpt lat="49.53754" lon="5.71559">
        <ele>342</ele>
        <time>2017-05-30T04:12:33Z</time>
      </trkpt>
      <trkpt lat="49.53762" lon="5.71561">
        <ele>344</ele>
        <time>2017-05-30T04:14:33Z</time>
      </trkpt>
      <trkpt lat="49.5379" lon="5.71568">
        <ele>350</ele>
        <time>2017-05-30T04:16:33Z</time>
      </trkpt>
      <trkpt lat="49.53794" lon="5.71567">
        <ele>352</ele>
        <time>2017-05-30T04:18:33Z</time>
      </trkpt>
      <trkpt lat="49.53799" lon="5.71565">
        <ele>353</ele>
        <time>2017-05-30T04:20:33Z</time>
      </trkpt>
      <trkpt lat="49.53815" lon="5.71557">
        <ele>358</ele>
        <time>2017-05-30T04:22:33Z</time>
      </trkpt>
      <trkpt lat="49.53822" lon="5.71555">
        <ele>360</ele>
        <time>2017-05-30T04:24:33Z</time>
      </trkpt>
      <trkpt lat="49.53835" lon="5.71549">
        <ele>364</ele>
        <time>2017-05-30T04:26:33Z</time>
      </trkpt>
      <trkpt lat="49.53841" lon="5.71545">
        <ele>366</ele>
        <time>2017-05-30T04:28:33Z</time>
      </trkpt>
      <trkpt lat="49.53855" lon="5.71535">
        <ele>370</ele>
        <time>2017-05-30T04:30:33Z</time>
      </trkpt>
      <trkpt lat="49.53864" lon="5.7153">
        <ele>372</ele>
        <time>2017-05-30T04:32:33Z</time>
      </trkpt>
      <trkpt lat="49.53873" lon="5.71523">
        <ele>374</ele>
        <time>2017-05-30T04:34:33Z</time>
      </trkpt>
      <trkpt lat="49.53878" lon="5.7152">
        <ele>376</ele>
        <time>2017-05-30T04:36:33Z</time>
      </trkpt>
      <trkpt lat="49.53884" lon="5.71518">
        <ele>377</ele>
        <time>2017-05-30T04:38:33Z</time>
      </trkpt>
      <trkpt lat="49.53893" lon="5.71516">
        <ele>379</ele>
        <time>2017-05-30T04:40:33Z</time>
      </trkpt>
      <trkpt lat="49.53897" lon="5.71517">
        <ele>379</ele>
        <time>2017-05-30T04:42:33Z</time>
      </trkpt>
      <trkpt lat="49.53903" lon="5.71519">
        <ele>380</ele>
        <time>2017-05-30T04:44:33Z</time>
      </trkpt>
      <trkpt lat="49.53909" lon="5.71519">
        <ele>381</ele>
        <time>2017-05-30T04:46:33Z</time>
      </trkpt>
      <trkpt lat="49.53911" lon="5.71518">
        <ele>382</ele>
        <time>2017-05-30T04:48:33Z</time>
      </trkpt>
      <trkpt lat="49.53914" lon="5.71513">
        <ele>383</ele>
        <time>2017-05-30T04:50:33Z</time>
      </trkpt>
      <trkpt lat="49.53914" lon="5.71509">
        <ele>383</ele>
        <time>2017-05-30T04:52:33Z</time>
      </trkpt>
      <trkpt lat="49.53915" lon="5.71505">
        <ele>383</ele>
        <time>2017-05-30T04:54:33Z</time>
      </trkpt>
      <trkpt lat="49.53921" lon="5.71498">
        <ele>384</ele>
        <time>2017-05-30T04:56:33Z</time>
      </trkpt>
      <trkpt lat="49.53929" lon="5.7149">
        <ele>385</ele>
        <time>2017-05-30T04:58:33Z</time>
      </trkpt>
      <trkpt lat="49.53941" lon="5.71477">
        <ele>386</ele>
        <time>2017-05-30T05:00:33Z</time>
      </trkpt>
      <trkpt lat="49.5395" lon="5.71474">
        <ele>386</ele>
        <time>2017-05-30T05:02:33Z</time>
      </trkpt>
      <trkpt lat="49.53967" lon="5.71467">
        <ele>388</ele>
        <time>2017-05-30T05:04:33Z</time>
      </trkpt>
      <trkpt lat="49.53976" lon="5.71462">
        <ele>388</ele>
        <time>2017-05-30T05:06:33Z</time>
      </trkpt>
      <trkpt lat="49.53985" lon="5.71454">
        <ele>389</ele>
        <time>2017-05-30T05:08:33Z</time>
      </trkpt>
      <trkpt lat="49.53994" lon="5.71451">
        <ele>389</ele>
        <time>2017-05-30T05:10:33Z</time>
      </trkpt>
      <trkpt lat="49.5401" lon="5.71441">
        <ele>389</ele>
        <time>2017-05-30T05:12:33Z</time>
      </trkpt>
      <trkpt lat="49.54016" lon="5.71438">
        <ele>389</ele>
        <time>2017-05-30T05:14:33Z</time>
      </trkpt>
      <trkpt lat="49.54025" lon="5.71433">
        <ele>389</ele>
        <time>2017-05-30T05:16:33Z</time>
      </trkpt>
      <trkpt lat="49.54032" lon="5.71424">
        <ele>389</ele>
        <time>2017-05-30T05:18:33Z</time>
      </trkpt>
      <trkpt lat="49.54036" lon="5.7142">
        <ele>389</ele>
        <time>2017-05-30T05:20:33Z</time>
      </trkpt>
      <trkpt lat="49.54043" lon="5.71413">
        <ele>388</ele>
        <time>2017-05-30T05:22:33Z</time>
      </trkpt>
      <trkpt lat="49.54075" lon="5.71371">
        <ele>386</ele>
        <time>2017-05-30T05:24:33Z</time>
      </trkpt>
      <trkpt lat="49.54089" lon="5.71351">
        <ele>386</ele>
        <time>2017-05-30T05:26:33Z</time>
      </trkpt>
      <trkpt lat="49.54123" lon="5.71291">
        <ele>386</ele>
        <time>2017-05-30T05:28:33Z</time>
      </trkpt>
      <trkpt lat="49.54139" lon="5.71267">
        <ele>387</ele>
        <time>2017-05-30T05:30:33Z</time>
      </trkpt>
      <trkpt lat="49.54149" lon="5.71259">
        <ele>387</ele>
        <time>2017-05-30T05:32:33Z</time>
      </trkpt>
      <trkpt lat="49.54149" lon="5.71252">
        <ele>387</ele>
        <time>2017-05-30T05:34:33Z</time>
      </trkpt>
      <trkpt lat="49.5414" lon="5.71241">
        <ele>386</ele>
        <time>2017-05-30T05:36:33Z</time>
      </trkpt>
      <trkpt lat="49.54134" lon="5.71235">
        <ele>385</ele>
        <time>2017-05-30T05:38:33Z</time>
      </trkpt>
      <trkpt lat="49.5412" lon="5.71228">
        <ele>385</ele>
        <time>2017-05-30T05:40:33Z</time>
      </trkpt>
      <trkpt lat="49.54095" lon="5.71228">
        <ele>384</ele>
        <time>2017-05-30T05:42:33Z</time>
      </trkpt>
      <trkpt lat="49.54079" lon="5.71226">
        <ele>383</ele>
        <time>2017-05-30T05:44:33Z</time>
      </trkpt>
      <trkpt lat="49.54061" lon="5.71223">
        <ele>383</ele>
        <time>2017-05-30T05:46:33Z</time>
      </trkpt>
      <trkpt lat="49.54043" lon="5.71217">
        <ele>382</ele>
        <time>2017-05-30T05:48:33Z</time>
      </trkpt>
      <trkpt lat="49.54024" lon="5.71211">
        <ele>382</ele>
        <time>2017-05-30T05:50:33Z</time>
      </trkpt>
      <trkpt lat="49.54015" lon="5.71207">
        <ele>381</ele>
        <time>2017-05-30T05:52:33Z</time>
      </trkpt>
      <trkpt lat="49.54006" lon="5.71202">
        <ele>381</ele>
        <time>2017-05-30T05:54:33Z</time>
      </trkpt>
      <trkpt lat="49.53982" lon="5.71184">
        <ele>379</ele>
        <time>2017-05-30T05:56:33Z</time>
      </trkpt>
      <trkpt lat="49.53967" lon="5.71172">
        <ele>378</ele>
        <time>2017-05-30T05:58:33Z</time>
      </trkpt>
      <trkpt lat="49.53961" lon="5.71165">
        <ele>377</ele>
        <time>2017-05-30T06:00:33Z</time>
      </trkpt>
      <trkpt lat="49.53956" lon="5.71157">
        <ele>377</ele>
        <time>2017-05-30T06:02:33Z</time>
      </trkpt>
      <trkpt lat="49.53952" lon="5.71148">
        <ele>376</ele>
        <time>2017-05-30T06:04:33Z</time>
      </trkpt>
      <trkpt lat="49.5394" lon="5.71115">
        <ele>372</ele>
        <time>2017-05-30T06:06:33Z</time>
      </trkpt>
      <trkpt lat="49.53938" lon="5.71107">
        <ele>371</ele>
        <time>2017-05-30T06:08:33Z</time>
      </trkpt>
      <trkpt lat="49.53936" lon="5.711">
        <ele>370</ele>
        <time>2017-05-30T06:10:33Z</time>
      </trkpt>
      <trkpt lat="49.53929" lon="5.71084">
        <ele>368</ele>
        <time>2017-05-30T06:12:33Z</time>
      </trkpt>
      <trkpt lat="49.53923" lon="5.71075">
        <ele>366</ele>
        <time>2017-05-30T06:14:33Z</time>
      </trkpt>
      <trkpt lat="49.53913" lon="5.71064">
        <ele>365</ele>
        <time>2017-05-30T06:16:33Z</time>
      </trkpt>
      <trkpt lat="49.53899" lon="5.71049">
        <ele>363</ele>
        <time>2017-05-30T06:18:33Z</time>
      </trkpt>
      <trkpt lat="49.53887" lon="5.71041">
        <ele>362</ele>
        <time>2017-05-30T06:20:33Z</time>
      </trkpt>
      <trkpt lat="49.53868" lon="5.71033">
        <ele>360</ele>
        <time>2017-05-30T06:22:33Z</time>
      </trkpt>
      <trkpt lat="49.53833" lon="5.71025">
        <ele>359</ele>
        <time>2017-05-30T06:24:33Z</time>
      </trkpt>
      <trkpt lat="49.53802" lon="5.71019">
        <ele>355</ele>
        <time>2017-05-30T06:26:33Z</time>
      </trkpt>
      <trkpt lat="49.5379" lon="5.71017">
        <ele>354</ele>
        <time>2017-05-30T06:28:33Z</time>
      </trkpt>
      <trkpt lat="49.53779" lon="5.71015">
        <ele>352</ele>
        <time>2017-05-30T06:30:33Z</time>
      </trkpt>
      <trkpt lat="49.53766" lon="5.71015">
        <ele>351</ele>
        <time>2017-05-30T06:32:33Z</time>
      </trkpt>
      <trkpt lat="49.53744" lon="5.71013">
        <ele>348</ele>
        <time>2017-05-30T06:34:33Z</time>
      </trkpt>
      <trkpt lat="49.53738" lon="5.71014">
        <ele>347</ele>
        <time>2017-05-30T06:36:33Z</time>
      </trkpt>
      <trkpt lat="49.53727" lon="5.71013">
        <ele>345</ele>
        <time>2017-05-30T06:38:33Z</time>
      </trkpt>
      <trkpt lat="49.53716" lon="5.71015">
        <ele>342</ele>
        <time>2017-05-30T06:40:33Z</time>
      </trkpt>
      <trkpt lat="49.53704" lon="5.71015">
        <ele>340</ele>
        <time>2017-05-30T06:42:33Z</time>
      </trkpt>
      <trkpt lat="49.53683" lon="5.71017">
        <ele>336</ele>
        <time>2017-05-30T06:44:33Z</time>
      </trkpt>
      <trkpt lat="49.53671" lon="5.71016">
        <ele>333</ele>
        <time>2017-05-30T06:46:33Z</time>
      </trkpt>
      <trkpt lat="49.53663" lon="5.71015">
        <ele>331</ele>
        <time>2017-05-30T06:48:33Z</time>
      </trkpt>
      <trkpt lat="49.53656" lon="5.71013">
        <ele>329</ele>
        <time>2017-05-30T06:50:33Z</time>
      </trkpt>
      <trkpt lat="49.53655" lon="5.7101">
        <ele>329</ele>
        <time>2017-05-30T06:52:33Z</time>
      </trkpt>
      <trkpt lat="49.53654" lon="5.71002">
        <ele>328</ele>
        <time>2017-05-30T06:54:33Z</time>
      </trkpt>
      <trkpt lat="49.53664" lon="5.70982">
        <ele>329</ele>
        <time>2017-05-30T06:56:33Z</time>
      </trkpt>
      <trkpt lat="49.53676" lon="5.70953">
        <ele>329</ele>
        <time>2017-05-30T06:58:33Z</time>
      </trkpt>
      <trkpt lat="49.53687" lon="5.70911">
        <ele>327</ele>
        <time>2017-05-30T07:00:33Z</time>
      </trkpt>
      <trkpt lat="49.53695" lon="5.7089">
        <ele>325</ele>
        <time>2017-05-30T07:02:33Z</time>
      </trkpt>
      <trkpt lat="49.5371" lon="5.70854">
        <ele>323</ele>
        <time>2017-05-30T07:04:33Z</time>
      </trkpt>
      <trkpt lat="49.53722" lon="5.70829">
        <ele>322</ele>
        <time>2017-05-30T07:06:33Z</time>
      </trkpt>
      <trkpt lat="49.53731" lon="5.70819">
        <ele>322</ele>
        <time>2017-05-30T07:08:33Z</time>
      </trkpt>
      <trkpt lat="49.53743" lon="5.70809">
        <ele>323</ele>
        <time>2017-05-30T07:10:33Z</time>
      </trkpt>
      <trkpt lat="49.53761" lon="5.70796">
        <ele>322</ele>
        <time>2017-05-30T07:12:33Z</time>
      </trkpt>
      <trkpt lat="49.53774" lon="5.70794">
        <ele>322</ele>
        <time>2017-05-30T07:14:33Z</time>
      </trkpt>
      <trkpt lat="49.53795" lon="5.70796">
        <ele>322</ele>
        <time>2017-05-30T07:16:33Z</time>
      </trkpt>
      <trkpt lat="49.53808" lon="5.70797">
        <ele>323</ele>
        <time>2017-05-30T07:18:33Z</time>
      </trkpt>
      <trkpt lat="49.53824" lon="5.708">
        <ele>324</ele>
        <time>2017-05-30T07:20:33Z</time>
      </trkpt>
      <trkpt lat="49.5383" lon="5.70802">
        <ele>324</ele>
        <time>2017-05-30T07:22:33Z</time>
      </trkpt>
      <trkpt lat="49.53845" lon="5.70803">
        <ele>325</ele>
        <time>2017-05-30T07:24:33Z</time>
      </trkpt>
      <trkpt lat="49.5385" lon="5.70802">
        <ele>324</ele>
        <time>2017-05-30T07:26:33Z</time>
      </trkpt>
      <trkpt lat="49.5386" lon="5.70799">
        <ele>324</ele>
        <time>2017-05-30T07:28:33Z</time>
      </trkpt>
      <trkpt lat="49.5387" lon="5.708">
        <ele>324</ele>
        <time>2017-05-30T07:30:33Z</time>
      </trkpt>
      <trkpt lat="49.53879" lon="5.70794">
        <ele>323</ele>
        <time>2017-05-30T07:32:33Z</time>
      </trkpt>
      <trkpt lat="49.53893" lon="5.70783">
        <ele>322</ele>
        <time>2017-05-30T07:34:33Z</time>
      </trkpt>
      <trkpt lat="49.53898" lon="5.70773">
        <ele>320</ele>
        <time>2017-05-30T07:36:33Z</time>
      </trkpt>
      <trkpt lat="49.53904" lon="5.70758">
        <ele>318</ele>
        <time>2017-05-30T07:38:33Z</time>
      </trkpt>
      <trkpt lat="49.53911" lon="5.70736">
        <ele>314</ele>
        <time>2017-05-30T07:40:33Z</time>
      </trkpt>
      <trkpt lat="49.5392" lon="5.70714">
        <ele>311</ele>
        <time>2017-05-30T07:42:33Z</time>
      </trkpt>
      <trkpt lat="49.5393" lon="5.70704">
        <ele>310</ele>
        <time>2017-05-30T07:44:33Z</time>
      </trkpt>
      <trkpt lat="49.53941" lon="5.70699">
        <ele>310</ele>
        <time>2017-05-30T07:46:33Z</time>
      </trkpt>
      <trkpt lat="49.53959" lon="5.70696">
        <ele>311</ele>
        <time>2017-05-30T07:48:33Z</time>
      </trkpt>
      <trkpt lat="49.53982" lon="5.70695">
        <ele>314</ele>
        <time>2017-05-30T07:50:33Z</time>
      </trkpt>
      <trkpt lat="49.53998" lon="5.70698">
        <ele>316</ele>
        <time>2017-05-30T07:52:33Z</time>
      </trkpt>
      <trkpt lat="49.54003" lon="5.70697">
        <ele>316</ele>
        <time>2017-05-30T07:54:33Z</time>
      </trkpt>
      <trkpt lat="49.54015" lon="5.707">
        <ele>316</ele>
        <time>2017-05-30T07:56:33Z</time>
      </trkpt>
      <trkpt lat="49.54027" lon="5.70702">
        <ele>315</ele>
        <time>2017-05-30T07:58:33Z</time>
      </trkpt>
      <trkpt lat="49.54044" lon="5.7071">
        <ele>316</ele>
        <time>2017-05-30T08:00:33Z</time>
      </trkpt>
      <trkpt lat="49.54054" lon="5.70721">
        <ele>318</ele>
        <time>2017-05-30T08:02:33Z</time>
      </trkpt>
      <trkpt lat="49.54059" lon="5.70727">
        <ele>319</ele>
        <time>2017-05-30T08:04:33Z</time>
      </trkpt>
      <trkpt lat="49.54068" lon="5.70735">
        <ele>320</ele>
        <time>2017-05-30T08:06:33Z</time>
      </trkpt>
      <trkpt lat="49.54088" lon="5.70745">
        <ele>322</ele>
        <time>2017-05-30T08:08:33Z</time>
      </trkpt>
      <trkpt lat="49.54093" lon="5.70749">
        <ele>322</ele>
        <time>2017-05-30T08:10:33Z</time>
      </trkpt>
      <trkpt lat="49.5411" lon="5.70764">
        <ele>322</ele>
        <time>2017-05-30T08:12:33Z</time>
      </trkpt>
      <trkpt lat="49.54127" lon="5.70788">
        <ele>324</ele>
        <time>2017-05-30T08:14:33Z</time>
      </trkpt>
      <trkpt lat="49.54141" lon="5.70812">
        <ele>325</ele>
        <time>2017-05-30T08:16:33Z</time>
      </trkpt>
      <trkpt lat="49.54154" lon="5.70828">
        <ele>325</ele>
        <time>2017-05-30T08:18:33Z</time>
      </trkpt>
      <trkpt lat="49.54161" lon="5.7084">
        <ele>325</ele>
        <time>2017-05-30T08:20:33Z</time>
      </trkpt>
      <trkpt lat="49.54165" lon="5.70847">
        <ele>326</ele>
        <time>2017-05-30T08:22:33Z</time>
      </trkpt>
      <trkpt lat="49.5417" lon="5.70865">
        <ele>329</ele>
        <time>2017-05-30T08:24:33Z</time>
      </trkpt>
      <trkpt lat="49.54181" lon="5.70893">
        <ele>333</ele>
        <time>2017-05-30T08:26:33Z</time>
      </trkpt>
      <trkpt lat="49.54184" lon="5.70901">
        <ele>334</ele>
        <time>2017-05-30T08:28:33Z</time>
      </trkpt>
      <trkpt lat="49.54192" lon="5.70915">
        <ele>335</ele>
        <time>2017-05-30T08:30:33Z</time>
      </trkpt>
      <trkpt lat="49.54199" lon="5.70928">
        <ele>337</ele>
        <time>2017-05-30T08:32:33Z</time>
      </trkpt>
      <trkpt lat="49.54215" lon="5.70956">
        <ele>338</ele>
        <time>2017-05-30T08:34:33Z</time>
      </trkpt>
      <trkpt lat="49.54227" lon="5.70981">
        <ele>339</ele>
        <time>2017-05-30T08:36:33Z</time>
      </trkpt>
      <trkpt lat="49.54238" lon="5.71004">
        <ele>339</ele>
        <time>2017-05-30T08:38:33Z</time>
      </trkpt>
      <trkpt lat="49.54252" lon="5.7103">
        <ele>340</ele>
        <time>2017-05-30T08:40:33Z</time>
      </trkpt>
      <trkpt lat="49.54263" lon="5.71053">
        <ele>343</ele>
        <time>2017-05-30T08:42:33Z</time>
      </trkpt>
      <trkpt lat="49.54275" lon="5.71074">
        <ele>344</ele>
        <time>2017-05-30T08:44:33Z</time>
      </trkpt>
      <trkpt lat="49.54287" lon="5.71097">
        <ele>345</ele>
        <time>2017-05-30T08:46:33Z</time>
      </trkpt>
      <trkpt lat="49.543" lon="5.71117">
        <ele>345</ele>
        <time>2017-05-30T08:48:33Z</time>
      </trkpt>
      <trkpt lat="49.5431" lon="5.7113">
        <ele>344</ele>
        <time>2017-05-30T08:50:33Z</time>
      </trkpt>
      <trkpt lat="49.54326" lon="5.71153">
        <ele>342</ele>
        <time>2017-05-30T08:52:33Z</time>
      </trkpt>
      <trkpt lat="49.5433" lon="5.71158">
        <ele>341</ele>
        <time>2017-05-30T08:54:33Z</time>
      </trkpt>
      <trkpt lat="49.54336" lon="5.71172">
        <ele>342</ele>
        <time>2017-05-30T08:56:33Z</time>
      </trkpt>
      <trkpt lat="49.54345" lon="5.71196">
        <ele>345</ele>
        <time>2017-05-30T08:58:33Z</time>
      </trkpt>
      <trkpt lat="49.54354" lon="5.71225">
        <ele>348</ele>
        <time>2017-05-30T09:00:33Z</time>
      </trkpt>
      <trkpt lat="49.54357" lon="5.71232">
        <ele>348</ele>
        <time>2017-05-30T09:02:33Z</time>
      </trkpt>
      <trkpt lat="49.54375" lon="5.71264">
        <ele>351</ele>
        <time>2017-05-30T09:04:33Z</time>
      </trkpt>
      <trkpt lat="49.54384" lon="5.71276">
        <ele>351</ele>
        <time>2017-05-30T09:06:33Z</time>
      </trkpt>
      <trkpt lat="49.54396" lon="5.71281">
        <ele>351</ele>
        <time>2017-05-30T09:08:33Z</time>
      </trkpt>
      <trkpt lat="49.54406" lon="5.7128">
        <ele>350</ele>
        <time>2017-05-30T09:10:33Z</time>
      </trkpt>
      <trkpt lat="49.54413" lon="5.71263">
        <ele>348</ele>
        <time>2017-05-30T09:12:33Z</time>
      </trkpt>
      <trkpt lat="49.54413" lon="5.71246">
        <ele>347</ele>
        <time>2017-05-30T09:14:33Z</time>
      </trkpt>
      <trkpt lat="49.54406" lon="5.71226">
        <ele>348</ele>
        <time>2017-05-30T09:16:33Z</time>
      </trkpt>
      <trkpt lat="49.54396" lon="5.712">
        <ele>349</ele>
        <time>2017-05-30T09:18:33Z</time>
      </trkpt>
      <trkpt lat="49.54394" lon="5.71196">
        <ele>349</ele>
        <time>2017-05-30T09:20:33Z</time>
      </trkpt>
      <trkpt lat="49.54393" lon="5.71196">
        <ele>349</ele>
        <time>2017-05-30T09:22:33Z</time>
      </trkpt>
      <trkpt lat="49.54389" lon="5.71175">
        <ele>348</ele>
        <time>2017-05-30T09:24:33Z</time>
      </trkpt>
      <trkpt lat="49.54382" lon="5.71147">
        <ele>348</ele>
        <time>2017-05-30T09:26:33Z</time>
      </trkpt>
      <trkpt lat="49.5438" lon="5.71139">
        <ele>348</ele>
        <time>2017-05-30T09:28:33Z</time>
      </trkpt>
      <trkpt lat="49.54372" lon="5.71119">
        <ele>348</ele>
        <time>2017-05-30T09:30:33Z</time>
      </trkpt>
      <trkpt lat="49.54369" lon="5.71109">
        <ele>347</ele>
        <time>2017-05-30T09:32:33Z</time>
      </trkpt>
      <trkpt lat="49.54352" lon="5.71073">
        <ele>343</ele>
        <time>2017-05-30T09:34:33Z</time>
      </trkpt>
      <trkpt lat="49.54321" lon="5.71013">
        <ele>338</ele>
        <time>2017-05-30T09:36:33Z</time>
      </trkpt>
      <trkpt lat="49.54316" lon="5.70999">
        <ele>338</ele>
        <time>2017-05-30T09:38:33Z</time>
      </trkpt>
      <trkpt lat="49.54308" lon="5.70971">
        <ele>337</ele>
        <time>2017-05-30T09:40:33Z</time>
      </trkpt>
      <trkpt lat="49.54292" lon="5.70912">
        <ele>335</ele>
        <time>2017-05-30T09:42:33Z</time>
      </trkpt>
      <trkpt lat="49.54283" lon="5.70884">
        <ele>333</ele>
        <time>2017-05-30T09:44:33Z</time>
      </trkpt>
      <trkpt lat="49.54278" lon="5.70871">
        <ele>332</ele>
        <time>2017-05-30T09:46:33Z</time>
      </trkpt>
      <trkpt lat="49.54266" lon="5.70844">
        <ele>329</ele>
        <time>2017-05-30T09:48:33Z</time>
      </trkpt>
      <trkpt lat="49.54259" lon="5.7083">
        <ele>327</ele>
        <time>2017-05-30T09:50:33Z</time>
      </trkpt>
      <trkpt lat="49.54245" lon="5.70801">
        <ele>326</ele>
        <time>2017-05-30T09:52:33Z</time>
      </trkpt>
      <trkpt lat="49.54229" lon="5.70768">
        <ele>325</ele>
        <time>2017-05-30T09:54:33Z</time>
      </trkpt>
      <trkpt lat="49.54185" lon="5.70679">
        <ele>320</ele>
        <time>2017-05-30T09:56:33Z</time>
      </trkpt>
      <trkpt lat="49.5417" lon="5.70648">
        <ele>317</ele>
        <time>2017-05-30T09:58:33Z</time>
      </trkpt>
      <trkpt lat="49.54155" lon="5.70615">
        <ele>315</ele>
        <time>2017-05-30T10:00:33Z</time>
      </trkpt>
      <trkpt lat="49.54139" lon="5.70582">
        <ele>311</ele>
        <time>2017-05-30T10:02:33Z</time>
      </trkpt>
      <trkpt lat="49.54117" lon="5.70538">
        <ele>311</ele>
        <time>2017-05-30T10:04:33Z</time>
      </trkpt>
      <trkpt lat="49.5411" lon="5.70525">
        <ele>310</ele>
        <time>2017-05-30T10:06:33Z</time>
      </trkpt>
      <trkpt lat="49.54091" lon="5.705">
        <ele>309</ele>
        <time>2017-05-30T10:08:33Z</time>
      </trkpt>
      <trkpt lat="49.54088" lon="5.70482">
        <ele>311</ele>
        <time>2017-05-30T10:10:33Z</time>
      </trkpt>
      <trkpt lat="49.5409" lon="5.70465">
        <ele>313</ele>
        <time>2017-05-30T10:12:33Z</time>
      </trkpt>
      <trkpt lat="49.54092" lon="5.70457">
        <ele>315</ele>
        <time>2017-05-30T10:14:33Z</time>
      </trkpt>
      <trkpt lat="49.54099" lon="5.7044">
        <ele>319</ele>
        <time>2017-05-30T10:16:33Z</time>
      </trkpt>
      <trkpt lat="49.54102" lon="5.70431">
        <ele>321</ele>
        <time>2017-05-30T10:18:33Z</time>
      </trkpt>
      <trkpt lat="49.54104" lon="5.70421">
        <ele>323</ele>
        <time>2017-05-30T10:20:33Z</time>
      </trkpt>
      <trkpt lat="49.54103" lon="5.70412">
        <ele>323</ele>
        <time>2017-05-30T10:22:33Z</time>
      </trkpt>
      <trkpt lat="49.54094" lon="5.70377">
        <ele>325</ele>
        <time>2017-05-30T10:24:33Z</time>
      </trkpt>
      <trkpt lat="49.54081" lon="5.70333">
        <ele>326</ele>
        <time>2017-05-30T10:26:33Z</time>
      </trkpt>
      <trkpt lat="49.54077" lon="5.70317">
        <ele>327</ele>
        <time>2017-05-30T10:28:33Z</time>
      </trkpt>
      <trkpt lat="49.54064" lon="5.70256">
        <ele>328</ele>
        <time>2017-05-30T10:30:33Z</time>
      </trkpt>
      <trkpt lat="49.54055" lon="5.70213">
        <ele>329</ele>
        <time>2017-05-30T10:32:33Z</time>
      </trkpt>
      <trkpt lat="49.54046" lon="5.70188">
        <ele>330</ele>
        <time>2017-05-30T10:34:33Z</time>
      </trkpt>
      <trkpt lat="49.54031" lon="5.70147">
        <ele>331</ele>
        <time>2017-05-30T10:36:33Z</time>
      </trkpt>
      <trkpt lat="49.54021" lon="5.70114">
        <ele>333</ele>
        <time>2017-05-30T10:38:33Z</time>
      </trkpt>
      <trkpt lat="49.5401" lon="5.70089">
        <ele>334</ele>
        <time>2017-05-30T10:40:33Z</time>
      </trkpt>
      <trkpt lat="49.54009" lon="5.70079">
        <ele>335</ele>
        <time>2017-05-30T10:42:33Z</time>
      </trkpt>
      <trkpt lat="49.54008" lon="5.70069">
        <ele>337</ele>
        <time>2017-05-30T10:44:33Z</time>
      </trkpt>
      <trkpt lat="49.54009" lon="5.7006">
        <ele>338</ele>
        <time>2017-05-30T10:46:33Z</time>
      </trkpt>
      <trkpt lat="49.5401" lon="5.70051">
        <ele>340</ele>
        <time>2017-05-30T10:48:33Z</time>
      </trkpt>
      <trkpt lat="49.54011" lon="5.70042">
        <ele>341</ele>
        <time>2017-05-30T10:50:33Z</time>
      </trkpt>
      <trkpt lat="49.54012" lon="5.70032">
        <ele>343</ele>
        <time>2017-05-30T10:52:33Z</time>
      </trkpt>
      <trkpt lat="49.54019" lon="5.70016">
        <ele>346</ele>
        <time>2017-05-30T10:54:33Z</time>
      </trkpt>
      <trkpt lat="49.54022" lon="5.70005">
        <ele>348</ele>
        <time>2017-05-30T10:56:33Z</time>
      </trkpt>
      <trkpt lat="49.54025" lon="5.69995">
        <ele>350</ele>
        <time>2017-05-30T10:58:33Z</time>
      </trkpt>
      <trkpt lat="49.54028" lon="5.69986">
        <ele>351</ele>
        <time>2017-05-30T11:00:33Z</time>
      </trkpt>
      <trkpt lat="49.54036" lon="5.69972">
        <ele>354</ele>
        <time>2017-05-30T11:02:33Z</time>
      </trkpt>
      <trkpt lat="49.5404" lon="5.69965">
        <ele>356</ele>
        <time>2017-05-30T11:04:33Z</time>
      </trkpt>
      <trkpt lat="49.54047" lon="5.69952">
        <ele>358</ele>
        <time>2017-05-30T11:06:33Z</time>
      </trkpt>
      <trkpt lat="49.54054" lon="5.69937">
        <ele>361</ele>
        <time>2017-05-30T11:08:33Z</time>
      </trkpt>
      <trkpt lat="49.5406" lon="5.69931">
        <ele>362</ele>
        <time>2017-05-30T11:10:33Z</time>
      </trkpt>
      <trkpt lat="49.54065" lon="5.69926">
        <ele>363</ele>
        <time>2017-05-30T11:12:33Z</time>
      </trkpt>
      <trkpt lat="49.5407" lon="5.69922">
        <ele>364</ele>
        <time>2017-05-30T11:14:33Z</time>
      </trkpt>
      <trkpt lat="49.54076" lon="5.69914">
        <ele>365</ele>
        <time>2017-05-30T11:16:33Z</time>
      </trkpt>
      <trkpt lat="49.5408" lon="5.69904">
        <ele>366</ele>
        <time>2017-05-30T11:18:33Z</time>
      </trkpt>
      <trkpt lat="49.54066" lon="5.6989">
        <ele>367</ele>
        <time>2017-05-30T11:20:33Z</time>
      </trkpt>
      <trkpt lat="49.54058" lon="5.69885">
        <ele>367</ele>
        <time>2017-05-30T11:22:33Z</time>
      </trkpt>
      <trkpt lat="49.54054" lon="5.69879">
        <ele>367</ele>
        <time>2017-05-30T11:24:33Z</time>
      </trkpt>
      <trkpt lat="49.54045" lon="5.69871">
        <ele>367</ele>
        <time>2017-05-30T11:26:33Z</time>
      </trkpt>
      <trkpt lat="49.5404" lon="5.69867">
        <ele>367</ele>
        <time>2017-05-30T11:28:33Z</time>
      </trkpt>
      <trkpt lat="49.54035" lon="5.69864">
        <ele>368</ele>
        <time>2017-05-30T11:30:33Z</time>
      </trkpt>
      <trkpt lat="49.54018" lon="5.69855">
        <ele>368</ele>
        <time>2017-05-30T11:32:33Z</time>
      </trkpt>
      <trkpt lat="49.54009" lon="5.69849">
        <ele>368</ele>
        <time>2017-05-30T11:34:33Z</time>
      </trkpt>
      <trkpt lat="49.53999" lon="5.69844">
        <ele>368</ele>
        <time>2017-05-30T11:36:33Z</time>
      </trkpt>
      <trkpt lat="49.53984" lon="5.69829">
        <ele>367</ele>
        <time>2017-05-30T11:38:33Z</time>
      </trkpt>
      <trkpt lat="49.53983" lon="5.69823">
        <ele>368</ele>
        <time>2017-05-30T11:40:33Z</time>
      </trkpt>
      <trkpt lat="49.53985" lon="5.6982">
        <ele>368</ele>
        <time>2017-05-30T11:42:33Z</time>
      </trkpt>
      <trkpt lat="49.53987" lon="5.69811">
        <ele>369</ele>
        <time>2017-05-30T11:44:33Z</time>
      </trkpt>
      <trkpt lat="49.53987" lon="5.69805">
        <ele>369</ele>
        <time>2017-05-30T11:46:33Z</time>
      </trkpt>
      <trkpt lat="49.53992" lon="5.69779">
        <ele>372</ele>
        <time>2017-05-30T11:48:33Z</time>
      </trkpt>
      <trkpt lat="49.54" lon="5.69758">
        <ele>374</ele>
        <time>2017-05-30T11:50:33Z</time>
      </trkpt>
      <trkpt lat="49.54009" lon="5.69729">
        <ele>377</ele>
        <time>2017-05-30T11:52:33Z</time>
      </trkpt>
      <trkpt lat="49.54013" lon="5.69714">
        <ele>378</ele>
        <time>2017-05-30T11:54:33Z</time>
      </trkpt>
      <trkpt lat="49.54021" lon="5.69694">
        <ele>379</ele>
        <time>2017-05-30T11:56:33Z</time>
      </trkpt>
      <trkpt lat="49.54024" lon="5.69682">
        <ele>380</ele>
        <time>2017-05-30T11:58:33Z</time>
      </trkpt>
      <trkpt lat="49.5402" lon="5.69675">
        <ele>380</ele>
        <time>2017-05-30T12:00:33Z</time>
      </trkpt>
      <trkpt lat="49.53995" lon="5.69663">
        <ele>379</ele>
        <time>2017-05-30T12:02:33Z</time>
      </trkpt>
      <trkpt lat="49.53982" lon="5.69653">
        <ele>378</ele>
        <time>2017-05-30T12:04:33Z</time>
      </trkpt>
      <trkpt lat="49.53981" lon="5.69645">
        <ele>378</ele>
        <time>2017-05-30T12:06:33Z</time>
      </trkpt>
      <trkpt lat="49.53982" lon="5.69635">
        <ele>378</ele>
        <time>2017-05-30T12:08:33Z</time>
      </trkpt>
      <trkpt lat="49.53986" lon="5.69622">
        <ele>379</ele>
        <time>2017-05-30T12:10:33Z</time>
      </trkpt>
      <trkpt lat="49.53989" lon="5.69602">
        <ele>381</ele>
        <time>2017-05-30T12:12:33Z</time>
      </trkpt>
      <trkpt lat="49.5399" lon="5.69589">
        <ele>381</ele>
        <time>2017-05-30T12:14:33Z</time>
      </trkpt>
      <trkpt lat="49.53993" lon="5.69575">
        <ele>382</ele>
        <time>2017-05-30T12:16:33Z</time>
      </trkpt>
      <trkpt lat="49.54004" lon="5.69526">
        <ele>383</ele>
        <time>2017-05-30T12:18:33Z</time>
      </trkpt>
      <trkpt lat="49.54009" lon="5.69492">
        <ele>383</ele>
        <time>2017-05-30T12:20:33Z</time>
      </trkpt>
      <trkpt lat="49.54013" lon="5.69471">
        <ele>382</ele>
        <time>2017-05-30T12:22:33Z</time>
      </trkpt>
      <trkpt lat="49.54021" lon="5.69442">
        <ele>381</ele>
        <time>2017-05-30T12:24:33Z</time>
      </trkpt>
      <trkpt lat="49.54025" lon="5.69418">
        <ele>381</ele>
        <time>2017-05-30T12:26:33Z</time>
      </trkpt>
      <trkpt lat="49.54034" lon="5.69394">
        <ele>380</ele>
        <time>2017-05-30T12:28:33Z</time>
      </trkpt>
      <trkpt lat="49.5404" lon="5.69374">
        <ele>379</ele>
        <time>2017-05-30T12:30:33Z</time>
      </trkpt>
      <trkpt lat="49.54047" lon="5.69328">
        <ele>377</ele>
        <time>2017-05-30T12:32:33Z</time>
      </trkpt>
      <trkpt lat="49.54049" lon="5.69313">
        <ele>376</ele>
        <time>2017-05-30T12:34:33Z</time>
      </trkpt>
      <trkpt lat="49.54052" lon="5.69298">
        <ele>374</ele>
        <time>2017-05-30T12:36:33Z</time>
      </trkpt>
      <trkpt lat="49.54054" lon="5.69286">
        <ele>373</ele>
        <time>2017-05-30T12:38:33Z</time>
      </trkpt>
      <trkpt lat="49.54055" lon="5.69278">
        <ele>372</ele>
        <time>2017-05-30T12:40:33Z</time>
      </trkpt>
      <trkpt lat="49.54059" lon="5.69249">
        <ele>368</ele>
        <time>2017-05-30T12:42:33Z</time>
      </trkpt>
      <trkpt lat="49.54061" lon="5.69242">
        <ele>367</ele>
        <time>2017-05-30T12:44:33Z</time>
      </trkpt>
      <trkpt lat="49.54066" lon="5.69214">
        <ele>363</ele>
        <time>2017-05-30T12:46:33Z</time>
      </trkpt>
      <trkpt lat="49.54069" lon="5.69201">
        <ele>361</ele>
        <time>2017-05-30T12:48:33Z</time>
      </trkpt>
      <trkpt lat="49.5407" lon="5.69195">
        <ele>360</ele>
        <time>2017-05-30T12:50:33Z</time>
      </trkpt>
      <trkpt lat="49.5407" lon="5.69189">
        <ele>359</ele>
        <time>2017-05-30T12:52:33Z</time>
      </trkpt>
      <trkpt lat="49.54072" lon="5.69178">
        <ele>357</ele>
        <time>2017-05-30T12:54:33Z</time>
      </trkpt>
      <trkpt lat="49.54073" lon="5.69174">
        <ele>357</ele>
        <time>2017-05-30T12:56:33Z</time>
      </trkpt>
      <trkpt lat="49.54074" lon="5.6917">
        <ele>356</ele>
        <time>2017-05-30T12:58:33Z</time>
      </trkpt>
      <trkpt lat="49.54077" lon="5.69153">
        <ele>353</ele>
        <time>2017-05-30T13:00:33Z</time>
      </trkpt>
      <trkpt lat="49.54078" lon="5.69148">
        <ele>352</ele>
        <time>2017-05-30T13:02:33Z</time>
      </trkpt>
      <trkpt lat="49.54079" lon="5.69133">
        <ele>349</ele>
        <time>2017-05-30T13:04:33Z</time>
      </trkpt>
      <trkpt lat="49.54079" lon="5.69129">
        <ele>348</ele>
        <time>2017-05-30T13:06:33Z</time>
      </trkpt>
      <trkpt lat="49.5408" lon="5.69126">
        <ele>348</ele>
        <time>2017-05-30T13:08:33Z</time>
      </trkpt>
      <trkpt lat="49.5408" lon="5.69122">
        <ele>347</ele>
        <time>2017-05-30T13:10:33Z</time>
      </trkpt>
      <trkpt lat="49.5408" lon="5.69118">
        <ele>346</ele>
        <time>2017-05-30T13:12:33Z</time>
      </trkpt>
      <trkpt lat="49.5407" lon="5.69108">
        <ele>345</ele>
        <time>2017-05-30T13:14:33Z</time>
      </trkpt>
      <trkpt lat="49.54049" lon="5.69102">
        <ele>345</ele>
        <time>2017-05-30T13:16:33Z</time>
      </trkpt>
      <trkpt lat="49.54026" lon="5.69092">
        <ele>344</ele>
        <time>2017-05-30T13:18:33Z</time>
      </trkpt>
      <trkpt lat="49.54002" lon="5.6908">
        <ele>343</ele>
        <time>2017-05-30T13:20:33Z</time>
      </trkpt>
      <trkpt lat="49.53989" lon="5.69078">
        <ele>342</ele>
        <time>2017-05-30T13:22:33Z</time>
      </trkpt>
      <trkpt lat="49.53983" lon="5.69077">
        <ele>341</ele>
        <time>2017-05-30T13:24:33Z</time>
      </trkpt>
      <trkpt lat="49.53973" lon="5.69081">
        <ele>341</ele>
        <time>2017-05-30T13:26:33Z</time>
      </trkpt>
      <trkpt lat="49.53963" lon="5.69086">
        <ele>341</ele>
        <time>2017-05-30T13:28:33Z</time>
      </trkpt>
      <trkpt lat="49.53949" lon="5.69095">
        <ele>341</ele>
        <time>2017-05-30T13:30:33Z</time>
      </trkpt>
      <trkpt lat="49.53937" lon="5.69104">
        <ele>341</ele>
        <time>2017-05-30T13:32:33Z</time>
      </trkpt>
      <trkpt lat="49.53913" lon="5.69139">
        <ele>341</ele>
        <time>2017-05-30T13:34:33Z</time>
      </trkpt>
      <trkpt lat="49.53897" lon="5.69173">
        <ele>341</ele>
        <time>2017-05-30T13:36:33Z</time>
      </trkpt>
      <trkpt lat="49.53887" lon="5.69201">
        <ele>342</ele>
        <time>2017-05-30T13:38:33Z</time>
      </trkpt>
      <trkpt lat="49.53868" lon="5.69262">
        <ele>343</ele>
        <time>2017-05-30T13:40:33Z</time>
      </trkpt>
      <trkpt lat="49.53855" lon="5.69295">
        <ele>342</ele>
        <time>2017-05-30T13:42:33Z</time>
      </trkpt>
      <trkpt lat="49.53852" lon="5.69313">
        <ele>342</ele>
        <time>2017-05-30T13:44:33Z</time>
      </trkpt>
      <trkpt lat="49.5385" lon="5.69322">
        <ele>342</ele>
        <time>2017-05-30T13:46:33Z</time>
      </trkpt>
      <trkpt lat="49.53849" lon="5.69331">
        <ele>342</ele>
        <time>2017-05-30T13:48:33Z</time>
      </trkpt>
      <trkpt lat="49.53846" lon="5.69375">
        <ele>342</ele>
        <time>2017-05-30T13:50:33Z</time>
      </trkpt>
      <trkpt lat="49.53845" lon="5.69389">
        <ele>341</ele>
        <time>2017-05-30T13:52:33Z</time>
      </trkpt>
      <trkpt lat="49.53842" lon="5.69416">
        <ele>341</ele>
        <time>2017-05-30T13:54:33Z</time>
      </trkpt>
      <trkpt lat="49.53828" lon="5.69448">
        <ele>338</ele>
        <time>2017-05-30T13:56:33Z</time>
      </trkpt>
      <trkpt lat="49.53816" lon="5.69469">
        <ele>337</ele>
        <time>2017-05-30T13:58:33Z</time>
      </trkpt>
      <trkpt lat="49.53802" lon="5.69487">
        <ele>334</ele>
        <time>2017-05-30T14:00:33Z</time>
      </trkpt>
      <trkpt lat="49.53782" lon="5.69503">
        <ele>330</ele>
        <time>2017-05-30T14:02:33Z</time>
      </trkpt>
      <trkpt lat="49.53776" lon="5.69509">
        <ele>329</ele>
        <time>2017-05-30T14:04:33Z</time>
      </trkpt>
      <trkpt lat="49.53769" lon="5.69515">
        <ele>327</ele>
        <time>2017-05-30T14:06:33Z</time>
      </trkpt>
      <trkpt lat="49.53759" lon="5.69527">
        <ele>326</ele>
        <time>2017-05-30T14:08:33Z</time>
      </trkpt>
      <trkpt lat="49.53754" lon="5.69547">
        <ele>325</ele>
        <time>2017-05-30T14:10:33Z</time>
      </trkpt>
      <trkpt lat="49.53748" lon="5.69588">
        <ele>325</ele>
        <time>2017-05-30T14:12:33Z</time>
      </trkpt>
      <trkpt lat="49.53746" lon="5.69602">
        <ele>325</ele>
        <time>2017-05-30T14:14:33Z</time>
      </trkpt>
      <trkpt lat="49.53745" lon="5.69617">
        <ele>324</ele>
        <time>2017-05-30T14:16:33Z</time>
      </trkpt>
      <trkpt lat="49.53744" lon="5.69643">
        <ele>324</ele>
        <time>2017-05-30T14:18:33Z</time>
      </trkpt>
      <trkpt lat="49.53745" lon="5.69672">
        <ele>324</ele>
        <time>2017-05-30T14:20:33Z</time>
      </trkpt>
      <trkpt lat="49.53748" lon="5.69744">
        <ele>323</ele>
        <time>2017-05-30T14:22:33Z</time>
      </trkpt>
      <trkpt lat="49.53753" lon="5.69776">
        <ele>323</ele>
        <time>2017-05-30T14:24:33Z</time>
      </trkpt>
      <trkpt lat="49.53758" lon="5.69807">
        <ele>323</ele>
        <time>2017-05-30T14:26:33Z</time>
      </trkpt>
      <trkpt lat="49.53758" lon="5.6984">
        <ele>322</ele>
        <time>2017-05-30T14:28:33Z</time>
      </trkpt>
      <trkpt lat="49.53754" lon="5.69845">
        <ele>320</ele>
        <time>2017-05-30T14:30:33Z</time>
      </trkpt>
      <trkpt lat="49.53747" lon="5.69849">
        <ele>318</ele>
        <time>2017-05-30T14:32:33Z</time>
      </trkpt>
      <trkpt lat="49.53733" lon="5.69857">
        <ele>315</ele>
        <time>2017-05-30T14:34:33Z</time>
      </trkpt>
      <trkpt lat="49.53725" lon="5.69863">
        <ele>314</ele>
        <time>2017-05-30T14:36:33Z</time>
      </trkpt>
      <trkpt lat="49.5371" lon="5.69872">
        <ele>310</ele>
        <time>2017-05-30T14:38:33Z</time>
      </trkpt>
      <trkpt lat="49.53686" lon="5.69881">
        <ele>306</ele>
        <time>2017-05-30T14:40:33Z</time>
      </trkpt>
      <trkpt lat="49.53671" lon="5.69882">
        <ele>303</ele>
        <time>2017-05-30T14:42:33Z</time>
      </trkpt>
      <trkpt lat="49.53665" lon="5.69884">
        <ele>302</ele>
        <time>2017-05-30T14:44:33Z</time>
      </trkpt>
      <trkpt lat="49.53659" lon="5.69889">
        <ele>301</ele>
        <time>2017-05-30T14:46:33Z</time>
      </trkpt>
      <trkpt lat="49.53655" lon="5.69896">
        <ele>301</ele>
        <time>2017-05-30T14:48:33Z</time>
      </trkpt>
      <trkpt lat="49.53652" lon="5.69905">
        <ele>300</ele>
        <time>2017-05-30T14:50:33Z</time>
      </trkpt>
      <trkpt lat="49.53649" lon="5.69916">
        <ele>300</ele>
        <time>2017-05-30T14:52:33Z</time>
      </trkpt>
      <trkpt lat="49.53632" lon="5.69976">
        <ele>296</ele>
        <time>2017-05-30T14:54:33Z</time>
      </trkpt>
      <trkpt lat="49.5362" lon="5.70021">
        <ele>294</ele>
        <time>2017-05-30T14:56:33Z</time>
      </trkpt>
      <trkpt lat="49.53611" lon="5.70057">
        <ele>292</ele>
        <time>2017-05-30T14:58:33Z</time>
      </trkpt>
      <trkpt lat="49.53602" lon="5.70085">
        <ele>291</ele>
        <time>2017-05-30T15:00:33Z</time>
      </trkpt>
      <trkpt lat="49.5359" lon="5.70117">
        <ele>288</ele>
        <time>2017-05-30T15:02:33Z</time>
      </trkpt>
      <trkpt lat="49.5358" lon="5.70148">
        <ele>285</ele>
        <time>2017-05-30T15:04:33Z</time>
      </trkpt>
      <trkpt lat="49.53571" lon="5.70172">
        <ele>283</ele>
        <time>2017-05-30T15:06:33Z</time>
      </trkpt>
      <trkpt lat="49.53569" lon="5.70183">
        <ele>282</ele>
        <time>2017-05-30T15:08:33Z</time>
      </trkpt>
      <trkpt lat="49.53567" lon="5.70194">
        <ele>281</ele>
        <time>2017-05-30T15:10:33Z</time>
      </trkpt>
      <trkpt lat="49.53567" lon="5.70206">
        <ele>280</ele>
        <time>2017-05-30T15:12:33Z</time>
      </trkpt>
      <trkpt lat="49.53569" lon="5.70231">
        <ele>279</ele>
        <time>2017-05-30T15:14:33Z</time>
      </trkpt>
      <trkpt lat="49.53569" lon="5.70252">
        <ele>277</ele>
        <time>2017-05-30T15:16:33Z</time>
      </trkpt>
      <trkpt lat="49.53566" lon="5.70262">
        <ele>276</ele>
        <time>2017-05-30T15:18:33Z</time>
      </trkpt>
      <trkpt lat="49.53562" lon="5.7027">
        <ele>276</ele>
        <time>2017-05-30T15:20:33Z</time>
      </trkpt>
      <trkpt lat="49.53555" lon="5.70279">
        <ele>275</ele>
        <time>2017-05-30T15:22:33Z</time>
      </trkpt>
      <trkpt lat="49.53548" lon="5.70289">
        <ele>273</ele>
        <time>2017-05-30T15:24:33Z</time>
      </trkpt>
      <trkpt lat="49.5354" lon="5.70302">
        <ele>272</ele>
        <time>2017-05-30T15:26:33Z</time>
      </trkpt>
      <trkpt lat="49.53525" lon="5.70331">
        <ele>270</ele>
        <time>2017-05-30T15:28:33Z</time>
      </trkpt>
      <trkpt lat="49.53513" lon="5.70359">
        <ele>269</ele>
        <time>2017-05-30T15:30:33Z</time>
      </trkpt>
      <trkpt lat="49.53507" lon="5.70391">
        <ele>269</ele>
        <time>2017-05-30T15:32:33Z</time>
      </trkpt>
      <trkpt lat="49.53507" lon="5.70443">
        <ele>270</ele>
        <time>2017-05-30T15:34:33Z</time>
      </trkpt>
      <trkpt lat="49.53501" lon="5.70477">
        <ele>270</ele>
        <time>2017-05-30T15:36:33Z</time>
      </trkpt>
      <trkpt lat="49.53494" lon="5.70514">
        <ele>271</ele>
        <time>2017-05-30T15:38:33Z</time>
      </trkpt>
      <trkpt lat="49.53491" lon="5.70532">
        <ele>272</ele>
        <time>2017-05-30T15:40:33Z</time>
      </trkpt>
      <trkpt lat="49.53485" lon="5.70564">
        <ele>274</ele>
        <time>2017-05-30T15:42:33Z</time>
      </trkpt>
      <trkpt lat="49.53483" lon="5.70579">
        <ele>275</ele>
        <time>2017-05-30T15:44:33Z</time>
      </trkpt>
      <trkpt lat="49.53478" lon="5.70612">
        <ele>276</ele>
        <time>2017-05-30T15:46:33Z</time>
      </trkpt>
      <trkpt lat="49.53475" lon="5.70625">
        <ele>276</ele>
        <time>2017-05-30T15:48:33Z</time>
      </trkpt>
      <trkpt lat="49.53474" lon="5.70638">
        <ele>277</ele>
        <time>2017-05-30T15:50:33Z</time>
      </trkpt>
      <trkpt lat="49.53468" lon="5.70662">
        <ele>277</ele>
        <time>2017-05-30T15:52:33Z</time>
      </trkpt>
      <trkpt lat="49.5346" lon="5.7069">
        <ele>277</ele>
        <time>2017-05-30T15:54:33Z</time>
      </trkpt>
      <trkpt lat="49.53449" lon="5.70723">
        <ele>276</ele>
        <time>2017-05-30T15:56:33Z</time>
      </trkpt>
      <trkpt lat="49.53446" lon="5.70732">
        <ele>276</ele>
        <time>2017-05-30T15:58:33Z</time>
      </trkpt>
      <trkpt lat="49.5343" lon="5.70766">
        <ele>274</ele>
        <time>2017-05-30T16:00:33Z</time>
      </trkpt>
      <trkpt lat="49.53424" lon="5.70776">
        <ele>273</ele>
        <time>2017-05-30T16:02:33Z</time>
      </trkpt>
      <trkpt lat="49.53419" lon="5.70786">
        <ele>272</ele>
        <time>2017-05-30T16:04:33Z</time>
      </trkpt>
      <trkpt lat="49.53415" lon="5.70796">
        <ele>272</ele>
        <time>2017-05-30T16:06:33Z</time>
      </trkpt>
      <trkpt lat="49.53407" lon="5.70831">
        <ele>272</ele>
        <time>2017-05-30T16:08:33Z</time>
      </trkpt>
      <trkpt lat="49.53405" lon="5.70842">
        <ele>273</ele>
        <time>2017-05-30T16:10:33Z</time>
      </trkpt>
      <trkpt lat="49.53404" lon="5.70879">
        <ele>273</ele>
        <time>2017-05-30T16:12:33Z</time>
      </trkpt>
      <trkpt lat="49.53403" lon="5.7092">
        <ele>274</ele>
        <time>2017-05-30T16:14:33Z</time>
      </trkpt>
      <trkpt lat="49.53402" lon="5.70948">
        <ele>275</ele>
        <time>2017-05-30T16:16:33Z</time>
      </trkpt>
      <trkpt lat="49.53398" lon="5.70978">
        <ele>277</ele>
        <time>2017-05-30T16:18:33Z</time>
      </trkpt>
      <trkpt lat="49.53393" lon="5.71004">
        <ele>277</ele>
        <time>2017-05-30T16:20:33Z</time>
      </trkpt>
      <trkpt lat="49.53386" lon="5.71026">
        <ele>278</ele>
        <time>2017-05-30T16:22:33Z</time>
      </trkpt>
      <trkpt lat="49.53378" lon="5.71041">
        <ele>278</ele>
        <time>2017-05-30T16:24:33Z</time>
      </trkpt>
      <trkpt lat="49.53374" lon="5.71049">
        <ele>278</ele>
        <time>2017-05-30T16:26:33Z</time>
      </trkpt>
      <trkpt lat="49.53367" lon="5.71082">
        <ele>278</ele>
        <time>2017-05-30T16:28:33Z</time>
      </trkpt>
      <trkpt lat="49.53365" lon="5.71094">
        <ele>278</ele>
        <time>2017-05-30T16:30:33Z</time>
      </trkpt>
      <trkpt lat="49.53364" lon="5.71107">
        <ele>278</ele>
        <time>2017-05-30T16:32:33Z</time>
      </trkpt>
      <trkpt lat="49.53365" lon="5.71122">
        <ele>279</ele>
        <time>2017-05-30T16:34:33Z</time>
      </trkpt>
      <trkpt lat="49.53366" lon="5.71155">
        <ele>280</ele>
        <time>2017-05-30T16:36:33Z</time>
      </trkpt>
      <trkpt lat="49.53367" lon="5.71189">
        <ele>280</ele>
        <time>2017-05-30T16:38:33Z</time>
      </trkpt>
      <trkpt lat="49.53366" lon="5.71204">
        <ele>280</ele>
        <time>2017-05-30T16:40:33Z</time>
      </trkpt>
      <trkpt lat="49.53365" lon="5.71219">
        <ele>280</ele>
        <time>2017-05-30T16:42:33Z</time>
      </trkpt>
      <trkpt lat="49.53358" lon="5.71256">
        <ele>279</ele>
        <time>2017-05-30T16:44:33Z</time>
      </trkpt>
      <trkpt lat="49.5335" lon="5.71296">
        <ele>279</ele>
        <time>2017-05-30T16:46:33Z</time>
      </trkpt>
      <trkpt lat="49.53333" lon="5.71392">
        <ele>278</ele>
        <time>2017-05-30T16:48:33Z</time>
      </trkpt>
      <trkpt lat="49.53328" lon="5.71411">
        <ele>279</ele>
        <time>2017-05-30T16:50:33Z</time>
      </trkpt>
      <trkpt lat="49.53327" lon="5.71415">
        <ele>279</ele>
        <time>2017-05-30T16:52:33Z</time>
      </trkpt>
      <trkpt lat="49.53327" lon="5.71415">
        <ele>279</ele>
        <time>2017-05-30T16:54:33Z</time>
      </trkpt>
      <trkpt lat="49.53324" lon="5.71424">
        <ele>279</ele>
        <time>2017-05-30T16:56:33Z</time>
      </trkpt>
      <trkpt lat="49.53317" lon="5.71452">
        <ele>279</ele>
        <time>2017-05-30T16:58:33Z</time>
      </trkpt>
      <trkpt lat="49.53308" lon="5.71478">
        <ele>279</ele>
        <time>2017-05-30T17:00:33Z</time>
      </trkpt>
      <trkpt lat="49.53308" lon="5.71482">
        <ele>279</ele>
        <time>2017-05-30T17:02:33Z</time>
      </trkpt>
      <trkpt lat="49.53309" lon="5.71482">
        <ele>279</ele>
        <time>2017-05-30T17:04:33Z</time>
      </trkpt>
      <trkpt lat="49.53304" lon="5.71501">
        <ele>279</ele>
        <time>2017-05-30T17:06:33Z</time>
      </trkpt>
      <trkpt lat="49.5329" lon="5.71531">
        <ele>279</ele>
        <time>2017-05-30T17:08:33Z</time>
      </trkpt>
      <trkpt lat="49.5327" lon="5.71578">
        <ele>280</ele>
        <time>2017-05-30T17:10:33Z</time>
      </trkpt>
      <trkpt lat="49.53261" lon="5.71603">
        <ele>280</ele>
        <time>2017-05-30T17:12:33Z</time>
      </trkpt>
      <trkpt lat="49.53255" lon="5.7163">
        <ele>280</ele>
        <time>2017-05-30T17:14:33Z</time>
      </trkpt>
      <trkpt lat="49.53245" lon="5.71682">
        <ele>280</ele>
        <time>2017-05-30T17:16:33Z</time>
      </trkpt>
      <trkpt lat="49.5324" lon="5.71707">
        <ele>281</ele>
        <time>2017-05-30T17:18:33Z</time>
      </trkpt>
      <trkpt lat="49.53228" lon="5.71727">
        <ele>281</ele>
        <time>2017-05-30T17:20:33Z</time>
      </trkpt>
      <trkpt lat="49.5322" lon="5.71733">
        <ele>281</ele>
        <time>2017-05-30T17:22:33Z</time>
      </trkpt>
      <trkpt lat="49.53212" lon="5.71735">
        <ele>282</ele>
        <time>2017-05-30T17:24:33Z</time>
      </trkpt>
      <trkpt lat="49.53203" lon="5.71736">
        <ele>282</ele>
        <time>2017-05-30T17:26:33Z</time>
      </trkpt>
      <trkpt lat="49.53185" lon="5.71735">
        <ele>282</ele>
        <time>2017-05-30T17:28:33Z</time>
      </trkpt>
      <trkpt lat="49.53176" lon="5.71734">
        <ele>282</ele>
        <time>2017-05-30T17:30:33Z</time>
      </trkpt>
      <trkpt lat="49.53167" lon="5.71731">
        <ele>283</ele>
        <time>2017-05-30T17:32:33Z</time>
      </trkpt>
      <trkpt lat="49.53159" lon="5.71725">
        <ele>283</ele>
        <time>2017-05-30T17:34:33Z</time>
      </trkpt>
      <trkpt lat="49.53152" lon="5.71717">
        <ele>284</ele>
        <time>2017-05-30T17:36:33Z</time>
      </trkpt>
      <trkpt lat="49.53146" lon="5.71707">
        <ele>285</ele>
        <time>2017-05-30T17:38:33Z</time>
      </trkpt>
      <trkpt lat="49.53142" lon="5.71695">
        <ele>285</ele>
        <time>2017-05-30T17:40:33Z</time>
      </trkpt>
      <trkpt lat="49.53141" lon="5.7168">
        <ele>286</ele>
        <time>2017-05-30T17:42:33Z</time>
      </trkpt>
      <trkpt lat="49.53141" lon="5.71666">
        <ele>287</ele>
        <time>2017-05-30T17:44:33Z</time>
      </trkpt>
      <trkpt lat="49.53143" lon="5.71627">
        <ele>288</ele>
        <time>2017-05-30T17:46:33Z</time>
      </trkpt>
      <trkpt lat="49.53143" lon="5.71615">
        <ele>289</ele>
        <time>2017-05-30T17:48:33Z</time>
      </trkpt>
      <trkpt lat="49.53142" lon="5.71605">
        <ele>290</ele>
        <time>2017-05-30T17:50:33Z</time>
      </trkpt>
      <trkpt lat="49.5314" lon="5.71596">
        <ele>290</ele>
        <time>2017-05-30T17:52:33Z</time>
      </trkpt>
      <trkpt lat="49.53138" lon="5.71589">
        <ele>291</ele>
        <time>2017-05-30T17:54:33Z</time>
      </trkpt>
      <trkpt lat="49.53136" lon="5.71583">
        <ele>292</ele>
        <time>2017-05-30T17:56:33Z</time>
      </trkpt>
      <trkpt lat="49.53127" lon="5.71578">
        <ele>294</ele>
        <time>2017-05-30T17:58:33Z</time>
      </trkpt>
      <trkpt lat="49.53116" lon="5.71586">
        <ele>295</ele>
        <time>2017-05-30T18:00:33Z</time>
      </trkpt>
      <trkpt lat="49.53093" lon="5.71608">
        <ele>297</ele>
        <time>2017-05-30T18:02:33Z</time>
      </trkpt>
      <trkpt lat="49.53077" lon="5.71618">
        <ele>298</ele>
        <time>2017-05-30T18:04:33Z</time>
      </trkpt>
      <trkpt lat="49.53063" lon="5.71626">
        <ele>300</ele>
        <time>2017-05-30T18:06:33Z</time>
      </trkpt>
      <trkpt lat="49.5305" lon="5.71633">
        <ele>302</ele>
        <time>2017-05-30T18:08:33Z</time>
      </trkpt>
      <trkpt lat="49.53013" lon="5.71652">
        <ele>306</ele>
        <time>2017-05-30T18:10:33Z</time>
      </trkpt>
      <trkpt lat="49.53009" lon="5.71652">
        <ele>307</ele>
        <time>2017-05-30T18:12:33Z</time>
      </trkpt>
      <trkpt lat="49.53007" lon="5.71649">
        <ele>308</ele>
        <time>2017-05-30T18:14:33Z</time>
      </trkpt>
      <trkpt lat="49.53007" lon="5.71639">
        <ele>310</ele>
        <time>2017-05-30T18:16:33Z</time>
      </trkpt>
      <trkpt lat="49.53013" lon="5.71626">
        <ele>311</ele>
        <time>2017-05-30T18:18:33Z</time>
      </trkpt>
      <trkpt lat="49.53016" lon="5.7162">
        <ele>312</ele>
        <time>2017-05-30T18:20:33Z</time>
      </trkpt>
      <trkpt lat="49.53022" lon="5.71607">
        <ele>313</ele>
        <time>2017-05-30T18:22:33Z</time>
      </trkpt>
      <trkpt lat="49.53033" lon="5.71566">
        <ele>318</ele>
        <time>2017-05-30T18:24:33Z</time>
      </trkpt>
      <trkpt lat="49.53037" lon="5.71546">
        <ele>320</ele>
        <time>2017-05-30T18:26:33Z</time>
      </trkpt>
      <trkpt lat="49.53044" lon="5.71518">
        <ele>322</ele>
        <time>2017-05-30T18:28:33Z</time>
      </trkpt>
      <trkpt lat="49.53055" lon="5.71483">
        <ele>322</ele>
        <time>2017-05-30T18:30:33Z</time>
      </trkpt>
      <trkpt lat="49.53073" lon="5.71449">
        <ele>317</ele>
        <time>2017-05-30T18:32:33Z</time>
      </trkpt>
      <trkpt lat="49.53084" lon="5.71429">
        <ele>313</ele>
        <time>2017-05-30T18:34:33Z</time>
      </trkpt>
      <trkpt lat="49.53092" lon="5.71421">
        <ele>311</ele>
        <time>2017-05-30T18:36:33Z</time>
      </trkpt>
      <trkpt lat="49.53107" lon="5.71405">
        <ele>308</ele>
        <time>2017-05-30T18:38:33Z</time>
      </trkpt>
      <trkpt lat="49.53127" lon="5.71375">
        <ele>304</ele>
        <time>2017-05-30T18:40:33Z</time>
      </trkpt>
      <trkpt lat="49.53152" lon="5.71334">
        <ele>300</ele>
        <time>2017-05-30T18:42:33Z</time>
      </trkpt>
      <trkpt lat="49.53167" lon="5.71306">
        <ele>299</ele>
        <time>2017-05-30T18:44:33Z</time>
      </trkpt>
      <trkpt lat="49.53177" lon="5.71278">
        <ele>299</ele>
        <time>2017-05-30T18:46:33Z</time>
      </trkpt>
      <trkpt lat="49.5318" lon="5.71256">
        <ele>300</ele>
        <time>2017-05-30T18:48:33Z</time>
      </trkpt>
      <trkpt lat="49.53182" lon="5.71234">
        <ele>301</ele>
        <time>2017-05-30T18:50:33Z</time>
      </trkpt>
      <trkpt lat="49.53183" lon="5.71199">
        <ele>303</ele>
        <time>2017-05-30T18:52:33Z</time>
      </trkpt>
      <trkpt lat="49.53185" lon="5.71164">
        <ele>305</ele>
        <time>2017-05-30T18:54:33Z</time>
      </trkpt>
      <trkpt lat="49.53186" lon="5.71118">
        <ele>305</ele>
        <time>2017-05-30T18:56:33Z</time>
      </trkpt>
      <trkpt lat="49.53187" lon="5.71102">
        <ele>305</ele>
        <time>2017-05-30T18:58:33Z</time>
      </trkpt>
      <trkpt lat="49.53186" lon="5.71094">
        <ele>306</ele>
        <time>2017-05-30T19:00:33Z</time>
      </trkpt>
      <trkpt lat="49.53184" lon="5.71084">
        <ele>306</ele>
        <time>2017-05-30T19:02:33Z</time>
      </trkpt>
      <trkpt lat="49.53179" lon="5.71053">
        <ele>308</ele>
        <time>2017-05-30T19:04:33Z</time>
      </trkpt>
      <trkpt lat="49.53177" lon="5.71042">
        <ele>308</ele>
        <time>2017-05-30T19:06:33Z</time>
      </trkpt>
      <trkpt lat="49.53173" lon="5.71017">
        <ele>309</ele>
        <time>2017-05-30T19:08:33Z</time>
      </trkpt>
      <trkpt lat="49.53172" lon="5.71005">
        <ele>310</ele>
        <time>2017-05-30T19:10:33Z</time>
      </trkpt>
      <trkpt lat="49.53175" lon="5.70968">
        <ele>310</ele>
        <time>2017-05-30T19:12:33Z</time>
      </trkpt>
      <trkpt lat="49.53174" lon="5.70944">
        <ele>311</ele>
        <time>2017-05-30T19:14:33Z</time>
      </trkpt>
      <trkpt lat="49.53166" lon="5.70909">
        <ele>314</ele>
        <time>2017-05-30T19:16:33Z</time>
      </trkpt>
      <trkpt lat="49.53167" lon="5.70897">
        <ele>313</ele>
        <time>2017-05-30T19:18:33Z</time>
      </trkpt>
      <trkpt lat="49.53171" lon="5.7087">
        <ele>311</ele>
        <time>2017-05-30T19:20:33Z</time>
      </trkpt>
      <trkpt lat="49.53175" lon="5.7084">
        <ele>309</ele>
        <time>2017-05-30T19:22:33Z</time>
      </trkpt>
      <trkpt lat="49.53179" lon="5.70812">
        <ele>309</ele>
        <time>2017-05-30T19:24:33Z</time>
      </trkpt>
      <trkpt lat="49.53187" lon="5.70774">
        <ele>310</ele>
        <time>2017-05-30T19:26:33Z</time>
      </trkpt>
      <trkpt lat="49.53192" lon="5.70742">
        <ele>311</ele>
        <time>2017-05-30T19:28:33Z</time>
      </trkpt>
      <trkpt lat="49.532" lon="5.70723">
        <ele>310</ele>
        <time>2017-05-30T19:30:33Z</time>
      </trkpt>
      <trkpt lat="49.5321" lon="5.70704">
        <ele>309</ele>
        <time>2017-05-30T19:32:33Z</time>
      </trkpt>
      <trkpt lat="49.53224" lon="5.7068">
        <ele>306</ele>
        <time>2017-05-30T19:34:33Z</time>
      </trkpt>
      <trkpt lat="49.53226" lon="5.70673">
        <ele>306</ele>
        <time>2017-05-30T19:36:33Z</time>
      </trkpt>
      <trkpt lat="49.5323" lon="5.70657">
        <ele>306</ele>
        <time>2017-05-30T19:38:33Z</time>
      </trkpt>
      <trkpt lat="49.53235" lon="5.70597">
        <ele>307</ele>
        <time>2017-05-30T19:40:33Z</time>
      </trkpt>
      <trkpt lat="49.53236" lon="5.70566">
        <ele>308</ele>
        <time>2017-05-30T19:42:33Z</time>
      </trkpt>
      <trkpt lat="49.5324" lon="5.70546">
        <ele>306</ele>
        <time>2017-05-30T19:44:33Z</time>
      </trkpt>
      <trkpt lat="49.53245" lon="5.70512">
        <ele>304</ele>
        <time>2017-05-30T19:46:33Z</time>
      </trkpt>
      <trkpt lat="49.53244" lon="5.70476">
        <ele>304</ele>
        <time>2017-05-30T19:48:33Z</time>
      </trkpt>
      <trkpt lat="49.53246" lon="5.70446">
        <ele>302</ele>
        <time>2017-05-30T19:50:33Z</time>
      </trkpt>
      <trkpt lat="49.53244" lon="5.70406">
        <ele>302</ele>
        <time>2017-05-30T19:52:33Z</time>
      </trkpt>
      <trkpt lat="49.53241" lon="5.70395">
        <ele>302</ele>
        <time>2017-05-30T19:54:33Z</time>
      </trkpt>
      <trkpt lat="49.53239" lon="5.70393">
        <ele>303</ele>
        <time>2017-05-30T19:56:33Z</time>
      </trkpt>
      <trkpt lat="49.53234" lon="5.70393">
        <ele>304</ele>
        <time>2017-05-30T19:58:33Z</time>
      </trkpt>
      <trkpt lat="49.53229" lon="5.70391">
        <ele>305</ele>
        <time>2017-05-30T20:00:33Z</time>
      </trkpt>
      <trkpt lat="49.5322" lon="5.7038">
        <ele>307</ele>
        <time>2017-05-30T20:02:33Z</time>
      </trkpt>
      <trkpt lat="49.53214" lon="5.70364">
        <ele>307</ele>
        <time>2017-05-30T20:04:33Z</time>
      </trkpt>
      <trkpt lat="49.53208" lon="5.70349">
        <ele>307</ele>
        <time>2017-05-30T20:06:33Z</time>
      </trkpt>
      <trkpt lat="49.53205" lon="5.70344">
        <ele>307</ele>
        <time>2017-05-30T20:08:33Z</time>
      </trkpt>
      <trkpt lat="49.53198" lon="5.70331">
        <ele>308</ele>
        <time>2017-05-30T20:10:33Z</time>
      </trkpt>
      <trkpt lat="49.5319" lon="5.70319">
        <ele>309</ele>
        <time>2017-05-30T20:12:33Z</time>
      </trkpt>
      <trkpt lat="49.53186" lon="5.70316">
        <ele>309</ele>
        <time>2017-05-30T20:14:33Z</time>
      </trkpt>
      <trkpt lat="49.53182" lon="5.70313">
        <ele>310</ele>
        <time>2017-05-30T20:16:33Z</time>
      </trkpt>
      <trkpt lat="49.53174" lon="5.70312">
        <ele>311</ele>
        <time>2017-05-30T20:18:33Z</time>
      </trkpt>
      <trkpt lat="49.53164" lon="5.70313">
        <ele>314</ele>
        <time>2017-05-30T20:20:33Z</time>
      </trkpt>
      <trkpt lat="49.53155" lon="5.7031">
        <ele>318</ele>
        <time>2017-05-30T20:22:33Z</time>
      </trkpt>
      <trkpt lat="49.53145" lon="5.70292">
        <ele>321</ele>
        <time>2017-05-30T20:24:33Z</time>
      </trkpt>
      <trkpt lat="49.53133" lon="5.70257">
        <ele>323</ele>
        <time>2017-05-30T20:26:33Z</time>
      </trkpt>
      <trkpt lat="49.53126" lon="5.70235">
        <ele>323</ele>
        <time>2017-05-30T20:28:33Z</time>
      </trkpt>
      <trkpt lat="49.53123" lon="5.70222">
        <ele>323</ele>
        <time>2017-05-30T20:30:33Z</time>
      </trkpt>
      <trkpt lat="49.5312" lon="5.70211">
        <ele>322</ele>
        <time>2017-05-30T20:32:33Z</time>
      </trkpt>
      <trkpt lat="49.53115" lon="5.70188">
        <ele>321</ele>
        <time>2017-05-30T20:34:33Z</time>
      </trkpt>
      <trkpt lat="49.53112" lon="5.70168">
        <ele>319</ele>
        <time>2017-05-30T20:36:33Z</time>
      </trkpt>
      <trkpt lat="49.53112" lon="5.70147">
        <ele>317</ele>
        <time>2017-05-30T20:38:33Z</time>
      </trkpt>
      <trkpt lat="49.53113" lon="5.70137">
        <ele>315</ele>
        <time>2017-05-30T20:40:33Z</time>
      </trkpt>
      <trkpt lat="49.53111" lon="5.70114">
        <ele>312</ele>
        <time>2017-05-30T20:42:33Z</time>
      </trkpt>
      <trkpt lat="49.53107" lon="5.70082">
        <ele>309</ele>
        <time>2017-05-30T20:44:33Z</time>
      </trkpt>
      <trkpt lat="49.53104" lon="5.70064">
        <ele>309</ele>
        <time>2017-05-30T20:46:33Z</time>
      </trkpt>
      <trkpt lat="49.53103" lon="5.70053">
        <ele>308</ele>
        <time>2017-05-30T20:48:33Z</time>
      </trkpt>
      <trkpt lat="49.53105" lon="5.70043">
        <ele>307</ele>
        <time>2017-05-30T20:50:33Z</time>
      </trkpt>
      <trkpt lat="49.53108" lon="5.70035">
        <ele>306</ele>
        <time>2017-05-30T20:52:33Z</time>
      </trkpt>
      <trkpt lat="49.5311" lon="5.70027">
        <ele>305</ele>
        <time>2017-05-30T20:54:33Z</time>
      </trkpt>
      <trkpt lat="49.53111" lon="5.70014">
        <ele>304</ele>
        <time>2017-05-30T20:56:33Z</time>
      </trkpt>
      <trkpt lat="49.53112" lon="5.69968">
        <ele>303</ele>
        <time>2017-05-30T20:58:33Z</time>
      </trkpt>
      <trkpt lat="49.53115" lon="5.69933">
        <ele>302</ele>
        <time>2017-05-30T21:00:33Z</time>
      </trkpt>
      <trkpt lat="49.53118" lon="5.69896">
        <ele>301</ele>
        <time>2017-05-30T21:02:33Z</time>
      </trkpt>
      <trkpt lat="49.53122" lon="5.69861">
        <ele>300</ele>
        <time>2017-05-30T21:04:33Z</time>
      </trkpt>
      <trkpt lat="49.53123" lon="5.69851">
        <ele>300</ele>
        <time>2017-05-30T21:06:33Z</time>
      </trkpt>
      <trkpt lat="49.53119" lon="5.69831">
        <ele>302</ele>
        <time>2017-05-30T21:08:33Z</time>
      </trkpt>
      <trkpt lat="49.53116" lon="5.69821">
        <ele>303</ele>
        <time>2017-05-30T21:10:33Z</time>
      </trkpt>
      <trkpt lat="49.53108" lon="5.69799">
        <ele>306</ele>
        <time>2017-05-30T21:12:33Z</time>
      </trkpt>
      <trkpt lat="49.53098" lon="5.69767">
        <ele>309</ele>
        <time>2017-05-30T21:14:33Z</time>
      </trkpt>
      <trkpt lat="49.53089" lon="5.69733">
        <ele>312</ele>
        <time>2017-05-30T21:16:33Z</time>
      </trkpt>
      <trkpt lat="49.53085" lon="5.69709">
        <ele>312</ele>
        <time>2017-05-30T21:18:33Z</time>
      </trkpt>
      <trkpt lat="49.5308" lon="5.69675">
        <ele>314</ele>
        <time>2017-05-30T21:20:33Z</time>
      </trkpt>
      <trkpt lat="49.53077" lon="5.69607">
        <ele>313</ele>
        <time>2017-05-30T21:22:33Z</time>
      </trkpt>
      <trkpt lat="49.53071" lon="5.69576">
        <ele>314</ele>
        <time>2017-05-30T21:24:33Z</time>
      </trkpt>
      <trkpt lat="49.53066" lon="5.69555">
        <ele>316</ele>
        <time>2017-05-30T21:26:33Z</time>
      </trkpt>
      <trkpt lat="49.53061" lon="5.69532">
        <ele>318</ele>
        <time>2017-05-30T21:28:33Z</time>
      </trkpt>
      <trkpt lat="49.53056" lon="5.69505">
        <ele>320</ele>
        <time>2017-05-30T21:30:33Z</time>
      </trkpt>
      <trkpt lat="49.5305" lon="5.69479">
        <ele>321</ele>
        <time>2017-05-30T21:32:33Z</time>
      </trkpt>
      <trkpt lat="49.53047" lon="5.69471">
        <ele>322</ele>
        <time>2017-05-30T21:34:33Z</time>
      </trkpt>
      <trkpt lat="49.53039" lon="5.69445">
        <ele>323</ele>
        <time>2017-05-30T21:36:33Z</time>
      </trkpt>
      <trkpt lat="49.53031" lon="5.69412">
        <ele>324</ele>
        <time>2017-05-30T21:38:33Z</time>
      </trkpt>
      <trkpt lat="49.53027" lon="5.6939">
        <ele>323</ele>
        <time>2017-05-30T21:40:33Z</time>
      </trkpt>
      <trkpt lat="49.53019" lon="5.69356">
        <ele>322</ele>
        <time>2017-05-30T21:42:33Z</time>
      </trkpt>
      <trkpt lat="49.53007" lon="5.69318">
        <ele>322</ele>
        <time>2017-05-30T21:44:33Z</time>
      </trkpt>
      <trkpt lat="49.52991" lon="5.69269">
        <ele>321</ele>
        <time>2017-05-30T21:46:33Z</time>
      </trkpt>
      <trkpt lat="49.52981" lon="5.69232">
        <ele>319</ele>
        <time>2017-05-30T21:48:33Z</time>
      </trkpt>
      <trkpt lat="49.52973" lon="5.6921">
        <ele>319</ele>
        <time>2017-05-30T21:50:33Z</time>
      </trkpt>
      <trkpt lat="49.52968" lon="5.692">
        <ele>318</ele>
        <time>2017-05-30T21:52:33Z</time>
      </trkpt>
      <trkpt lat="49.52957" lon="5.69178">
        <ele>317</ele>
        <time>2017-05-30T21:54:33Z</time>
      </trkpt>
      <trkpt lat="49.52944" lon="5.69157">
        <ele>316</ele>
        <time>2017-05-30T21:56:33Z</time>
      </trkpt>
      <trkpt lat="49.52928" lon="5.69142">
        <ele>315</ele>
        <time>2017-05-30T21:58:33Z</time>
      </trkpt>
      <trkpt lat="49.52908" lon="5.69125">
        <ele>314</ele>
        <time>2017-05-30T22:00:33Z</time>
      </trkpt>
      <trkpt lat="49.52887" lon="5.6911">
        <ele>313</ele>
        <time>2017-05-30T22:02:33Z</time>
      </trkpt>
      <trkpt lat="49.52882" lon="5.69107">
        <ele>313</ele>
        <time>2017-05-30T22:04:33Z</time>
      </trkpt>
      <trkpt lat="49.52872" lon="5.69106">
        <ele>313</ele>
        <time>2017-05-30T22:06:33Z</time>
      </trkpt>
      <trkpt lat="49.52862" lon="5.69108">
        <ele>314</ele>
        <time>2017-05-30T22:08:33Z</time>
      </trkpt>
      <trkpt lat="49.52846" lon="5.69112">
        <ele>316</ele>
        <time>2017-05-30T22:10:33Z</time>
      </trkpt>
      <trkpt lat="49.52836" lon="5.69118">
        <ele>318</ele>
        <time>2017-05-30T22:12:33Z</time>
      </trkpt>
      <trkpt lat="49.52826" lon="5.69125">
        <ele>319</ele>
        <time>2017-05-30T22:14:33Z</time>
      </trkpt>
      <trkpt lat="49.52811" lon="5.69138">
        <ele>322</ele>
        <time>2017-05-30T22:16:33Z</time>
      </trkpt>
      <trkpt lat="49.52779" lon="5.69154">
        <ele>323</ele>
        <time>2017-05-30T22:18:33Z</time>
      </trkpt>
      <trkpt lat="49.52744" lon="5.69171">
        <ele>324</ele>
        <time>2017-05-30T22:20:33Z</time>
      </trkpt>
      <trkpt lat="49.52737" lon="5.69173">
        <ele>324</ele>
        <time>2017-05-30T22:22:33Z</time>
      </trkpt>
      <trkpt lat="49.52722" lon="5.69174">
        <ele>323</ele>
        <time>2017-05-30T22:24:33Z</time>
      </trkpt>
      <trkpt lat="49.52712" lon="5.69174">
        <ele>322</ele>
        <time>2017-05-30T22:26:33Z</time>
      </trkpt>
      <trkpt lat="49.52705" lon="5.69184">
        <ele>323</ele>
        <time>2017-05-30T22:28:33Z</time>
      </trkpt>
      <trkpt lat="49.52703" lon="5.69189">
        <ele>324</ele>
        <time>2017-05-30T22:30:33Z</time>
      </trkpt>
      <trkpt lat="49.527" lon="5.69198">
        <ele>326</ele>
        <time>2017-05-30T22:32:33Z</time>
      </trkpt>
      <trkpt lat="49.52699" lon="5.69205">
        <ele>327</ele>
        <time>2017-05-30T22:34:33Z</time>
      </trkpt>
      <trkpt lat="49.52699" lon="5.6921">
        <ele>328</ele>
        <time>2017-05-30T22:36:33Z</time>
      </trkpt>
      <trkpt lat="49.52699" lon="5.69219">
        <ele>330</ele>
        <time>2017-05-30T22:38:33Z</time>
      </trkpt>
      <trkpt lat="49.52699" lon="5.69224">
        <ele>331</ele>
        <time>2017-05-30T22:40:33Z</time>
      </trkpt>
      <trkpt lat="49.527" lon="5.69228">
        <ele>332</ele>
        <time>2017-05-30T22:42:33Z</time>
      </trkpt>
      <trkpt lat="49.52704" lon="5.69237">
        <ele>335</ele>
        <time>2017-05-30T22:44:33Z</time>
      </trkpt>
      <trkpt lat="49.52705" lon="5.69242">
        <ele>336</ele>
        <time>2017-05-30T22:46:33Z</time>
      </trkpt>
      <trkpt lat="49.52704" lon="5.69258">
        <ele>339</ele>
        <time>2017-05-30T22:48:33Z</time>
      </trkpt>
      <trkpt lat="49.52703" lon="5.69263">
        <ele>340</ele>
        <time>2017-05-30T22:50:33Z</time>
      </trkpt>
      <trkpt lat="49.52705" lon="5.69279">
        <ele>344</ele>
        <time>2017-05-30T22:52:33Z</time>
      </trkpt>
      <trkpt lat="49.52705" lon="5.69282">
        <ele>345</ele>
        <time>2017-05-30T22:54:33Z</time>
      </trkpt>
      <trkpt lat="49.52707" lon="5.69286">
        <ele>346</ele>
        <time>2017-05-30T22:56:33Z</time>
      </trkpt>
      <trkpt lat="49.52708" lon="5.6929">
        <ele>347</ele>
        <time>2017-05-30T22:58:33Z</time>
      </trkpt>
      <trkpt lat="49.52709" lon="5.69294">
        <ele>348</ele>
        <time>2017-05-30T23:00:33Z</time>
      </trkpt>
      <trkpt lat="49.5271" lon="5.693">
        <ele>350</ele>
        <time>2017-05-30T23:02:33Z</time>
      </trkpt>
      <trkpt lat="49.5271" lon="5.69304">
        <ele>350</ele>
        <time>2017-05-30T23:04:33Z</time>
      </trkpt>
      <trkpt lat="49.5271" lon="5.69309">
        <ele>352</ele>
        <time>2017-05-30T23:06:33Z</time>
      </trkpt>
      <trkpt lat="49.52713" lon="5.69323">
        <ele>355</ele>
        <time>2017-05-30T23:08:33Z</time>
      </trkpt>
      <trkpt lat="49.52715" lon="5.6933">
        <ele>357</ele>
        <time>2017-05-30T23:10:33Z</time>
      </trkpt>
      <trkpt lat="49.52719" lon="5.69348">
        <ele>361</ele>
        <time>2017-05-30T23:12:33Z</time>
      </trkpt>
      <trkpt lat="49.52721" lon="5.69357">
        <ele>363</ele>
        <time>2017-05-30T23:14:33Z</time>
      </trkpt>
      <trkpt lat="49.52722" lon="5.69365">
        <ele>365</ele>
        <time>2017-05-30T23:16:33Z</time>
      </trkpt>
      <trkpt lat="49.52721" lon="5.69373">
        <ele>366</ele>
        <time>2017-05-30T23:18:33Z</time>
      </trkpt>
      <trkpt lat="49.52719" lon="5.69379">
        <ele>368</ele>
        <time>2017-05-30T23:20:33Z</time>
      </trkpt>
      <trkpt lat="49.52706" lon="5.69391">
        <ele>369</ele>
        <time>2017-05-30T23:22:33Z</time>
      </trkpt>
      <trkpt lat="49.52697" lon="5.69402">
        <ele>370</ele>
        <time>2017-05-30T23:24:33Z</time>
      </trkpt>
      <trkpt lat="49.52693" lon="5.69409">
        <ele>372</ele>
        <time>2017-05-30T23:26:33Z</time>
      </trkpt>
      <trkpt lat="49.5268" lon="5.6943">
        <ele>373</ele>
        <time>2017-05-30T23:28:33Z</time>
      </trkpt>
      <trkpt lat="49.52673" lon="5.69455">
        <ele>374</ele>
        <time>2017-05-30T23:30:33Z</time>
      </trkpt>
      <trkpt lat="49.5267" lon="5.6946">
        <ele>374</ele>
        <time>2017-05-30T23:32:33Z</time>
      </trkpt>
      <trkpt lat="49.52655" lon="5.6946">
        <ele>373</ele>
        <time>2017-05-30T23:34:33Z</time>
      </trkpt>
      <trkpt lat="49.52647" lon="5.69459">
        <ele>373</ele>
        <time>2017-05-30T23:36:33Z</time>
      </trkpt>
      <trkpt lat="49.52629" lon="5.69456">
        <ele>371</ele>
        <time>2017-05-30T23:38:33Z</time>
      </trkpt>
      <trkpt lat="49.52614" lon="5.69454">
        <ele>369</ele>
        <time>2017-05-30T23:40:33Z</time>
      </trkpt>
      <trkpt lat="49.52606" lon="5.69453">
        <ele>369</ele>
        <time>2017-05-30T23:42:33Z</time>
      </trkpt>
      <trkpt lat="49.52592" lon="5.69452">
        <ele>368</ele>
        <time>2017-05-30T23:44:33Z</time>
      </trkpt>
      <trkpt lat="49.52573" lon="5.69447">
        <ele>365</ele>
        <time>2017-05-30T23:46:33Z</time>
      </trkpt>
      <trkpt lat="49.5256" lon="5.69446">
        <ele>364</ele>
        <time>2017-05-30T23:48:33Z</time>
      </trkpt>
      <trkpt lat="49.52545" lon="5.69446">
        <ele>363</ele>
        <time>2017-05-30T23:50:33Z</time>
      </trkpt>
      <trkpt lat="49.52521" lon="5.69443">
        <ele>361</ele>
        <time>2017-05-30T23:52:33Z</time>
      </trkpt>
      <trkpt lat="49.52504" lon="5.69442">
        <ele>359</ele>
        <time>2017-05-30T23:54:33Z</time>
      </trkpt>
      <trkpt lat="49.52486" lon="5.69442">
        <ele>357</ele>
        <time>2017-05-30T23:56:33Z</time>
      </trkpt>
      <trkpt lat="49.5246" lon="5.69444">
        <ele>354</ele>
        <time>2017-05-30T23:58:33Z</time>
      </trkpt>
      <trkpt lat="49.52437" lon="5.69448">
        <ele>351</ele>
        <time>2017-05-31T00:00:33Z</time>
      </trkpt>
      <trkpt lat="49.52431" lon="5.69449">
        <ele>351</ele>
        <time>2017-05-31T00:02:33Z</time>
      </trkpt>
      <trkpt lat="49.52424" lon="5.69452">
        <ele>350</ele>
        <time>2017-05-31T00:04:33Z</time>
      </trkpt>
      <trkpt lat="49.5241" lon="5.69458">
        <ele>348</ele>
        <time>2017-05-31T00:06:33Z</time>
      </trkpt>
      <trkpt lat="49.52381" lon="5.69466">
        <ele>343</ele>
        <time>2017-05-31T00:08:33Z</time>
      </trkpt>
      <trkpt lat="49.52376" lon="5.69469">
        <ele>342</ele>
        <time>2017-05-31T00:10:33Z</time>
      </trkpt>
      <trkpt lat="49.52372" lon="5.69474">
        <ele>342</ele>
        <time>2017-05-31T00:12:33Z</time>
      </trkpt>
      <trkpt lat="49.52368" lon="5.69481">
        <ele>342</ele>
        <time>2017-05-31T00:14:33Z</time>
      </trkpt>
      <trkpt lat="49.52361" lon="5.69497">
        <ele>342</ele>
        <time>2017-05-31T00:16:33Z</time>
      </trkpt>
      <trkpt lat="49.52356" lon="5.69516">
        <ele>343</ele>
        <time>2017-05-31T00:18:33Z</time>
      </trkpt>
      <trkpt lat="49.52351" lon="5.69542">
        <ele>345</ele>
        <time>2017-05-31T00:20:33Z</time>
      </trkpt>
      <trkpt lat="49.52346" lon="5.6959">
        <ele>349</ele>
        <time>2017-05-31T00:22:33Z</time>
      </trkpt>
      <trkpt lat="49.52346" lon="5.69601">
        <ele>350</ele>
        <time>2017-05-31T00:24:33Z</time>
      </trkpt>
      <trkpt lat="49.52347" lon="5.69623">
        <ele>352</ele>
        <time>2017-05-31T00:26:33Z</time>
      </trkpt>
      <trkpt lat="49.52349" lon="5.69641">
        <ele>354</ele>
        <time>2017-05-31T00:28:33Z</time>
      </trkpt>
      <trkpt lat="49.52353" lon="5.69664">
        <ele>357</ele>
        <time>2017-05-31T00:30:33Z</time>
      </trkpt>
      <trkpt lat="49.52355" lon="5.6967">
        <ele>358</ele>
        <time>2017-05-31T00:32:33Z</time>
      </trkpt>
      <trkpt lat="49.5236" lon="5.69688">
        <ele>359</ele>
        <time>2017-05-31T00:34:33Z</time>
      </trkpt>
      <trkpt lat="49.52359" lon="5.69736">
        <ele>361</ele>
        <time>2017-05-31T00:36:33Z</time>
      </trkpt>
      <trkpt lat="49.52349" lon="5.69789">
        <ele>362</ele>
        <time>2017-05-31T00:38:33Z</time>
      </trkpt>
      <trkpt lat="49.52373" lon="5.69762">
        <ele>363</ele>
        <time>2017-05-31T00:40:33Z</time>
      </trkpt>
      <trkpt lat="49.52386" lon="5.69728">
        <ele>364</ele>
        <time>2017-05-31T00:42:33Z</time>
      </trkpt>
      <trkpt lat="49.52395" lon="5.6971">
        <ele>364</ele>
        <time>2017-05-31T00:44:33Z</time>
      </trkpt>
      <trkpt lat="49.52404" lon="5.69685">
        <ele>365</ele>
        <time>2017-05-31T00:46:33Z</time>
      </trkpt>
      <trkpt lat="49.52401" lon="5.69675">
        <ele>365</ele>
        <time>2017-05-31T00:48:33Z</time>
      </trkpt>
      <trkpt lat="49.5241" lon="5.69657">
        <ele>366</ele>
        <time>2017-05-31T00:50:33Z</time>
      </trkpt>
      <trkpt lat="49.52416" lon="5.69639">
        <ele>367</ele>
        <time>2017-05-31T00:52:33Z</time>
      </trkpt>
      <trkpt lat="49.52429" lon="5.69618">
        <ele>368</ele>
        <time>2017-05-31T00:54:33Z</time>
      </trkpt>
      <trkpt lat="49.52442" lon="5.69607">
        <ele>370</ele>
        <time>2017-05-31T00:56:33Z</time>
      </trkpt>
      <trkpt lat="49.52455" lon="5.69599">
        <ele>371</ele>
        <time>2017-05-31T00:58:33Z</time>
      </trkpt>
      <trkpt lat="49.52473" lon="5.69583">
        <ele>372</ele>
        <time>2017-05-31T01:00:33Z</time>
      </trkpt>
      <trkpt lat="49.52479" lon="5.69576">
        <ele>372</ele>
        <time>2017-05-31T01:02:33Z</time>
      </trkpt>
      <trkpt lat="49.52491" lon="5.6957">
        <ele>373</ele>
        <time>2017-05-31T01:04:33Z</time>
      </trkpt>
      <trkpt lat="49.5251" lon="5.69561">
        <ele>373</ele>
        <time>2017-05-31T01:06:33Z</time>
      </trkpt>
      <trkpt lat="49.52532" lon="5.69554">
        <ele>373</ele>
        <time>2017-05-31T01:08:33Z</time>
      </trkpt>
      <trkpt lat="49.52538" lon="5.69552">
        <ele>373</ele>
        <time>2017-05-31T01:10:33Z</time>
      </trkpt>
      <trkpt lat="49.5256" lon="5.69543">
        <ele>373</ele>
        <time>2017-05-31T01:12:33Z</time>
      </trkpt>
      <trkpt lat="49.52593" lon="5.6952">
        <ele>373</ele>
        <time>2017-05-31T01:14:33Z</time>
      </trkpt>
      <trkpt lat="49.52609" lon="5.6951">
        <ele>374</ele>
        <time>2017-05-31T01:16:33Z</time>
      </trkpt>
      <trkpt lat="49.52635" lon="5.69488">
        <ele>374</ele>
        <time>2017-05-31T01:18:33Z</time>
      </trkpt>
      <trkpt lat="49.52648" lon="5.69475">
        <ele>374</ele>
        <time>2017-05-31T01:20:33Z</time>
      </trkpt>
      <trkpt lat="49.52655" lon="5.69476">
        <ele>374</ele>
        <time>2017-05-31T01:22:33Z</time>
      </trkpt>
      <trkpt lat="49.52657" lon="5.69478">
        <ele>375</ele>
        <time>2017-05-31T01:24:33Z</time>
      </trkpt>
      <trkpt lat="49.52666" lon="5.69482">
        <ele>376</ele>
        <time>2017-05-31T01:26:33Z</time>
      </trkpt>
      <trkpt lat="49.52671" lon="5.69483">
        <ele>376</ele>
        <time>2017-05-31T01:28:33Z</time>
      </trkpt>
      <trkpt lat="49.52679" lon="5.69485">
        <ele>377</ele>
        <time>2017-05-31T01:30:33Z</time>
      </trkpt>
      <trkpt lat="49.52701" lon="5.69486">
        <ele>380</ele>
        <time>2017-05-31T01:32:33Z</time>
      </trkpt>
      <trkpt lat="49.52707" lon="5.69487">
        <ele>381</ele>
        <time>2017-05-31T01:34:33Z</time>
      </trkpt>
      <trkpt lat="49.52713" lon="5.69489">
        <ele>382</ele>
        <time>2017-05-31T01:36:33Z</time>
      </trkpt>
      <trkpt lat="49.52723" lon="5.69495">
        <ele>383</ele>
        <time>2017-05-31T01:38:33Z</time>
      </trkpt>
      <trkpt lat="49.52728" lon="5.69498">
        <ele>384</ele>
        <time>2017-05-31T01:40:33Z</time>
      </trkpt>
      <trkpt lat="49.52736" lon="5.69509">
        <ele>385</ele>
        <time>2017-05-31T01:42:33Z</time>
      </trkpt>
      <trkpt lat="49.52744" lon="5.69526">
        <ele>386</ele>
        <time>2017-05-31T01:44:33Z</time>
      </trkpt>
      <trkpt lat="49.52755" lon="5.69559">
        <ele>386</ele>
        <time>2017-05-31T01:46:33Z</time>
      </trkpt>
      <trkpt lat="49.52762" lon="5.69578">
        <ele>387</ele>
        <time>2017-05-31T01:48:33Z</time>
      </trkpt>
      <trkpt lat="49.52776" lon="5.69598">
        <ele>388</ele>
        <time>2017-05-31T01:50:33Z</time>
      </trkpt>
      <trkpt lat="49.52797" lon="5.69623">
        <ele>390</ele>
        <time>2017-05-31T01:52:33Z</time>
      </trkpt>
      <trkpt lat="49.52808" lon="5.6964">
        <ele>391</ele>
        <time>2017-05-31T01:54:33Z</time>
      </trkpt>
      <trkpt lat="49.52816" lon="5.6966">
        <ele>392</ele>
        <time>2017-05-31T01:56:33Z</time>
      </trkpt>
      <trkpt lat="49.52825" lon="5.69688">
        <ele>392</ele>
        <time>2017-05-31T01:58:33Z</time>
      </trkpt>
      <trkpt lat="49.52833" lon="5.69715">
        <ele>391</ele>
        <time>2017-05-31T02:00:33Z</time>
      </trkpt>
      <trkpt lat="49.52844" lon="5.69736">
        <ele>390</ele>
        <time>2017-05-31T02:02:33Z</time>
      </trkpt>
      <trkpt lat="49.5288" lon="5.69819">
        <ele>387</ele>
        <time>2017-05-31T02:04:33Z</time>
      </trkpt>
      <trkpt lat="49.52884" lon="5.69826">
        <ele>386</ele>
        <time>2017-05-31T02:06:33Z</time>
      </trkpt>
      <trkpt lat="49.52894" lon="5.69848">
        <ele>385</ele>
        <time>2017-05-31T02:08:33Z</time>
      </trkpt>
      <trkpt lat="49.52901" lon="5.69867">
        <ele>383</ele>
        <time>2017-05-31T02:10:33Z</time>
      </trkpt>
      <trkpt lat="49.52907" lon="5.69877">
        <ele>382</ele>
        <time>2017-05-31T02:12:33Z</time>
      </trkpt>
      <trkpt lat="49.52917" lon="5.69897">
        <ele>380</ele>
        <time>2017-05-31T02:14:33Z</time>
      </trkpt>
      <trkpt lat="49.52926" lon="5.69914">
        <ele>376</ele>
        <time>2017-05-31T02:16:33Z</time>
      </trkpt>
      <trkpt lat="49.52932" lon="5.69926">
        <ele>374</ele>
        <time>2017-05-31T02:18:33Z</time>
      </trkpt>
      <trkpt lat="49.52935" lon="5.69934">
        <ele>372</ele>
        <time>2017-05-31T02:20:33Z</time>
      </trkpt>
      <trkpt lat="49.52937" lon="5.69942">
        <ele>371</ele>
        <time>2017-05-31T02:22:33Z</time>
      </trkpt>
      <trkpt lat="49.52941" lon="5.69965">
        <ele>369</ele>
        <time>2017-05-31T02:24:33Z</time>
      </trkpt>
      <trkpt lat="49.52942" lon="5.69993">
        <ele>367</ele>
        <time>2017-05-31T02:26:33Z</time>
      </trkpt>
      <trkpt lat="49.5294" lon="5.70012">
        <ele>366</ele>
        <time>2017-05-31T02:28:33Z</time>
      </trkpt>
      <trkpt lat="49.52931" lon="5.70042">
        <ele>368</ele>
        <time>2017-05-31T02:30:33Z</time>
      </trkpt>
      <trkpt lat="49.52926" lon="5.7006">
        <ele>369</ele>
        <time>2017-05-31T02:32:33Z</time>
      </trkpt>
      <trkpt lat="49.52916" lon="5.70085">
        <ele>371</ele>
        <time>2017-05-31T02:34:33Z</time>
      </trkpt>
      <trkpt lat="49.52911" lon="5.701">
        <ele>371</ele>
        <time>2017-05-31T02:36:33Z</time>
      </trkpt>
      <trkpt lat="49.52902" lon="5.70129">
        <ele>370</ele>
        <time>2017-05-31T02:38:33Z</time>
      </trkpt>
      <trkpt lat="49.529" lon="5.70137">
        <ele>370</ele>
        <time>2017-05-31T02:40:33Z</time>
      </trkpt>
      <trkpt lat="49.52898" lon="5.70155">
        <ele>370</ele>
        <time>2017-05-31T02:42:33Z</time>
      </trkpt>
      <trkpt lat="49.52899" lon="5.70172">
        <ele>370</ele>
        <time>2017-05-31T02:44:33Z</time>
      </trkpt>
      <trkpt lat="49.52901" lon="5.70201">
        <ele>371</ele>
        <time>2017-05-31T02:46:33Z</time>
      </trkpt>
      <trkpt lat="49.52903" lon="5.70211">
        <ele>371</ele>
        <time>2017-05-31T02:48:33Z</time>
      </trkpt>
      <trkpt lat="49.52909" lon="5.70238">
        <ele>372</ele>
        <time>2017-05-31T02:50:33Z</time>
      </trkpt>
      <trkpt lat="49.52937" lon="5.70194">
        <ele>368</ele>
        <time>2017-05-31T02:52:33Z</time>
      </trkpt>
      <trkpt lat="49.52951" lon="5.70131">
        <ele>362</ele>
        <time>2017-05-31T02:54:33Z</time>
      </trkpt>
      <trkpt lat="49.52969" lon="5.70076">
        <ele>356</ele>
        <time>2017-05-31T02:56:33Z</time>
      </trkpt>
      <trkpt lat="49.52985" lon="5.70055">
        <ele>352</ele>
        <time>2017-05-31T02:58:33Z</time>
      </trkpt>
      <trkpt lat="49.52993" lon="5.70033">
        <ele>351</ele>
        <time>2017-05-31T03:00:33Z</time>
      </trkpt>
      <trkpt lat="49.53008" lon="5.69992">
        <ele>347</ele>
        <time>2017-05-31T03:02:33Z</time>
      </trkpt>
      <trkpt lat="49.53046" lon="5.69845">
        <ele>332</ele>
        <time>2017-05-31T03:04:33Z</time>
      </trkpt>
      <trkpt lat="49.53095" lon="5.6993">
        <ele>307</ele>
        <time>2017-05-31T03:06:33Z</time>
      </trkpt>
      <trkpt lat="49.53067" lon="5.69999">
        <ele>318</ele>
        <time>2017-05-31T03:08:33Z</time>
      </trkpt>
      <trkpt lat="49.53019" lon="5.70103">
        <ele>341</ele>
        <time>2017-05-31T03:10:33Z</time>
      </trkpt>
      <trkpt lat="49.52948" lon="5.70252">
        <ele>370</ele>
        <time>2017-05-31T03:12:33Z</time>
      </trkpt>
      <trkpt lat="49.52927" lon="5.70283">
        <ele>371</ele>
        <time>2017-05-31T03:14:33Z</time>
      </trkpt>
      <trkpt lat="49.52906" lon="5.70292">
        <ele>372</ele>
        <time>2017-05-31T03:16:33Z</time>
      </trkpt>
      <trkpt lat="49.52894" lon="5.70335">
        <ele>370</ele>
        <time>2017-05-31T03:18:33Z</time>
      </trkpt>
      <trkpt lat="49.52888" lon="5.70362">
        <ele>369</ele>
        <time>2017-05-31T03:20:33Z</time>
      </trkpt>
      <trkpt lat="49.52877" lon="5.70392">
        <ele>368</ele>
        <time>2017-05-31T03:22:33Z</time>
      </trkpt>
      <trkpt lat="49.52875" lon="5.70403">
        <ele>368</ele>
        <time>2017-05-31T03:24:33Z</time>
      </trkpt>
      <trkpt lat="49.52868" lon="5.70429">
        <ele>368</ele>
        <time>2017-05-31T03:26:33Z</time>
      </trkpt>
      <trkpt lat="49.52888" lon="5.70443">
        <ele>368</ele>
        <time>2017-05-31T03:28:33Z</time>
      </trkpt>
      <trkpt lat="49.52912" lon="5.70426">
        <ele>369</ele>
        <time>2017-05-31T03:30:33Z</time>
      </trkpt>
      <trkpt lat="49.52923" lon="5.70407">
        <ele>369</ele>
        <time>2017-05-31T03:32:33Z</time>
      </trkpt>
      <trkpt lat="49.52951" lon="5.70396">
        <ele>370</ele>
        <time>2017-05-31T03:34:33Z</time>
      </trkpt>
      <trkpt lat="49.52971" lon="5.70389">
        <ele>371</ele>
        <time>2017-05-31T03:36:33Z</time>
      </trkpt>
      <trkpt lat="49.52983" lon="5.70383">
        <ele>371</ele>
        <time>2017-05-31T03:38:33Z</time>
      </trkpt>
      <trkpt lat="49.52989" lon="5.70381">
        <ele>371</ele>
        <time>2017-05-31T03:40:33Z</time>
      </trkpt>
      <trkpt lat="49.53022" lon="5.70381">
        <ele>368</ele>
        <time>2017-05-31T03:42:33Z</time>
      </trkpt>
      <trkpt lat="49.53025" lon="5.70383">
        <ele>368</ele>
        <time>2017-05-31T03:44:33Z</time>
      </trkpt>
      <trkpt lat="49.53027" lon="5.70395">
        <ele>368</ele>
        <time>2017-05-31T03:46:33Z</time>
      </trkpt>
      <trkpt lat="49.53027" lon="5.70413">
        <ele>369</ele>
        <time>2017-05-31T03:48:33Z</time>
      </trkpt>
      <trkpt lat="49.53025" lon="5.70419">
        <ele>370</ele>
        <time>2017-05-31T03:50:33Z</time>
      </trkpt>
      <trkpt lat="49.53025" lon="5.70424">
        <ele>370</ele>
        <time>2017-05-31T03:52:33Z</time>
      </trkpt>
      <trkpt lat="49.53027" lon="5.70428">
        <ele>369</ele>
        <time>2017-05-31T03:54:33Z</time>
      </trkpt>
      <trkpt lat="49.53031" lon="5.7043">
        <ele>369</ele>
        <time>2017-05-31T03:56:33Z</time>
      </trkpt>
      <trkpt lat="49.53047" lon="5.70441">
        <ele>368</ele>
        <time>2017-05-31T03:58:33Z</time>
      </trkpt>
      <trkpt lat="49.5305" lon="5.70448">
        <ele>368</ele>
        <time>2017-05-31T04:00:33Z</time>
      </trkpt>
      <trkpt lat="49.5305" lon="5.70448">
        <ele>368</ele>
        <time>2017-05-31T04:02:33Z</time>
      </trkpt>
      <trkpt lat="49.53055" lon="5.70455">
        <ele>368</ele>
        <time>2017-05-31T04:04:33Z</time>
      </trkpt>
      <trkpt lat="49.53061" lon="5.70458">
        <ele>368</ele>
        <time>2017-05-31T04:06:33Z</time>
      </trkpt>
      <trkpt lat="49.53074" lon="5.70459">
        <ele>367</ele>
        <time>2017-05-31T04:08:33Z</time>
      </trkpt>
      <trkpt lat="49.53087" lon="5.7046">
        <ele>365</ele>
        <time>2017-05-31T04:10:33Z</time>
      </trkpt>
      <trkpt lat="49.53088" lon="5.70467">
        <ele>365</ele>
        <time>2017-05-31T04:12:33Z</time>
      </trkpt>
      <trkpt lat="49.53086" lon="5.70499">
        <ele>368</ele>
        <time>2017-05-31T04:14:33Z</time>
      </trkpt>
      <trkpt lat="49.53076" lon="5.70512">
        <ele>369</ele>
        <time>2017-05-31T04:16:33Z</time>
      </trkpt>
      <trkpt lat="49.53075" lon="5.70526">
        <ele>369</ele>
        <time>2017-05-31T04:18:33Z</time>
      </trkpt>
      <trkpt lat="49.53078" lon="5.70535">
        <ele>368</ele>
        <time>2017-05-31T04:20:33Z</time>
      </trkpt>
      <trkpt lat="49.53075" lon="5.70564">
        <ele>368</ele>
        <time>2017-05-31T04:22:33Z</time>
      </trkpt>
      <trkpt lat="49.53067" lon="5.70587">
        <ele>367</ele>
        <time>2017-05-31T04:24:33Z</time>
      </trkpt>
      <trkpt lat="49.53058" lon="5.70613">
        <ele>367</ele>
        <time>2017-05-31T04:26:33Z</time>
      </trkpt>
      <trkpt lat="49.5305" lon="5.70644">
        <ele>367</ele>
        <time>2017-05-31T04:28:33Z</time>
      </trkpt>
      <trkpt lat="49.53042" lon="5.70662">
        <ele>367</ele>
        <time>2017-05-31T04:30:33Z</time>
      </trkpt>
      <trkpt lat="49.53029" lon="5.70684">
        <ele>369</ele>
        <time>2017-05-31T04:32:33Z</time>
      </trkpt>
      <trkpt lat="49.53025" lon="5.70693">
        <ele>369</ele>
        <time>2017-05-31T04:34:33Z</time>
      </trkpt>
      <trkpt lat="49.53019" lon="5.70714">
        <ele>370</ele>
        <time>2017-05-31T04:36:33Z</time>
      </trkpt>
      <trkpt lat="49.53011" lon="5.70749">
        <ele>372</ele>
        <time>2017-05-31T04:38:33Z</time>
      </trkpt>
      <trkpt lat="49.53005" lon="5.70768">
        <ele>374</ele>
        <time>2017-05-31T04:40:33Z</time>
      </trkpt>
      <trkpt lat="49.52996" lon="5.70792">
        <ele>375</ele>
        <time>2017-05-31T04:42:33Z</time>
      </trkpt>
      <trkpt lat="49.52987" lon="5.70797">
        <ele>375</ele>
        <time>2017-05-31T04:44:33Z</time>
      </trkpt>
      <trkpt lat="49.52978" lon="5.70796">
        <ele>374</ele>
        <time>2017-05-31T04:46:33Z</time>
      </trkpt>
      <trkpt lat="49.52971" lon="5.70793">
        <ele>374</ele>
        <time>2017-05-31T04:48:33Z</time>
      </trkpt>
      <trkpt lat="49.52983" lon="5.70806">
        <ele>374</ele>
        <time>2017-05-31T04:50:33Z</time>
      </trkpt>
      <trkpt lat="49.5299" lon="5.70815">
        <ele>375</ele>
        <time>2017-05-31T04:52:33Z</time>
      </trkpt>
      <trkpt lat="49.53003" lon="5.70849">
        <ele>374</ele>
        <time>2017-05-31T04:54:33Z</time>
      </trkpt>
      <trkpt lat="49.53006" lon="5.70889">
        <ele>374</ele>
        <time>2017-05-31T04:56:33Z</time>
      </trkpt>
      <trkpt lat="49.53007" lon="5.70919">
        <ele>373</ele>
        <time>2017-05-31T04:58:33Z</time>
      </trkpt>
      <trkpt lat="49.53009" lon="5.7095">
        <ele>373</ele>
        <time>2017-05-31T05:00:33Z</time>
      </trkpt>
      <trkpt lat="49.5301" lon="5.70975">
        <ele>372</ele>
        <time>2017-05-31T05:02:33Z</time>
      </trkpt>
      <trkpt lat="49.53009" lon="5.70998">
        <ele>373</ele>
        <time>2017-05-31T05:04:33Z</time>
      </trkpt>
      <trkpt lat="49.53009" lon="5.71037">
        <ele>375</ele>
        <time>2017-05-31T05:06:33Z</time>
      </trkpt>
      <trkpt lat="49.53009" lon="5.71092">
        <ele>377</ele>
        <time>2017-05-31T05:08:33Z</time>
      </trkpt>
      <trkpt lat="49.5301" lon="5.71117">
        <ele>377</ele>
        <time>2017-05-31T05:10:33Z</time>
      </trkpt>
      <trkpt lat="49.53013" lon="5.7115">
        <ele>377</ele>
        <time>2017-05-31T05:12:33Z</time>
      </trkpt>
      <trkpt lat="49.53011" lon="5.71163">
        <ele>378</ele>
        <time>2017-05-31T05:14:33Z</time>
      </trkpt>
      <trkpt lat="49.5301" lon="5.71166">
        <ele>379</ele>
        <time>2017-05-31T05:16:33Z</time>
      </trkpt>
      <trkpt lat="49.53008" lon="5.71153">
        <ele>379</ele>
        <time>2017-05-31T05:18:33Z</time>
      </trkpt>
      <trkpt lat="49.53004" lon="5.71156">
        <ele>382</ele>
        <time>2017-05-31T05:20:33Z</time>
      </trkpt>
      <trkpt lat="49.53002" lon="5.71186">
        <ele>382</ele>
        <time>2017-05-31T05:22:33Z</time>
      </trkpt>
      <trkpt lat="49.52995" lon="5.71212">
        <ele>381</ele>
        <time>2017-05-31T05:24:33Z</time>
      </trkpt>
      <trkpt lat="49.52982" lon="5.71246">
        <ele>379</ele>
        <time>2017-05-31T05:26:33Z</time>
      </trkpt>
      <trkpt lat="49.52975" lon="5.71273">
        <ele>377</ele>
        <time>2017-05-31T05:28:33Z</time>
      </trkpt>
      <trkpt lat="49.52966" lon="5.71307">
        <ele>374</ele>
        <time>2017-05-31T05:30:33Z</time>
      </trkpt>
      <trkpt lat="49.52961" lon="5.71339">
        <ele>372</ele>
        <time>2017-05-31T05:32:33Z</time>
      </trkpt>
      <trkpt lat="49.5295" lon="5.71386">
        <ele>371</ele>
        <time>2017-05-31T05:34:33Z</time>
      </trkpt>
      <trkpt lat="49.52944" lon="5.71402">
        <ele>371</ele>
        <time>2017-05-31T05:36:33Z</time>
      </trkpt>
      <trkpt lat="49.52939" lon="5.71428">
        <ele>371</ele>
        <time>2017-05-31T05:38:33Z</time>
      </trkpt>
      <trkpt lat="49.52933" lon="5.7144">
        <ele>372</ele>
        <time>2017-05-31T05:40:33Z</time>
      </trkpt>
      <trkpt lat="49.52923" lon="5.71466">
        <ele>373</ele>
        <time>2017-05-31T05:42:33Z</time>
      </trkpt>
      <trkpt lat="49.52916" lon="5.71476">
        <ele>375</ele>
        <time>2017-05-31T05:44:33Z</time>
      </trkpt>
      <trkpt lat="49.52906" lon="5.71485">
        <ele>374</ele>
        <time>2017-05-31T05:46:33Z</time>
      </trkpt>
      <trkpt lat="49.52893" lon="5.71489">
        <ele>374</ele>
        <time>2017-05-31T05:48:33Z</time>
      </trkpt>
      <trkpt lat="49.52874" lon="5.71493">
        <ele>374</ele>
        <time>2017-05-31T05:50:33Z</time>
      </trkpt>
      <trkpt lat="49.52858" lon="5.71492">
        <ele>373</ele>
        <time>2017-05-31T05:52:33Z</time>
      </trkpt>
      <trkpt lat="49.52849" lon="5.71487">
        <ele>373</ele>
        <time>2017-05-31T05:54:33Z</time>
      </trkpt>
      <trkpt lat="49.52844" lon="5.71482">
        <ele>373</ele>
        <time>2017-05-31T05:56:33Z</time>
      </trkpt>
      <trkpt lat="49.52841" lon="5.7148">
        <ele>373</ele>
        <time>2017-05-31T05:58:33Z</time>
      </trkpt>
      <trkpt lat="49.52835" lon="5.71482">
        <ele>373</ele>
        <time>2017-05-31T06:00:33Z</time>
      </trkpt>
      <trkpt lat="49.5283" lon="5.71487">
        <ele>373</ele>
        <time>2017-05-31T06:02:33Z</time>
      </trkpt>
      <trkpt lat="49.52815" lon="5.71503">
        <ele>372</ele>
        <time>2017-05-31T06:04:33Z</time>
      </trkpt>
      <trkpt lat="49.52815" lon="5.71512">
        <ele>371</ele>
        <time>2017-05-31T06:06:33Z</time>
      </trkpt>
      <trkpt lat="49.52817" lon="5.71517">
        <ele>370</ele>
        <time>2017-05-31T06:08:33Z</time>
      </trkpt>
      <trkpt lat="49.52819" lon="5.71518">
        <ele>370</ele>
        <time>2017-05-31T06:10:33Z</time>
      </trkpt>
      <trkpt lat="49.52823" lon="5.71519">
        <ele>369</ele>
        <time>2017-05-31T06:12:33Z</time>
      </trkpt>
      <trkpt lat="49.52825" lon="5.71522">
        <ele>369</ele>
        <time>2017-05-31T06:14:33Z</time>
      </trkpt>
      <trkpt lat="49.5283" lon="5.71524">
        <ele>368</ele>
        <time>2017-05-31T06:16:33Z</time>
      </trkpt>
      <trkpt lat="49.52837" lon="5.71529">
        <ele>367</ele>
        <time>2017-05-31T06:18:33Z</time>
      </trkpt>
      <trkpt lat="49.52841" lon="5.71533">
        <ele>366</ele>
        <time>2017-05-31T06:20:33Z</time>
      </trkpt>
      <trkpt lat="49.52846" lon="5.71535">
        <ele>365</ele>
        <time>2017-05-31T06:22:33Z</time>
      </trkpt>
      <trkpt lat="49.52848" lon="5.71537">
        <ele>365</ele>
        <time>2017-05-31T06:24:33Z</time>
      </trkpt>
      <trkpt lat="49.5285" lon="5.71539">
        <ele>364</ele>
        <time>2017-05-31T06:26:33Z</time>
      </trkpt>
      <trkpt lat="49.52853" lon="5.71541">
        <ele>363</ele>
        <time>2017-05-31T06:28:33Z</time>
      </trkpt>
      <trkpt lat="49.52853" lon="5.71542">
        <ele>363</ele>
        <time>2017-05-31T06:30:33Z</time>
      </trkpt>
      <trkpt lat="49.52857" lon="5.71545">
        <ele>362</ele>
        <time>2017-05-31T06:32:33Z</time>
      </trkpt>
      <trkpt lat="49.52858" lon="5.71548">
        <ele>361</ele>
        <time>2017-05-31T06:34:33Z</time>
      </trkpt>
      <trkpt lat="49.52863" lon="5.71551">
        <ele>360</ele>
        <time>2017-05-31T06:36:33Z</time>
      </trkpt>
      <trkpt lat="49.52866" lon="5.71553">
        <ele>359</ele>
        <time>2017-05-31T06:38:33Z</time>
      </trkpt>
      <trkpt lat="49.52868" lon="5.71557">
        <ele>358</ele>
        <time>2017-05-31T06:40:33Z</time>
      </trkpt>
      <trkpt lat="49.52874" lon="5.71562">
        <ele>356</ele>
        <time>2017-05-31T06:42:33Z</time>
      </trkpt>
      <trkpt lat="49.52878" lon="5.71566">
        <ele>355</ele>
        <time>2017-05-31T06:44:33Z</time>
      </trkpt>
      <trkpt lat="49.52883" lon="5.7157">
        <ele>353</ele>
        <time>2017-05-31T06:46:33Z</time>
      </trkpt>
      <trkpt lat="49.52887" lon="5.71573">
        <ele>351</ele>
        <time>2017-05-31T06:48:33Z</time>
      </trkpt>
      <trkpt lat="49.52895" lon="5.71578">
        <ele>349</ele>
        <time>2017-05-31T06:50:33Z</time>
      </trkpt>
      <trkpt lat="49.52894" lon="5.71584">
        <ele>347</ele>
        <time>2017-05-31T06:52:33Z</time>
      </trkpt>
      <trkpt lat="49.52892" lon="5.71588">
        <ele>346</ele>
        <time>2017-05-31T06:54:33Z</time>
      </trkpt>
      <trkpt lat="49.52883" lon="5.71603">
        <ele>343</ele>
        <time>2017-05-31T06:56:33Z</time>
      </trkpt>
      <trkpt lat="49.52881" lon="5.71607">
        <ele>342</ele>
        <time>2017-05-31T06:58:33Z</time>
      </trkpt>
      <trkpt lat="49.52875" lon="5.71627">
        <ele>338</ele>
        <time>2017-05-31T07:00:33Z</time>
      </trkpt>
      <trkpt lat="49.52874" lon="5.71633">
        <ele>336</ele>
        <time>2017-05-31T07:02:33Z</time>
      </trkpt>
      <trkpt lat="49.52874" lon="5.7164">
        <ele>335</ele>
        <time>2017-05-31T07:04:33Z</time>
      </trkpt>
      <trkpt lat="49.52875" lon="5.71646">
        <ele>333</ele>
        <time>2017-05-31T07:06:33Z</time>
      </trkpt>
      <trkpt lat="49.52877" lon="5.7165">
        <ele>331</ele>
        <time>2017-05-31T07:08:33Z</time>
      </trkpt>
      <trkpt lat="49.5288" lon="5.71653">
        <ele>330</ele>
        <time>2017-05-31T07:10:33Z</time>
      </trkpt>
      <trkpt lat="49.52883" lon="5.71657">
        <ele>328</ele>
        <time>2017-05-31T07:12:33Z</time>
      </trkpt>
      <trkpt lat="49.52887" lon="5.71661">
        <ele>326</ele>
        <time>2017-05-31T07:14:33Z</time>
      </trkpt>
      <trkpt lat="49.52892" lon="5.71668">
        <ele>323</ele>
        <time>2017-05-31T07:16:33Z</time>
      </trkpt>
      <trkpt lat="49.52897" lon="5.71673">
        <ele>320</ele>
        <time>2017-05-31T07:18:33Z</time>
      </trkpt>
      <trkpt lat="49.52904" lon="5.71684">
        <ele>317</ele>
        <time>2017-05-31T07:20:33Z</time>
      </trkpt>
      <trkpt lat="49.52906" lon="5.71691">
        <ele>315</ele>
        <time>2017-05-31T07:22:33Z</time>
      </trkpt>
      <trkpt lat="49.5291" lon="5.71699">
        <ele>312</ele>
        <time>2017-05-31T07:24:33Z</time>
      </trkpt>
      <trkpt lat="49.52905" lon="5.71716">
        <ele>310</ele>
        <time>2017-05-31T07:26:33Z</time>
      </trkpt>
      <trkpt lat="49.52869" lon="5.71749">
        <ele>312</ele>
        <time>2017-05-31T07:28:33Z</time>
      </trkpt>
      <trkpt lat="49.52848" lon="5.7177">
        <ele>314</ele>
        <time>2017-05-31T07:30:33Z</time>
      </trkpt>
      <trkpt lat="49.52812" lon="5.71807">
        <ele>319</ele>
        <time>2017-05-31T07:32:33Z</time>
      </trkpt>
      <trkpt lat="49.52786" lon="5.7183">
        <ele>324</ele>
        <time>2017-05-31T07:34:33Z</time>
      </trkpt>
      <trkpt lat="49.52774" lon="5.71842">
        <ele>326</ele>
        <time>2017-05-31T07:36:33Z</time>
      </trkpt>
      <trkpt lat="49.52763" lon="5.71855">
        <ele>327</ele>
        <time>2017-05-31T07:38:33Z</time>
      </trkpt>
      <trkpt lat="49.52753" lon="5.71869">
        <ele>327</ele>
        <time>2017-05-31T07:40:33Z</time>
      </trkpt>
      <trkpt lat="49.52723" lon="5.71913">
        <ele>330</ele>
        <time>2017-05-31T07:42:33Z</time>
      </trkpt>
      <trkpt lat="49.52713" lon="5.71927">
        <ele>333</ele>
        <time>2017-05-31T07:44:33Z</time>
      </trkpt>
      <trkpt lat="49.52693" lon="5.71953">
        <ele>336</ele>
        <time>2017-05-31T07:46:33Z</time>
      </trkpt>
      <trkpt lat="49.52683" lon="5.71965">
        <ele>337</ele>
        <time>2017-05-31T07:48:33Z</time>
      </trkpt>
      <trkpt lat="49.52673" lon="5.71976">
        <ele>337</ele>
        <time>2017-05-31T07:50:33Z</time>
      </trkpt>
      <trkpt lat="49.52651" lon="5.71996">
        <ele>339</ele>
        <time>2017-05-31T07:52:33Z</time>
      </trkpt>
      <trkpt lat="49.52639" lon="5.72004">
        <ele>342</ele>
        <time>2017-05-31T07:54:33Z</time>
      </trkpt>
      <trkpt lat="49.52594" lon="5.72032">
        <ele>353</ele>
        <time>2017-05-31T07:56:33Z</time>
      </trkpt>
      <trkpt lat="49.52585" lon="5.7204">
        <ele>354</ele>
        <time>2017-05-31T07:58:33Z</time>
      </trkpt>
      <trkpt lat="49.52587" lon="5.72044">
        <ele>353</ele>
        <time>2017-05-31T08:00:33Z</time>
      </trkpt>
      <trkpt lat="49.52596" lon="5.72046">
        <ele>350</ele>
        <time>2017-05-31T08:02:33Z</time>
      </trkpt>
      <trkpt lat="49.52601" lon="5.72055">
        <ele>348</ele>
        <time>2017-05-31T08:04:33Z</time>
      </trkpt>
      <trkpt lat="49.52611" lon="5.72082">
        <ele>343</ele>
        <time>2017-05-31T08:06:33Z</time>
      </trkpt>
      <trkpt lat="49.5262" lon="5.72111">
        <ele>349</ele>
        <time>2017-05-31T08:08:33Z</time>
      </trkpt>
      <trkpt lat="49.52625" lon="5.72118">
        <ele>350</ele>
        <time>2017-05-31T08:10:33Z</time>
      </trkpt>
      <trkpt lat="49.52628" lon="5.72124">
        <ele>352</ele>
        <time>2017-05-31T08:12:33Z</time>
      </trkpt>
      <trkpt lat="49.52626" lon="5.72135">
        <ele>355</ele>
        <time>2017-05-31T08:14:33Z</time>
      </trkpt>
      <trkpt lat="49.52621" lon="5.72142">
        <ele>357</ele>
        <time>2017-05-31T08:16:33Z</time>
      </trkpt>
      <trkpt lat="49.52613" lon="5.72152">
        <ele>359</ele>
        <time>2017-05-31T08:18:33Z</time>
      </trkpt>
      <trkpt lat="49.52611" lon="5.72155">
        <ele>360</ele>
        <time>2017-05-31T08:20:33Z</time>
      </trkpt>
      <trkpt lat="49.52609" lon="5.72157">
        <ele>361</ele>
        <time>2017-05-31T08:22:33Z</time>
      </trkpt>
      <trkpt lat="49.52604" lon="5.72161">
        <ele>362</ele>
        <time>2017-05-31T08:24:33Z</time>
      </trkpt>
      <trkpt lat="49.526" lon="5.72165">
        <ele>363</ele>
        <time>2017-05-31T08:26:33Z</time>
      </trkpt>
      <trkpt lat="49.52594" lon="5.72168">
        <ele>363</ele>
        <time>2017-05-31T08:28:33Z</time>
      </trkpt>
      <trkpt lat="49.52591" lon="5.72171">
        <ele>364</ele>
        <time>2017-05-31T08:30:33Z</time>
      </trkpt>
      <trkpt lat="49.52588" lon="5.72174">
        <ele>364</ele>
        <time>2017-05-31T08:32:33Z</time>
      </trkpt>
      <trkpt lat="49.52571" lon="5.72187">
        <ele>367</ele>
        <time>2017-05-31T08:34:33Z</time>
      </trkpt>
      <trkpt lat="49.52558" lon="5.72198">
        <ele>369</ele>
        <time>2017-05-31T08:36:33Z</time>
      </trkpt>
      <trkpt lat="49.52556" lon="5.722">
        <ele>369</ele>
        <time>2017-05-31T08:38:33Z</time>
      </trkpt>
      <trkpt lat="49.52548" lon="5.72202">
        <ele>370</ele>
        <time>2017-05-31T08:40:33Z</time>
      </trkpt>
      <trkpt lat="49.52546" lon="5.72202">
        <ele>370</ele>
        <time>2017-05-31T08:42:33Z</time>
      </trkpt>
      <trkpt lat="49.52542" lon="5.72203">
        <ele>370</ele>
        <time>2017-05-31T08:44:33Z</time>
      </trkpt>
      <trkpt lat="49.52532" lon="5.72202">
        <ele>371</ele>
        <time>2017-05-31T08:46:33Z</time>
      </trkpt>
      <trkpt lat="49.5251" lon="5.72193">
        <ele>372</ele>
        <time>2017-05-31T08:48:33Z</time>
      </trkpt>
      <trkpt lat="49.52497" lon="5.72186">
        <ele>372</ele>
        <time>2017-05-31T08:50:33Z</time>
      </trkpt>
      <trkpt lat="49.52476" lon="5.72182">
        <ele>370</ele>
        <time>2017-05-31T08:52:33Z</time>
      </trkpt>
      <trkpt lat="49.52456" lon="5.72191">
        <ele>369</ele>
        <time>2017-05-31T08:54:33Z</time>
      </trkpt>
      <trkpt lat="49.52445" lon="5.722">
        <ele>369</ele>
        <time>2017-05-31T08:56:33Z</time>
      </trkpt>
      <trkpt lat="49.52427" lon="5.72219">
        <ele>368</ele>
        <time>2017-05-31T08:58:33Z</time>
      </trkpt>
      <trkpt lat="49.52424" lon="5.7222">
        <ele>368</ele>
        <time>2017-05-31T09:00:33Z</time>
      </trkpt>
      <trkpt lat="49.52417" lon="5.72218">
        <ele>367</ele>
        <time>2017-05-31T09:02:33Z</time>
      </trkpt>
      <trkpt lat="49.52413" lon="5.7221">
        <ele>367</ele>
        <time>2017-05-31T09:04:33Z</time>
      </trkpt>
      <trkpt lat="49.5241" lon="5.72208">
        <ele>367</ele>
        <time>2017-05-31T09:06:33Z</time>
      </trkpt>
      <trkpt lat="49.52406" lon="5.72206">
        <ele>367</ele>
        <time>2017-05-31T09:08:33Z</time>
      </trkpt>
      <trkpt lat="49.52398" lon="5.72209">
        <ele>367</ele>
        <time>2017-05-31T09:10:33Z</time>
      </trkpt>
      <trkpt lat="49.52381" lon="5.72228">
        <ele>367</ele>
        <time>2017-05-31T09:12:33Z</time>
      </trkpt>
      <trkpt lat="49.52377" lon="5.72238">
        <ele>367</ele>
        <time>2017-05-31T09:14:33Z</time>
      </trkpt>
      <trkpt lat="49.52374" lon="5.72249">
        <ele>367</ele>
        <time>2017-05-31T09:16:33Z</time>
      </trkpt>
      <trkpt lat="49.52373" lon="5.72259">
        <ele>367</ele>
        <time>2017-05-31T09:18:33Z</time>
      </trkpt>
      <trkpt lat="49.52373" lon="5.72268">
        <ele>367</ele>
        <time>2017-05-31T09:20:33Z</time>
      </trkpt>
      <trkpt lat="49.52379" lon="5.72284">
        <ele>367</ele>
        <time>2017-05-31T09:22:33Z</time>
      </trkpt>
      <trkpt lat="49.52383" lon="5.7229">
        <ele>367</ele>
        <time>2017-05-31T09:24:33Z</time>
      </trkpt>
      <trkpt lat="49.52388" lon="5.72302">
        <ele>368</ele>
        <time>2017-05-31T09:26:33Z</time>
      </trkpt>
      <trkpt lat="49.52379" lon="5.72312">
        <ele>368</ele>
        <time>2017-05-31T09:28:33Z</time>
      </trkpt>
      <trkpt lat="49.52362" lon="5.72313">
        <ele>368</ele>
        <time>2017-05-31T09:30:33Z</time>
      </trkpt>
      <trkpt lat="49.52355" lon="5.72308">
        <ele>368</ele>
        <time>2017-05-31T09:32:33Z</time>
      </trkpt>
      <trkpt lat="49.52349" lon="5.72301">
        <ele>368</ele>
        <time>2017-05-31T09:34:33Z</time>
      </trkpt>
      <trkpt lat="49.52344" lon="5.72299">
        <ele>368</ele>
        <time>2017-05-31T09:36:33Z</time>
      </trkpt>
      <trkpt lat="49.52331" lon="5.72297">
        <ele>368</ele>
        <time>2017-05-31T09:38:33Z</time>
      </trkpt>
      <trkpt lat="49.52305" lon="5.72296">
        <ele>369</ele>
        <time>2017-05-31T09:40:33Z</time>
      </trkpt>
      <trkpt lat="49.52287" lon="5.723">
        <ele>370</ele>
        <time>2017-05-31T09:42:33Z</time>
      </trkpt>
      <trkpt lat="49.52272" lon="5.72308">
        <ele>371</ele>
        <time>2017-05-31T09:44:33Z</time>
      </trkpt>
      <trkpt lat="49.52257" lon="5.72318">
        <ele>372</ele>
        <time>2017-05-31T09:46:33Z</time>
      </trkpt>
      <trkpt lat="49.52239" lon="5.72337">
        <ele>374</ele>
        <time>2017-05-31T09:48:33Z</time>
      </trkpt>
      <trkpt lat="49.52197" lon="5.72384">
        <ele>375</ele>
        <time>2017-05-31T09:50:33Z</time>
      </trkpt>
      <trkpt lat="49.52183" lon="5.72402">
        <ele>376</ele>
        <time>2017-05-31T09:52:33Z</time>
      </trkpt>
      <trkpt lat="49.52175" lon="5.72412">
        <ele>376</ele>
        <time>2017-05-31T09:54:33Z</time>
      </trkpt>
      <trkpt lat="49.52161" lon="5.72433">
        <ele>377</ele>
        <time>2017-05-31T09:56:33Z</time>
      </trkpt>
      <trkpt lat="49.52145" lon="5.72459">
        <ele>377</ele>
        <time>2017-05-31T09:58:33Z</time>
      </trkpt>
      <trkpt lat="49.52141" lon="5.72464">
        <ele>378</ele>
        <time>2017-05-31T10:00:33Z</time>
      </trkpt>
      <trkpt lat="49.52125" lon="5.72441">
        <ele>377</ele>
        <time>2017-05-31T10:02:33Z</time>
      </trkpt>
      <trkpt lat="49.52114" lon="5.72417">
        <ele>377</ele>
        <time>2017-05-31T10:04:33Z</time>
      </trkpt>
      <trkpt lat="49.5208" lon="5.72332">
        <ele>377</ele>
        <time>2017-05-31T10:06:33Z</time>
      </trkpt>
      <trkpt lat="49.52068" lon="5.72302">
        <ele>377</ele>
        <time>2017-05-31T10:08:33Z</time>
      </trkpt>
      <trkpt lat="49.52058" lon="5.72277">
        <ele>376</ele>
        <time>2017-05-31T10:10:33Z</time>
      </trkpt>
      <trkpt lat="49.52048" lon="5.72251">
        <ele>376</ele>
        <time>2017-05-31T10:12:33Z</time>
      </trkpt>
      <trkpt lat="49.5204" lon="5.72235">
        <ele>376</ele>
        <time>2017-05-31T10:14:33Z</time>
      </trkpt>
      <trkpt lat="49.52028" lon="5.72202">
        <ele>376</ele>
        <time>2017-05-31T10:16:33Z</time>
      </trkpt>
      <trkpt lat="49.52017" lon="5.72168">
        <ele>377</ele>
        <time>2017-05-31T10:18:33Z</time>
      </trkpt>
      <trkpt lat="49.52006" lon="5.72135">
        <ele>376</ele>
        <time>2017-05-31T10:20:33Z</time>
      </trkpt>
      <trkpt lat="49.52003" lon="5.72125">
        <ele>376</ele>
        <time>2017-05-31T10:22:33Z</time>
      </trkpt>
      <trkpt lat="49.52002" lon="5.72115">
        <ele>376</ele>
        <time>2017-05-31T10:24:33Z</time>
      </trkpt>
      <trkpt lat="49.52004" lon="5.72108">
        <ele>376</ele>
        <time>2017-05-31T10:26:33Z</time>
      </trkpt>
      <trkpt lat="49.52016" lon="5.72094">
        <ele>376</ele>
        <time>2017-05-31T10:28:33Z</time>
      </trkpt>
      <trkpt lat="49.52018" lon="5.7206">
        <ele>375</ele>
        <time>2017-05-31T10:30:33Z</time>
      </trkpt>
      <trkpt lat="49.52016" lon="5.72029">
        <ele>375</ele>
        <time>2017-05-31T10:32:33Z</time>
      </trkpt>
      <trkpt lat="49.52013" lon="5.72003">
        <ele>375</ele>
        <time>2017-05-31T10:34:33Z</time>
      </trkpt>
      <trkpt lat="49.52007" lon="5.71978">
        <ele>375</ele>
        <time>2017-05-31T10:36:33Z</time>
      </trkpt>
      <trkpt lat="49.52" lon="5.71971">
        <ele>375</ele>
        <time>2017-05-31T10:38:33Z</time>
      </trkpt>
      <trkpt lat="49.51982" lon="5.71977">
        <ele>375</ele>
        <time>2017-05-31T10:40:33Z</time>
      </trkpt>
      <trkpt lat="49.51979" lon="5.7198">
        <ele>376</ele>
        <time>2017-05-31T10:42:33Z</time>
      </trkpt>
      <trkpt lat="49.51982" lon="5.71986">
        <ele>375</ele>
        <time>2017-05-31T10:44:33Z</time>
      </trkpt>
      <trkpt lat="49.51984" lon="5.71986">
        <ele>375</ele>
        <time>2017-05-31T10:46:33Z</time>
      </trkpt>
      <trkpt lat="49.51989" lon="5.71984">
        <ele>375</ele>
        <time>2017-05-31T10:48:33Z</time>
      </trkpt>
      <trkpt lat="49.51989" lon="5.71984">
        <ele>375</ele>
        <time>2017-05-31T10:50:33Z</time>
      </trkpt>
    </trkseg>
  </trk>
</gpx>